GEFSNE_prec_meanprecacc_006.txt.gz
Total_Precipitation_Accumulation
0.06 0.06 0.05 0.04 0.02 0.01 0.00 0.00 0.00 0.00 0.00 0.00 0.00 0.00 0.01 0.03 0.05 0.02 0.01 0.00 0.00 0.00 0.01 0.01 0.00 0.00 0.00 0.00 0.00 0.00 0.00 0.00 0.00 0.00 0.00 0.00 0.00 0.00
0.08 0.08 0.07 0.06 0.04 0.02 0.01 0.01 0.00 0.00 0.00 0.00 0.00 0.00 0.00 0.01 0.02 0.01 0.00 0.00 0.00 0.00 0.00 0.00 0.00 0.00 0.00 0.00 0.00 0.00 0.00 0.00 0.00 0.00 0.00 0.00 0.00 0.00
0.12 0.13 0.14 0.11 0.06 0.04 0.02 0.01 0.01 0.00 0.00 0.00 0.00 0.00 0.00 0.00 0.00 0.00 0.00 0.00 0.00 0.00 0.00 0.00 0.00 0.00 0.00 0.00 0.00 0.00 0.00 0.00 0.00 0.00 0.00 0.00 0.00 0.00
0.21 0.17 0.15 0.14 0.09 0.05 0.03 0.02 0.01 0.00 0.00 0.00 0.00 0.00 0.00 0.00 0.00 0.00 0.00 0.00 0.00 0.00 0.00 0.00 0.00 0.00 0.00 0.00 0.00 0.00 0.00 0.00 0.00 0.00 0.00 0.00 0.00 0.00
0.37 0.26 0.16 0.09 0.05 0.02 0.01 0.01 0.01 0.00 0.00 0.00 0.00 0.00 0.00 0.00 0.00 0.00 0.00 0.00 0.00 0.00 0.01 0.00 0.00 0.00 0.00 0.00 0.00 0.00 0.00 0.00 0.00 0.00 0.00 0.00 0.00 0.00
0.39 0.31 0.19 0.09 0.03 0.01 0.01 0.00 0.00 0.00 0.00 0.01 0.01 0.00 0.00 0.00 0.00 0.01 0.01 0.00 0.00 0.00 0.01 0.00 0.00 0.00 0.00 0.00 0.00 0.00 0.00 0.00 0.00 0.00 0.00 0.00 0.00 0.00
0.23 0.20 0.16 0.11 0.07 0.04 0.02 0.01 0.00 0.00 0.00 0.00 0.01 0.01 0.00 0.01 0.01 0.02 0.04 0.04 0.02 0.01 0.00 0.00 0.00 0.00 0.00 0.00 0.00 0.00 0.00 0.00 0.00 0.00 0.00 0.00 0.00 0.00
0.14 0.12 0.08 0.07 0.06 0.06 0.07 0.05 0.03 0.02 0.01 0.01 0.01 0.01 0.01 0.00 0.01 0.02 0.05 0.07 0.06 0.03 0.03 0.04 0.02 0.00 0.00 0.00 0.00 0.00 0.00 0.00 0.00 0.00 0.00 0.00 0.00 0.00
0.05 0.05 0.04 0.03 0.03 0.04 0.06 0.06 0.04 0.04 0.04 0.04 0.04 0.04 0.02 0.01 0.01 0.01 0.03 0.05 0.08 0.07 0.07 0.10 0.09 0.05 0.02 0.00 0.00 0.00 0.00 0.00 0.00 0.00 0.00 0.00 0.00 0.00
0.00 0.01 0.01 0.02 0.01 0.03 0.04 0.04 0.03 0.03 0.04 0.06 0.07 0.07 0.06 0.05 0.03 0.03 0.04 0.05 0.07 0.10 0.11 0.12 0.12 0.10 0.05 0.02 0.01 0.00 0.00 0.00 0.00 0.00 0.00 0.00 0.00 0.00
0.00 0.00 0.00 0.00 0.01 0.01 0.02 0.02 0.02 0.03 0.04 0.04 0.04 0.05 0.05 0.05 0.05 0.05 0.07 0.07 0.07 0.09 0.12 0.14 0.11 0.08 0.06 0.03 0.01 0.00 0.00 0.00 0.00 0.00 0.00 0.00 0.00 0.00
0.00 0.00 0.00 0.01 0.01 0.00 0.01 0.01 0.01 0.01 0.01 0.00 0.00 0.00 0.00 0.01 0.01 0.03 0.05 0.09 0.10 0.10 0.08 0.08 0.08 0.07 0.05 0.02 0.01 0.00 0.00 0.00 0.00 0.00 0.00 0.00 0.00 0.00
0.00 0.00 0.01 0.01 0.01 0.00 0.00 0.00 0.00 0.00 0.00 0.00 0.00 0.00 0.00 0.00 0.00 0.00 0.01 0.02 0.04 0.05 0.04 0.03 0.03 0.03 0.02 0.01 0.00 0.00 0.00 0.00 0.00 0.00 0.00 0.00 0.00 0.00
0.00 0.00 0.01 0.01 0.01 0.00 0.00 0.00 0.00 0.00 0.00 0.00 0.00 0.00 0.00 0.00 0.00 0.00 0.00 0.00 0.00 0.01 0.00 0.00 0.01 0.01 0.01 0.00 0.00 0.00 0.00 0.00 0.00 0.00 0.00 0.00 0.00 0.00
0.01 0.01 0.01 0.00 0.00 0.00 0.00 0.00 0.00 0.00 0.00 0.00 0.00 0.00 0.00 0.00 0.00 0.00 0.00 0.00 0.00 0.00 0.00 0.00 0.00 0.00 0.00 0.00 0.00 0.00 0.00 0.00 0.00 0.00 0.00 0.00 0.00 0.00
0.02 0.02 0.01 0.00 0.00 0.00 0.00 0.00 0.00 0.00 0.00 0.00 0.00 0.00 0.00 0.00 0.00 0.00 0.00 0.00 0.00 0.00 0.00 0.00 0.00 0.00 0.00 0.00 0.00 0.00 0.00 0.00 0.00 0.00 0.00 0.00 0.00 0.00
0.02 0.01 0.00 0.00 0.00 0.00 0.00 0.00 0.00 0.00 0.00 0.00 0.00 0.00 0.00 0.00 0.00 0.00 0.00 0.00 0.00 0.00 0.00 0.00 0.00 0.00 0.00 0.00 0.00 0.00 0.00 0.00 0.00 0.00 0.00 0.00 0.00 0.00
0.03 0.00 0.00 0.00 0.00 0.00 0.00 0.00 0.00 0.00 0.00 0.00 0.00 0.00 0.00 0.00 0.00 0.00 0.00 0.00 0.00 0.00 0.00 0.00 0.00 0.00 0.00 0.00 0.00 0.00 0.00 0.00 0.00 0.00 0.00 0.00 0.00 0.00
0.00 0.00 0.00 0.00 0.00 0.00 0.00 0.00 0.00 0.00 0.00 0.00 0.00 0.00 0.00 0.00 0.00 0.00 0.00 0.00 0.00 0.00 0.00 0.00 0.00 0.00 0.00 0.00 0.00 0.00 0.00 0.00 0.00 0.00 0.00 0.00 0.00 0.00
0.00 0.00 0.00 0.00 0.00 0.00 0.00 0.00 0.00 0.00 0.00 0.00 0.00 0.00 0.00 0.00 0.00 0.00 0.00 0.00 0.00 0.00 0.00 0.00 0.00 0.00 0.00 0.00 0.00 0.00 0.00 0.00 0.00 0.00 0.00 0.00 0.00 0.00
0.00 0.00 0.00 0.00 0.00 0.00 0.00 0.00 0.00 0.00 0.00 0.00 0.00 0.00 0.00 0.00 0.00 0.00 0.00 0.00 0.00 0.00 0.00 0.00 0.00 0.00 0.00 0.00 0.00 0.00 0.00 0.00 0.00 0.00 0.00 0.00 0.00 0.00
0.00 0.00 0.00 0.00 0.00 0.00 0.00 0.00 0.00 0.00 0.00 0.00 0.00 0.00 0.00 0.00 0.00 0.00 0.00 0.00 0.00 0.00 0.00 0.00 0.00 0.00 0.00 0.00 0.00 0.00 0.00 0.00 0.00 0.00 0.00 0.00 0.01 0.01
0.00 0.00 0.00 0.00 0.00 0.00 0.00 0.00 0.00 0.00 0.00 0.00 0.00 0.00 0.00 0.00 0.00 0.00 0.00 0.00 0.00 0.00 0.00 0.00 0.00 0.00 0.00 0.00 0.00 0.00 0.00 0.00 0.00 0.00 0.00 0.00 0.00 0.00

GEFSNE_prec_meanprecacc_012.txt.gz
Total_Precipitation_Accumulation
0.07 0.08 0.08 0.07 0.06 0.05 0.04 0.05 0.05 0.04 0.02 0.01 0.01 0.01 0.03 0.07 0.10 0.07 0.06 0.06 0.05 0.08 0.11 0.12 0.13 0.14 0.16 0.17 0.16 0.11 0.06 0.02 0.00 0.00 0.00 0.00 0.00 0.00
0.10 0.10 0.11 0.12 0.10 0.08 0.06 0.05 0.05 0.05 0.03 0.01 0.01 0.01 0.03 0.06 0.10 0.08 0.07 0.06 0.05 0.06 0.08 0.11 0.12 0.13 0.14 0.13 0.10 0.08 0.04 0.01 0.00 0.00 0.00 0.00 0.00 0.00
0.15 0.16 0.17 0.16 0.16 0.14 0.11 0.08 0.06 0.06 0.05 0.02 0.01 0.01 0.03 0.06 0.08 0.07 0.08 0.05 0.04 0.04 0.06 0.08 0.10 0.11 0.11 0.11 0.08 0.05 0.02 0.00 0.00 0.00 0.00 0.00 0.00 0.00
0.26 0.23 0.22 0.23 0.24 0.22 0.19 0.14 0.09 0.07 0.06 0.04 0.02 0.01 0.02 0.05 0.07 0.06 0.05 0.03 0.02 0.02 0.03 0.04 0.06 0.07 0.08 0.07 0.05 0.02 0.01 0.00 0.00 0.00 0.00 0.00 0.00 0.00
0.49 0.44 0.37 0.30 0.29 0.29 0.29 0.25 0.18 0.12 0.09 0.07 0.04 0.02 0.02 0.05 0.07 0.06 0.03 0.02 0.01 0.02 0.02 0.01 0.01 0.02 0.02 0.02 0.02 0.01 0.01 0.00 0.00 0.00 0.00 0.00 0.00 0.00
0.57 0.58 0.53 0.45 0.36 0.33 0.32 0.33 0.30 0.23 0.15 0.11 0.07 0.04 0.02 0.04 0.07 0.07 0.04 0.02 0.01 0.01 0.01 0.01 0.00 0.00 0.00 0.00 0.00 0.00 0.00 0.00 0.00 0.00 0.00 0.00 0.00 0.00
0.38 0.42 0.46 0.48 0.49 0.42 0.36 0.33 0.33 0.32 0.25 0.17 0.10 0.06 0.04 0.04 0.07 0.08 0.08 0.07 0.04 0.02 0.01 0.00 0.00 0.00 0.00 0.00 0.00 0.00 0.00 0.00 0.00 0.00 0.00 0.00 0.00 0.00
0.22 0.24 0.26 0.32 0.38 0.42 0.42 0.35 0.32 0.32 0.30 0.24 0.15 0.08 0.04 0.04 0.04 0.07 0.09 0.11 0.08 0.05 0.04 0.04 0.02 0.01 0.00 0.00 0.00 0.00 0.00 0.00 0.00 0.00 0.00 0.00 0.00 0.00
0.08 0.10 0.12 0.16 0.19 0.22 0.25 0.25 0.25 0.26 0.27 0.24 0.20 0.14 0.07 0.04 0.03 0.04 0.07 0.11 0.11 0.10 0.11 0.11 0.09 0.06 0.02 0.00 0.00 0.00 0.00 0.00 0.00 0.00 0.00 0.00 0.00 0.00
0.01 0.02 0.03 0.06 0.10 0.13 0.14 0.15 0.16 0.18 0.21 0.21 0.22 0.20 0.15 0.10 0.06 0.05 0.06 0.08 0.11 0.16 0.21 0.25 0.21 0.15 0.08 0.03 0.01 0.00 0.00 0.00 0.00 0.00 0.00 0.00 0.00 0.00
0.02 0.04 0.02 0.01 0.03 0.04 0.06 0.08 0.09 0.13 0.16 0.18 0.16 0.15 0.14 0.13 0.11 0.09 0.10 0.10 0.11 0.15 0.23 0.34 0.36 0.28 0.18 0.10 0.05 0.02 0.01 0.00 0.00 0.00 0.00 0.00 0.00 0.00
0.01 0.04 0.06 0.03 0.02 0.01 0.02 0.03 0.04 0.07 0.07 0.07 0.06 0.04 0.03 0.04 0.06 0.09 0.13 0.14 0.14 0.15 0.17 0.23 0.34 0.37 0.33 0.20 0.08 0.03 0.02 0.01 0.00 0.00 0.00 0.00 0.00 0.00
0.02 0.05 0.07 0.04 0.02 0.01 0.00 0.01 0.02 0.02 0.01 0.02 0.02 0.01 0.01 0.01 0.02 0.05 0.08 0.10 0.11 0.12 0.10 0.10 0.17 0.22 0.24 0.21 0.11 0.05 0.02 0.01 0.00 0.00 0.00 0.00 0.00 0.00
0.03 0.05 0.07 0.03 0.01 0.01 0.00 0.00 0.00 0.00 0.00 0.00 0.00 0.00 0.00 0.00 0.01 0.02 0.04 0.05 0.06 0.09 0.08 0.05 0.07 0.09 0.10 0.09 0.08 0.03 0.02 0.01 0.01 0.00 0.00 0.00 0.00 0.00
0.12 0.11 0.03 0.00 0.00 0.00 0.00 0.00 0.00 0.00 0.00 0.00 0.00 0.00 0.00 0.00 0.00 0.00 0.01 0.01 0.01 0.02 0.03 0.03 0.04 0.05 0.04 0.04 0.03 0.01 0.01 0.00 0.00 0.00 0.00 0.00 0.00 0.00
0.11 0.09 0.02 0.00 0.00 0.00 0.00 0.00 0.00 0.00 0.00 0.00 0.00 0.00 0.00 0.00 0.00 0.00 0.00 0.00 0.00 0.00 0.00 0.01 0.01 0.02 0.02 0.02 0.01 0.01 0.00 0.00 0.00 0.00 0.00 0.00 0.00 0.00
0.06 0.02 0.00 0.00 0.00 0.00 0.00 0.00 0.00 0.00 0.00 0.00 0.00 0.00 0.00 0.00 0.00 0.00 0.00 0.00 0.00 0.00 0.00 0.00 0.00 0.00 0.00 0.00 0.00 0.00 0.00 0.00 0.00 0.00 0.00 0.00 0.00 0.00
0.04 0.01 0.00 0.00 0.00 0.00 0.00 0.00 0.00 0.00 0.00 0.00 0.00 0.00 0.00 0.00 0.00 0.00 0.00 0.00 0.00 0.00 0.00 0.00 0.00 0.00 0.00 0.00 0.00 0.00 0.00 0.00 0.00 0.00 0.00 0.00 0.00 0.00
0.00 0.00 0.00 0.00 0.00 0.00 0.00 0.00 0.00 0.00 0.00 0.00 0.00 0.00 0.00 0.00 0.00 0.00 0.00 0.00 0.00 0.00 0.00 0.00 0.00 0.00 0.00 0.00 0.00 0.00 0.00 0.00 0.00 0.00 0.00 0.00 0.00 0.00
0.00 0.00 0.00 0.00 0.00 0.00 0.00 0.00 0.00 0.00 0.00 0.00 0.00 0.00 0.00 0.00 0.00 0.00 0.00 0.00 0.00 0.00 0.00 0.00 0.00 0.00 0.00 0.00 0.00 0.00 0.00 0.00 0.00 0.00 0.00 0.00 0.00 0.00
0.00 0.00 0.00 0.00 0.00 0.00 0.00 0.00 0.00 0.00 0.00 0.00 0.00 0.00 0.00 0.00 0.00 0.00 0.00 0.00 0.00 0.00 0.00 0.00 0.00 0.00 0.00 0.00 0.00 0.00 0.00 0.00 0.00 0.00 0.00 0.00 0.00 0.00
0.00 0.00 0.00 0.00 0.00 0.00 0.00 0.00 0.00 0.00 0.00 0.00 0.00 0.00 0.00 0.00 0.00 0.00 0.00 0.00 0.00 0.00 0.00 0.00 0.00 0.00 0.00 0.00 0.00 0.00 0.00 0.00 0.00 0.00 0.00 0.00 0.01 0.01
0.00 0.00 0.00 0.00 0.00 0.00 0.00 0.00 0.00 0.00 0.00 0.00 0.00 0.00 0.00 0.00 0.00 0.00 0.00 0.00 0.00 0.00 0.00 0.00 0.00 0.00 0.00 0.00 0.00 0.00 0.00 0.00 0.00 0.00 0.00 0.00 0.00 0.00

GEFSNE_prec_meanprecacc_018.txt.gz
Total_Precipitation_Accumulation
0.10 0.11 0.12 0.11 0.10 0.08 0.07 0.07 0.08 0.07 0.03 0.01 0.02 0.03 0.06 0.10 0.13 0.09 0.08 0.06 0.06 0.08 0.12 0.14 0.18 0.23 0.26 0.29 0.33 0.35 0.32 0.21 0.11 0.06 0.04 0.05 0.03 0.01
0.14 0.16 0.18 0.20 0.19 0.15 0.12 0.10 0.09 0.08 0.06 0.02 0.02 0.02 0.06 0.10 0.15 0.11 0.10 0.08 0.06 0.06 0.09 0.13 0.16 0.24 0.31 0.34 0.34 0.34 0.30 0.25 0.18 0.11 0.08 0.06 0.03 0.02
0.19 0.25 0.28 0.29 0.30 0.27 0.22 0.16 0.12 0.10 0.08 0.04 0.02 0.02 0.06 0.10 0.13 0.13 0.13 0.09 0.05 0.05 0.07 0.10 0.15 0.21 0.30 0.37 0.38 0.36 0.34 0.28 0.20 0.14 0.10 0.05 0.02 0.01
0.30 0.30 0.31 0.33 0.34 0.33 0.30 0.23 0.15 0.11 0.10 0.07 0.03 0.02 0.04 0.09 0.13 0.14 0.14 0.10 0.06 0.05 0.06 0.08 0.12 0.17 0.25 0.32 0.35 0.35 0.36 0.34 0.26 0.16 0.08 0.03 0.01 0.00
0.52 0.49 0.43 0.36 0.34 0.34 0.34 0.30 0.22 0.15 0.12 0.10 0.06 0.03 0.04 0.10 0.15 0.17 0.16 0.13 0.09 0.07 0.06 0.07 0.09 0.13 0.18 0.23 0.26 0.28 0.30 0.29 0.24 0.17 0.09 0.03 0.01 0.00
0.59 0.62 0.60 0.54 0.45 0.40 0.37 0.37 0.33 0.25 0.18 0.14 0.12 0.08 0.06 0.11 0.19 0.20 0.17 0.14 0.11 0.08 0.07 0.05 0.06 0.08 0.11 0.12 0.13 0.16 0.20 0.22 0.21 0.15 0.08 0.03 0.01 0.00
0.40 0.45 0.52 0.60 0.63 0.56 0.49 0.42 0.38 0.35 0.29 0.22 0.17 0.13 0.11 0.14 0.22 0.24 0.22 0.19 0.15 0.10 0.07 0.04 0.03 0.03 0.05 0.08 0.11 0.12 0.13 0.13 0.11 0.08 0.05 0.02 0.01 0.00
0.24 0.27 0.31 0.41 0.49 0.55 0.57 0.50 0.45 0.43 0.41 0.36 0.28 0.20 0.16 0.17 0.24 0.30 0.28 0.26 0.21 0.13 0.09 0.08 0.05 0.04 0.04 0.04 0.07 0.08 0.08 0.07 0.06 0.04 0.03 0.02 0.01 0.00
0.11 0.14 0.16 0.22 0.27 0.30 0.36 0.38 0.42 0.48 0.53 0.52 0.48 0.38 0.25 0.20 0.25 0.32 0.31 0.26 0.24 0.21 0.17 0.18 0.16 0.12 0.07 0.06 0.07 0.06 0.05 0.05 0.05 0.04 0.03 0.03 0.02 0.02
0.07 0.07 0.06 0.10 0.16 0.19 0.21 0.26 0.32 0.42 0.55 0.62 0.65 0.60 0.46 0.34 0.30 0.39 0.43 0.33 0.29 0.31 0.28 0.32 0.29 0.22 0.15 0.10 0.08 0.05 0.04 0.03 0.03 0.04 0.04 0.03 0.02 0.02
0.09 0.10 0.05 0.03 0.07 0.06 0.09 0.14 0.18 0.29 0.41 0.51 0.54 0.54 0.53 0.51 0.48 0.49 0.54 0.44 0.41 0.44 0.40 0.42 0.43 0.34 0.25 0.18 0.13 0.07 0.04 0.02 0.02 0.02 0.02 0.01 0.01 0.01
0.07 0.08 0.10 0.05 0.04 0.02 0.03 0.05 0.08 0.15 0.20 0.24 0.29 0.33 0.37 0.43 0.51 0.58 0.66 0.57 0.52 0.53 0.45 0.37 0.44 0.44 0.40 0.29 0.15 0.07 0.04 0.02 0.01 0.01 0.00 0.00 0.00 0.00
0.07 0.09 0.10 0.06 0.03 0.01 0.01 0.01 0.03 0.04 0.06 0.10 0.15 0.22 0.30 0.37 0.47 0.59 0.66 0.61 0.53 0.49 0.42 0.31 0.32 0.32 0.32 0.29 0.18 0.08 0.03 0.02 0.01 0.01 0.00 0.00 0.00 0.00
0.07 0.08 0.08 0.03 0.02 0.01 0.00 0.00 0.00 0.00 0.01 0.03 0.06 0.11 0.19 0.28 0.38 0.50 0.60 0.60 0.53 0.47 0.36 0.24 0.22 0.21 0.17 0.16 0.14 0.08 0.04 0.02 0.01 0.01 0.00 0.00 0.00 0.00
0.16 0.12 0.03 0.00 0.00 0.00 0.00 0.00 0.00 0.00 0.00 0.00 0.02 0.04 0.08 0.15 0.21 0.27 0.37 0.43 0.38 0.31 0.27 0.24 0.20 0.17 0.14 0.11 0.08 0.05 0.04 0.03 0.02 0.01 0.01 0.00 0.00 0.00
0.11 0.09 0.02 0.00 0.00 0.00 0.00 0.00 0.00 0.00 0.00 0.00 0.00 0.01 0.02 0.05 0.09 0.13 0.17 0.22 0.22 0.19 0.16 0.16 0.16 0.14 0.12 0.10 0.07 0.06 0.03 0.02 0.01 0.01 0.01 0.01 0.00 0.00
0.06 0.02 0.00 0.00 0.00 0.00 0.00 0.00 0.00 0.00 0.00 0.00 0.00 0.00 0.01 0.01 0.03 0.05 0.07 0.10 0.10 0.10 0.09 0.09 0.08 0.07 0.07 0.06 0.06 0.05 0.03 0.01 0.01 0.00 0.00 0.00 0.00 0.00
0.04 0.01 0.00 0.00 0.00 0.00 0.00 0.00 0.00 0.00 0.00 0.00 0.00 0.00 0.00 0.00 0.01 0.01 0.02 0.03 0.04 0.04 0.04 0.04 0.04 0.04 0.03 0.03 0.02 0.01 0.01 0.00 0.00 0.00 0.00 0.00 0.00 0.00
0.00 0.00 0.00 0.00 0.00 0.00 0.00 0.00 0.00 0.00 0.00 0.00 0.00 0.00 0.00 0.00 0.00 0.00 0.00 0.00 0.01 0.01 0.01 0.01 0.01 0.01 0.01 0.01 0.01 0.00 0.00 0.00 0.00 0.00 0.00 0.00 0.00 0.00
0.00 0.00 0.00 0.00 0.00 0.00 0.00 0.00 0.00 0.00 0.00 0.00 0.00 0.00 0.00 0.00 0.00 0.00 0.00 0.00 0.00 0.00 0.00 0.00 0.00 0.00 0.01 0.01 0.00 0.00 0.00 0.00 0.00 0.00 0.00 0.00 0.00 0.00
0.00 0.00 0.00 0.00 0.00 0.00 0.00 0.00 0.00 0.00 0.00 0.00 0.00 0.00 0.00 0.00 0.00 0.00 0.00 0.00 0.00 0.00 0.00 0.00 0.00 0.00 0.00 0.00 0.00 0.00 0.00 0.00 0.00 0.00 0.00 0.00 0.00 0.00
0.00 0.00 0.00 0.00 0.00 0.00 0.00 0.00 0.00 0.00 0.00 0.00 0.00 0.00 0.00 0.00 0.00 0.00 0.00 0.00 0.00 0.00 0.00 0.00 0.00 0.00 0.00 0.00 0.00 0.00 0.00 0.00 0.00 0.00 0.00 0.00 0.01 0.01
0.00 0.00 0.00 0.00 0.00 0.00 0.00 0.00 0.00 0.00 0.00 0.00 0.00 0.00 0.00 0.00 0.00 0.00 0.00 0.00 0.00 0.00 0.00 0.00 0.00 0.00 0.00 0.00 0.00 0.00 0.00 0.00 0.00 0.00 0.00 0.00 0.00 0.00

GEFSNE_prec_meanprecacc_024.txt.gz
Total_Precipitation_Accumulation
0.13 0.13 0.14 0.13 0.12 0.11 0.11 0.12 0.13 0.09 0.04 0.02 0.04 0.06 0.09 0.14 0.17 0.15 0.14 0.13 0.13 0.15 0.18 0.19 0.23 0.29 0.37 0.50 0.71 0.90 0.92 0.66 0.33 0.14 0.06 0.07 0.05 0.03
0.16 0.18 0.20 0.22 0.21 0.19 0.17 0.15 0.14 0.12 0.07 0.03 0.03 0.07 0.12 0.15 0.20 0.16 0.16 0.16 0.13 0.12 0.13 0.17 0.20 0.28 0.37 0.44 0.51 0.63 0.77 0.88 0.69 0.41 0.23 0.17 0.11 0.06
0.20 0.26 0.30 0.32 0.35 0.33 0.29 0.24 0.19 0.16 0.11 0.04 0.02 0.05 0.13 0.18 0.19 0.18 0.19 0.15 0.11 0.10 0.10 0.13 0.17 0.23 0.34 0.42 0.47 0.51 0.62 0.73 0.80 0.65 0.46 0.31 0.19 0.10
0.32 0.33 0.34 0.38 0.41 0.41 0.41 0.36 0.26 0.19 0.14 0.09 0.04 0.04 0.09 0.19 0.23 0.21 0.20 0.16 0.11 0.09 0.08 0.09 0.12 0.18 0.27 0.36 0.42 0.46 0.53 0.61 0.69 0.67 0.53 0.36 0.23 0.15
0.56 0.54 0.49 0.45 0.44 0.44 0.46 0.43 0.35 0.26 0.19 0.14 0.08 0.05 0.07 0.16 0.25 0.26 0.23 0.18 0.13 0.10 0.08 0.07 0.09 0.13 0.19 0.25 0.32 0.37 0.40 0.44 0.51 0.63 0.63 0.46 0.26 0.17
0.63 0.67 0.67 0.67 0.60 0.53 0.49 0.46 0.43 0.35 0.26 0.20 0.14 0.09 0.09 0.15 0.27 0.29 0.24 0.19 0.15 0.11 0.09 0.06 0.06 0.08 0.11 0.13 0.15 0.22 0.32 0.43 0.51 0.57 0.59 0.49 0.33 0.23
0.42 0.49 0.59 0.71 0.73 0.69 0.63 0.52 0.46 0.42 0.36 0.28 0.22 0.17 0.14 0.18 0.27 0.32 0.31 0.26 0.20 0.15 0.11 0.05 0.04 0.03 0.06 0.10 0.14 0.18 0.24 0.29 0.34 0.40 0.43 0.42 0.35 0.28
0.27 0.30 0.34 0.48 0.54 0.60 0.66 0.59 0.54 0.52 0.50 0.45 0.34 0.26 0.20 0.21 0.27 0.35 0.36 0.33 0.27 0.18 0.14 0.11 0.07 0.06 0.05 0.06 0.11 0.13 0.15 0.19 0.22 0.24 0.26 0.28 0.28 0.25
0.16 0.17 0.18 0.27 0.31 0.33 0.41 0.43 0.48 0.55 0.62 0.63 0.59 0.47 0.32 0.24 0.27 0.35 0.37 0.33 0.28 0.26 0.23 0.24 0.21 0.15 0.10 0.10 0.13 0.13 0.12 0.13 0.15 0.17 0.17 0.18 0.18 0.17
0.12 0.10 0.07 0.13 0.20 0.21 0.24 0.30 0.37 0.49 0.65 0.73 0.77 0.71 0.54 0.38 0.32 0.41 0.46 0.38 0.35 0.39 0.37 0.42 0.42 0.30 0.22 0.19 0.18 0.14 0.12 0.11 0.11 0.12 0.13 0.12 0.10 0.10
0.11 0.13 0.07 0.04 0.10 0.07 0.10 0.16 0.21 0.33 0.46 0.59 0.63 0.62 0.58 0.55 0.50 0.50 0.57 0.51 0.53 0.60 0.54 0.54 0.61 0.52 0.42 0.37 0.32 0.23 0.16 0.12 0.10 0.09 0.08 0.08 0.07 0.06
0.07 0.09 0.12 0.07 0.06 0.03 0.03 0.06 0.10 0.17 0.23 0.29 0.35 0.39 0.43 0.47 0.54 0.61 0.70 0.68 0.68 0.76 0.66 0.53 0.63 0.63 0.67 0.60 0.41 0.26 0.19 0.17 0.13 0.09 0.07 0.05 0.04 0.04
0.07 0.09 0.10 0.07 0.04 0.02 0.01 0.02 0.05 0.05 0.08 0.15 0.21 0.28 0.36 0.43 0.53 0.66 0.74 0.75 0.72 0.73 0.64 0.49 0.52 0.48 0.51 0.60 0.50 0.33 0.19 0.14 0.12 0.10 0.07 0.05 0.03 0.02
0.07 0.08 0.08 0.04 0.02 0.01 0.01 0.01 0.01 0.01 0.02 0.05 0.09 0.16 0.27 0.39 0.50 0.63 0.75 0.79 0.78 0.73 0.59 0.40 0.37 0.33 0.27 0.31 0.39 0.35 0.23 0.14 0.09 0.07 0.05 0.05 0.04 0.03
0.16 0.12 0.04 0.00 0.00 0.00 0.00 0.00 0.00 0.00 0.01 0.02 0.05 0.10 0.19 0.31 0.37 0.45 0.57 0.68 0.69 0.67 0.59 0.48 0.37 0.30 0.24 0.20 0.19 0.21 0.20 0.17 0.12 0.08 0.06 0.04 0.03 0.02
0.11 0.09 0.02 0.00 0.00 0.00 0.00 0.00 0.00 0.00 0.00 0.01 0.02 0.05 0.10 0.17 0.25 0.34 0.42 0.53 0.59 0.65 0.65 0.60 0.50 0.39 0.33 0.25 0.17 0.15 0.13 0.13 0.11 0.08 0.06 0.05 0.03 0.02
0.06 0.02 0.00 0.00 0.00 0.00 0.00 0.00 0.00 0.00 0.00 0.00 0.01 0.02 0.05 0.10 0.17 0.25 0.34 0.42 0.49 0.56 0.64 0.68 0.59 0.47 0.41 0.35 0.28 0.19 0.13 0.09 0.07 0.05 0.05 0.04 0.03 0.01
0.04 0.01 0.00 0.00 0.00 0.00 0.00 0.00 0.00 0.00 0.00 0.00 0.00 0.01 0.03 0.06 0.11 0.17 0.25 0.33 0.39 0.43 0.47 0.55 0.55 0.47 0.44 0.46 0.36 0.23 0.14 0.10 0.08 0.06 0.04 0.03 0.02 0.01
0.00 0.00 0.00 0.00 0.00 0.00 0.00 0.00 0.00 0.00 0.00 0.00 0.00 0.00 0.01 0.03 0.06 0.11 0.16 0.22 0.29 0.33 0.36 0.38 0.40 0.37 0.31 0.34 0.38 0.24 0.14 0.10 0.08 0.06 0.04 0.02 0.02 0.01
0.00 0.00 0.00 0.00 0.00 0.00 0.00 0.00 0.00 0.00 0.00 0.00 0.00 0.00 0.00 0.01 0.03 0.06 0.09 0.13 0.19 0.23 0.26 0.28 0.31 0.30 0.21 0.12 0.12 0.16 0.13 0.08 0.05 0.04 0.03 0.02 0.01 0.00
0.00 0.00 0.00 0.00 0.00 0.00 0.00 0.00 0.00 0.00 0.00 0.00 0.00 0.00 0.00 0.00 0.01 0.02 0.04 0.06 0.09 0.13 0.16 0.19 0.21 0.21 0.16 0.09 0.05 0.05 0.05 0.05 0.04 0.02 0.02 0.01 0.01 0.00
0.00 0.00 0.00 0.00 0.00 0.00 0.00 0.00 0.00 0.00 0.00 0.00 0.00 0.00 0.00 0.00 0.00 0.01 0.01 0.02 0.04 0.06 0.08 0.09 0.10 0.11 0.11 0.10 0.07 0.04 0.02 0.01 0.01 0.01 0.01 0.00 0.01 0.01
0.00 0.00 0.00 0.00 0.00 0.00 0.00 0.00 0.00 0.00 0.00 0.00 0.00 0.00 0.00 0.00 0.00 0.00 0.00 0.01 0.01 0.02 0.03 0.03 0.03 0.03 0.04 0.04 0.04 0.03 0.01 0.01 0.01 0.00 0.00 0.00 0.00 0.00

GEFSNE_prec_meanprecacc_030.txt.gz
Total_Precipitation_Accumulation
0.15 0.15 0.16 0.15 0.13 0.13 0.14 0.17 0.20 0.14 0.05 0.02 0.04 0.06 0.09 0.15 0.19 0.19 0.19 0.20 0.20 0.21 0.22 0.21 0.24 0.31 0.48 0.85 1.31 1.77 1.72 1.11 0.56 0.27 0.14 0.12 0.09 0.05
0.19 0.21 0.23 0.25 0.24 0.21 0.19 0.18 0.19 0.20 0.12 0.03 0.04 0.07 0.13 0.16 0.21 0.18 0.20 0.22 0.19 0.18 0.18 0.20 0.22 0.29 0.40 0.57 0.87 1.22 1.57 1.56 1.13 0.67 0.39 0.26 0.15 0.08
0.24 0.31 0.35 0.37 0.40 0.37 0.33 0.28 0.23 0.21 0.17 0.05 0.02 0.05 0.14 0.19 0.21 0.20 0.22 0.20 0.17 0.17 0.16 0.17 0.20 0.25 0.35 0.46 0.62 0.86 1.17 1.43 1.47 1.16 0.83 0.55 0.31 0.14
0.37 0.38 0.40 0.43 0.47 0.47 0.47 0.42 0.31 0.23 0.19 0.12 0.05 0.04 0.09 0.19 0.25 0.24 0.23 0.21 0.17 0.16 0.16 0.16 0.17 0.21 0.29 0.38 0.47 0.61 0.86 1.13 1.37 1.39 1.18 0.83 0.53 0.33
0.62 0.61 0.56 0.51 0.51 0.52 0.54 0.50 0.40 0.30 0.23 0.17 0.09 0.05 0.08 0.17 0.28 0.32 0.29 0.24 0.20 0.19 0.17 0.16 0.16 0.18 0.22 0.27 0.34 0.42 0.54 0.71 0.94 1.28 1.37 1.14 0.78 0.55
0.68 0.73 0.74 0.74 0.68 0.61 0.57 0.52 0.47 0.38 0.29 0.22 0.16 0.10 0.09 0.17 0.30 0.37 0.34 0.28 0.25 0.21 0.20 0.18 0.17 0.16 0.16 0.15 0.17 0.24 0.38 0.59 0.78 1.02 1.26 1.24 0.98 0.75
0.46 0.52 0.63 0.76 0.77 0.75 0.72 0.60 0.51 0.47 0.40 0.31 0.24 0.19 0.16 0.20 0.31 0.39 0.43 0.40 0.33 0.28 0.24 0.18 0.15 0.11 0.11 0.13 0.16 0.20 0.27 0.36 0.51 0.69 0.88 1.03 1.00 0.87
0.29 0.31 0.35 0.50 0.57 0.62 0.70 0.65 0.61 0.60 0.58 0.49 0.38 0.29 0.23 0.25 0.32 0.43 0.49 0.51 0.44 0.33 0.31 0.27 0.20 0.14 0.10 0.08 0.12 0.14 0.17 0.23 0.32 0.45 0.58 0.72 0.82 0.84
0.16 0.17 0.19 0.29 0.35 0.34 0.42 0.45 0.51 0.60 0.69 0.69 0.64 0.52 0.36 0.28 0.32 0.41 0.47 0.51 0.50 0.46 0.43 0.45 0.39 0.26 0.16 0.13 0.15 0.14 0.14 0.16 0.21 0.29 0.39 0.49 0.58 0.65
0.12 0.11 0.08 0.14 0.24 0.23 0.24 0.31 0.39 0.51 0.70 0.79 0.83 0.77 0.59 0.42 0.36 0.46 0.54 0.52 0.55 0.63 0.63 0.66 0.63 0.44 0.29 0.22 0.20 0.16 0.14 0.13 0.16 0.20 0.27 0.34 0.41 0.46
0.11 0.13 0.07 0.05 0.13 0.10 0.10 0.17 0.22 0.34 0.47 0.62 0.67 0.65 0.61 0.58 0.53 0.53 0.62 0.61 0.69 0.84 0.82 0.80 0.84 0.68 0.50 0.41 0.34 0.24 0.18 0.15 0.15 0.18 0.21 0.23 0.28 0.34
0.07 0.09 0.12 0.09 0.08 0.05 0.03 0.06 0.12 0.18 0.24 0.30 0.36 0.40 0.45 0.49 0.56 0.65 0.76 0.76 0.81 0.97 0.92 0.81 0.89 0.81 0.77 0.68 0.46 0.29 0.22 0.23 0.21 0.19 0.19 0.17 0.17 0.17
0.07 0.09 0.10 0.08 0.04 0.03 0.02 0.03 0.07 0.06 0.09 0.15 0.22 0.29 0.37 0.45 0.56 0.69 0.79 0.82 0.83 0.90 0.87 0.75 0.82 0.68 0.61 0.69 0.61 0.42 0.26 0.23 0.24 0.25 0.23 0.18 0.12 0.07
0.07 0.08 0.08 0.04 0.02 0.01 0.01 0.01 0.01 0.01 0.02 0.05 0.10 0.17 0.28 0.41 0.54 0.67 0.79 0.85 0.85 0.85 0.77 0.62 0.66 0.57 0.37 0.36 0.50 0.54 0.37 0.25 0.20 0.20 0.21 0.24 0.17 0.11
0.16 0.12 0.04 0.01 0.00 0.00 0.00 0.00 0.00 0.00 0.01 0.02 0.06 0.12 0.22 0.35 0.41 0.50 0.62 0.73 0.75 0.75 0.74 0.66 0.60 0.57 0.38 0.24 0.24 0.34 0.38 0.35 0.23 0.18 0.17 0.15 0.11 0.08
0.11 0.09 0.02 0.00 0.00 0.00 0.00 0.00 0.00 0.00 0.00 0.01 0.04 0.07 0.13 0.20 0.29 0.39 0.49 0.60 0.66 0.73 0.79 0.80 0.75 0.70 0.57 0.35 0.21 0.20 0.23 0.30 0.29 0.18 0.15 0.14 0.10 0.07
0.06 0.02 0.00 0.00 0.00 0.00 0.00 0.00 0.00 0.00 0.00 0.00 0.01 0.04 0.08 0.14 0.22 0.32 0.43 0.52 0.59 0.68 0.81 0.95 0.93 0.83 0.76 0.57 0.38 0.25 0.18 0.17 0.20 0.17 0.13 0.13 0.11 0.08
0.04 0.01 0.00 0.00 0.00 0.00 0.00 0.00 0.00 0.00 0.00 0.00 0.01 0.02 0.06 0.11 0.18 0.25 0.35 0.46 0.54 0.60 0.67 0.82 0.87 0.82 0.83 0.86 0.64 0.35 0.20 0.16 0.18 0.17 0.14 0.12 0.12 0.09
0.00 0.00 0.00 0.00 0.00 0.00 0.00 0.00 0.00 0.00 0.00 0.00 0.00 0.01 0.04 0.08 0.13 0.18 0.26 0.36 0.47 0.54 0.59 0.64 0.68 0.66 0.67 0.81 0.90 0.57 0.28 0.19 0.17 0.19 0.17 0.13 0.11 0.09
0.00 0.00 0.00 0.00 0.00 0.00 0.00 0.00 0.00 0.00 0.00 0.00 0.00 0.01 0.02 0.04 0.09 0.13 0.19 0.28 0.37 0.45 0.50 0.56 0.62 0.62 0.52 0.45 0.55 0.65 0.46 0.23 0.14 0.15 0.18 0.18 0.16 0.10
0.00 0.00 0.00 0.00 0.00 0.00 0.00 0.00 0.00 0.00 0.00 0.00 0.00 0.00 0.01 0.02 0.05 0.09 0.14 0.19 0.27 0.34 0.39 0.46 0.54 0.54 0.48 0.35 0.30 0.41 0.48 0.36 0.19 0.12 0.12 0.13 0.13 0.11
0.01 0.01 0.00 0.00 0.00 0.00 0.00 0.00 0.00 0.00 0.00 0.00 0.00 0.00 0.00 0.01 0.03 0.06 0.09 0.13 0.19 0.26 0.31 0.36 0.40 0.45 0.49 0.45 0.40 0.35 0.36 0.39 0.33 0.20 0.10 0.05 0.05 0.05
0.03 0.02 0.01 0.01 0.00 0.00 0.00 0.00 0.00 0.00 0.00 0.00 0.00 0.00 0.00 0.00 0.01 0.03 0.06 0.09 0.13 0.18 0.23 0.28 0.32 0.36 0.43 0.46 0.42 0.33 0.27 0.25 0.23 0.18 0.14 0.09 0.04 0.03

GEFSNE_prec_meanprecacc_036.txt.gz
Total_Precipitation_Accumulation
0.21 0.22 0.24 0.20 0.18 0.18 0.18 0.23 0.28 0.19 0.06 0.02 0.04 0.06 0.10 0.15 0.19 0.19 0.20 0.21 0.22 0.24 0.26 0.25 0.27 0.38 0.64 1.18 2.02 2.87 2.87 1.95 1.07 0.60 0.41 0.43 0.43 0.40
0.26 0.29 0.30 0.31 0.29 0.26 0.25 0.25 0.27 0.27 0.16 0.03 0.04 0.07 0.13 0.16 0.21 0.19 0.21 0.23 0.21 0.21 0.23 0.24 0.25 0.32 0.48 0.73 1.24 1.99 2.68 2.68 1.93 1.19 0.77 0.60 0.49 0.44
0.31 0.37 0.41 0.43 0.45 0.42 0.38 0.33 0.29 0.28 0.22 0.06 0.03 0.05 0.14 0.19 0.21 0.20 0.23 0.22 0.19 0.19 0.21 0.22 0.23 0.28 0.40 0.57 0.82 1.30 1.96 2.47 2.43 1.88 1.38 1.00 0.71 0.50
0.40 0.42 0.44 0.47 0.52 0.53 0.53 0.46 0.36 0.28 0.25 0.14 0.05 0.04 0.10 0.20 0.25 0.25 0.24 0.22 0.19 0.19 0.20 0.21 0.21 0.25 0.32 0.45 0.61 0.87 1.36 1.86 2.18 2.10 1.78 1.35 0.98 0.73
0.64 0.63 0.59 0.54 0.55 0.56 0.58 0.54 0.44 0.33 0.27 0.20 0.11 0.07 0.09 0.18 0.30 0.33 0.30 0.26 0.22 0.21 0.21 0.22 0.21 0.23 0.27 0.33 0.45 0.61 0.84 1.18 1.51 1.85 1.88 1.65 1.26 1.00
0.69 0.74 0.75 0.77 0.73 0.66 0.61 0.56 0.50 0.41 0.32 0.25 0.19 0.13 0.12 0.18 0.32 0.39 0.36 0.30 0.27 0.24 0.24 0.22 0.23 0.23 0.23 0.22 0.23 0.35 0.56 0.89 1.21 1.52 1.72 1.67 1.43 1.20
0.46 0.52 0.63 0.77 0.81 0.80 0.77 0.66 0.56 0.51 0.44 0.35 0.29 0.23 0.19 0.23 0.34 0.42 0.46 0.42 0.36 0.32 0.29 0.23 0.22 0.19 0.19 0.21 0.24 0.29 0.40 0.56 0.80 1.09 1.34 1.47 1.41 1.26
0.29 0.31 0.35 0.50 0.60 0.65 0.72 0.69 0.67 0.69 0.67 0.56 0.43 0.35 0.28 0.29 0.35 0.45 0.52 0.55 0.49 0.37 0.36 0.34 0.29 0.26 0.22 0.19 0.20 0.21 0.26 0.38 0.52 0.74 0.97 1.16 1.24 1.23
0.16 0.17 0.19 0.29 0.38 0.39 0.43 0.47 0.54 0.66 0.78 0.78 0.71 0.58 0.42 0.32 0.36 0.43 0.50 0.56 0.55 0.52 0.49 0.54 0.50 0.41 0.32 0.28 0.26 0.22 0.21 0.26 0.36 0.49 0.68 0.92 1.06 1.12
0.12 0.11 0.08 0.14 0.27 0.28 0.25 0.32 0.41 0.55 0.76 0.87 0.92 0.84 0.65 0.46 0.40 0.48 0.57 0.56 0.61 0.69 0.68 0.74 0.76 0.61 0.50 0.41 0.33 0.24 0.21 0.21 0.27 0.36 0.49 0.69 0.92 1.02
0.11 0.13 0.08 0.06 0.16 0.13 0.10 0.17 0.23 0.36 0.50 0.67 0.72 0.70 0.64 0.61 0.56 0.55 0.65 0.64 0.76 0.92 0.88 0.88 0.98 0.87 0.75 0.66 0.52 0.35 0.25 0.23 0.25 0.31 0.38 0.49 0.70 0.94
0.07 0.09 0.12 0.10 0.10 0.07 0.04 0.07 0.14 0.20 0.25 0.32 0.38 0.42 0.46 0.51 0.58 0.68 0.79 0.79 0.87 1.07 1.02 0.89 1.05 1.03 1.07 0.98 0.69 0.43 0.32 0.32 0.31 0.31 0.34 0.39 0.52 0.71
0.07 0.09 0.11 0.09 0.05 0.04 0.03 0.04 0.10 0.08 0.10 0.17 0.23 0.29 0.37 0.46 0.57 0.71 0.82 0.85 0.88 0.99 0.98 0.85 0.99 0.91 0.90 1.03 0.90 0.63 0.36 0.31 0.34 0.40 0.41 0.41 0.42 0.46
0.07 0.08 0.09 0.05 0.02 0.01 0.01 0.02 0.01 0.01 0.03 0.06 0.11 0.18 0.29 0.42 0.55 0.69 0.81 0.87 0.89 0.91 0.87 0.73 0.82 0.79 0.62 0.66 0.80 0.79 0.54 0.36 0.30 0.33 0.39 0.51 0.51 0.44
0.16 0.13 0.04 0.01 0.00 0.00 0.00 0.00 0.00 0.00 0.01 0.03 0.06 0.12 0.23 0.35 0.42 0.51 0.63 0.74 0.77 0.80 0.82 0.75 0.73 0.77 0.62 0.51 0.52 0.58 0.59 0.52 0.36 0.31 0.35 0.40 0.40 0.36
0.11 0.09 0.02 0.00 0.00 0.00 0.00 0.00 0.00 0.00 0.01 0.02 0.04 0.07 0.13 0.20 0.30 0.40 0.50 0.61 0.67 0.76 0.84 0.87 0.85 0.88 0.82 0.62 0.46 0.42 0.39 0.49 0.44 0.30 0.31 0.37 0.35 0.26
0.07 0.02 0.00 0.00 0.00 0.00 0.00 0.00 0.00 0.00 0.00 0.01 0.02 0.04 0.08 0.14 0.23 0.33 0.45 0.53 0.61 0.70 0.85 1.01 1.02 0.99 1.03 0.91 0.70 0.49 0.34 0.31 0.33 0.27 0.25 0.33 0.38 0.30
0.04 0.01 0.00 0.00 0.00 0.00 0.00 0.00 0.00 0.00 0.00 0.00 0.01 0.03 0.06 0.12 0.18 0.25 0.36 0.48 0.57 0.64 0.71 0.88 0.96 0.96 1.11 1.24 1.03 0.63 0.37 0.29 0.30 0.26 0.21 0.24 0.35 0.34
0.01 0.00 0.00 0.00 0.00 0.00 0.00 0.00 0.00 0.00 0.00 0.00 0.01 0.02 0.04 0.08 0.13 0.19 0.28 0.38 0.50 0.59 0.65 0.70 0.76 0.79 0.91 1.18 1.33 0.90 0.46 0.31 0.30 0.32 0.28 0.23 0.26 0.32
0.01 0.01 0.01 0.01 0.00 0.00 0.00 0.00 0.00 0.00 0.00 0.00 0.00 0.01 0.02 0.05 0.09 0.14 0.21 0.31 0.41 0.51 0.57 0.63 0.71 0.75 0.71 0.72 0.87 1.00 0.73 0.37 0.25 0.30 0.35 0.33 0.30 0.30
0.01 0.02 0.02 0.01 0.01 0.00 0.00 0.00 0.00 0.00 0.00 0.00 0.00 0.00 0.01 0.03 0.06 0.10 0.15 0.22 0.31 0.40 0.47 0.56 0.67 0.68 0.66 0.57 0.54 0.71 0.80 0.62 0.31 0.22 0.24 0.27 0.28 0.26
0.02 0.03 0.03 0.02 0.01 0.01 0.00 0.00 0.00 0.00 0.00 0.00 0.00 0.00 0.01 0.02 0.04 0.07 0.11 0.15 0.24 0.33 0.40 0.49 0.56 0.62 0.70 0.71 0.66 0.61 0.67 0.74 0.62 0.37 0.21 0.14 0.13 0.13
0.05 0.04 0.04 0.03 0.02 0.01 0.01 0.00 0.00 0.00 0.00 0.00 0.00 0.00 0.00 0.01 0.02 0.04 0.07 0.11 0.16 0.24 0.32 0.41 0.50 0.56 0.69 0.77 0.72 0.58 0.51 0.53 0.53 0.44 0.39 0.28 0.16 0.10

GEFSNE_prec_meanprecacc_042.txt.gz
Total_Precipitation_Accumulation
0.23 0.25 0.28 0.25 0.25 0.26 0.28 0.35 0.42 0.27 0.08 0.02 0.04 0.06 0.10 0.15 0.20 0.19 0.20 0.21 0.23 0.24 0.26 0.25 0.28 0.39 0.66 1.22 2.10 3.02 3.12 2.35 1.47 0.88 0.65 0.70 0.75 0.75
0.28 0.31 0.33 0.35 0.35 0.32 0.32 0.33 0.36 0.37 0.21 0.04 0.04 0.08 0.13 0.16 0.21 0.19 0.21 0.24 0.21 0.21 0.23 0.24 0.26 0.34 0.50 0.76 1.28 2.10 2.87 2.99 2.37 1.58 1.05 0.85 0.77 0.73
0.31 0.38 0.42 0.45 0.48 0.46 0.43 0.38 0.35 0.35 0.29 0.08 0.03 0.05 0.14 0.19 0.21 0.21 0.23 0.22 0.19 0.20 0.21 0.22 0.24 0.29 0.41 0.59 0.86 1.37 2.10 2.72 2.83 2.35 1.78 1.31 0.98 0.75
0.40 0.42 0.44 0.48 0.53 0.55 0.56 0.50 0.39 0.32 0.29 0.17 0.06 0.05 0.10 0.20 0.26 0.25 0.24 0.22 0.20 0.19 0.21 0.22 0.23 0.26 0.34 0.46 0.64 0.92 1.46 2.05 2.54 2.61 2.26 1.73 1.29 0.99
0.64 0.63 0.59 0.54 0.56 0.57 0.61 0.57 0.47 0.36 0.29 0.23 0.12 0.08 0.10 0.20 0.31 0.34 0.30 0.27 0.23 0.22 0.22 0.23 0.23 0.25 0.29 0.35 0.48 0.66 0.92 1.32 1.77 2.32 2.48 2.15 1.65 1.32
0.69 0.74 0.76 0.78 0.74 0.68 0.64 0.59 0.53 0.43 0.34 0.27 0.21 0.15 0.13 0.19 0.33 0.40 0.37 0.31 0.28 0.25 0.25 0.24 0.25 0.25 0.25 0.23 0.26 0.40 0.63 0.99 1.40 1.85 2.28 2.33 1.95 1.59
0.47 0.53 0.63 0.78 0.83 0.83 0.81 0.70 0.60 0.55 0.47 0.38 0.31 0.24 0.20 0.25 0.36 0.44 0.48 0.43 0.37 0.34 0.31 0.25 0.24 0.22 0.21 0.23 0.27 0.34 0.47 0.64 0.91 1.31 1.73 2.05 2.04 1.76
0.32 0.33 0.36 0.51 0.60 0.67 0.76 0.73 0.71 0.74 0.72 0.61 0.46 0.37 0.30 0.31 0.37 0.47 0.55 0.58 0.51 0.40 0.39 0.37 0.33 0.30 0.24 0.21 0.23 0.26 0.32 0.45 0.60 0.86 1.20 1.56 1.78 1.82
0.18 0.18 0.19 0.29 0.38 0.42 0.47 0.48 0.54 0.68 0.83 0.85 0.76 0.61 0.45 0.35 0.39 0.46 0.54 0.60 0.58 0.54 0.52 0.59 0.56 0.46 0.36 0.32 0.32 0.27 0.28 0.33 0.43 0.58 0.81 1.14 1.43 1.62
0.13 0.11 0.09 0.15 0.28 0.33 0.28 0.32 0.42 0.56 0.79 0.92 0.98 0.89 0.69 0.50 0.44 0.52 0.60 0.59 0.63 0.71 0.71 0.80 0.83 0.68 0.57 0.47 0.39 0.31 0.28 0.29 0.35 0.43 0.58 0.81 1.11 1.35
0.12 0.13 0.08 0.07 0.18 0.17 0.12 0.18 0.24 0.37 0.53 0.71 0.77 0.75 0.69 0.65 0.61 0.60 0.69 0.69 0.82 0.99 0.95 0.95 1.08 0.98 0.85 0.75 0.59 0.43 0.34 0.31 0.32 0.38 0.45 0.58 0.82 1.16
0.08 0.09 0.13 0.11 0.12 0.09 0.05 0.08 0.16 0.23 0.27 0.34 0.40 0.44 0.48 0.53 0.61 0.72 0.85 0.85 0.98 1.19 1.12 0.98 1.17 1.17 1.22 1.12 0.80 0.51 0.40 0.41 0.39 0.39 0.42 0.48 0.63 0.87
0.08 0.10 0.11 0.10 0.07 0.05 0.04 0.05 0.13 0.12 0.12 0.19 0.26 0.32 0.40 0.48 0.60 0.74 0.87 0.92 0.99 1.13 1.10 0.95 1.12 1.07 1.08 1.22 1.07 0.74 0.45 0.39 0.41 0.47 0.51 0.51 0.54 0.59
0.08 0.08 0.09 0.06 0.03 0.02 0.01 0.03 0.03 0.02 0.05 0.09 0.14 0.21 0.32 0.45 0.58 0.72 0.85 0.92 0.97 1.05 1.00 0.85 0.98 0.97 0.81 0.85 1.00 0.97 0.68 0.46 0.37 0.39 0.46 0.62 0.67 0.61
0.17 0.13 0.04 0.01 0.00 0.00 0.00 0.00 0.00 0.01 0.03 0.06 0.10 0.16 0.26 0.39 0.45 0.54 0.66 0.78 0.84 0.93 0.96 0.87 0.89 0.96 0.81 0.72 0.74 0.79 0.77 0.67 0.45 0.37 0.42 0.49 0.55 0.55
0.11 0.09 0.02 0.00 0.00 0.00 0.00 0.00 0.00 0.01 0.02 0.05 0.08 0.11 0.15 0.23 0.33 0.44 0.55 0.66 0.74 0.87 0.97 1.00 1.00 1.06 1.00 0.84 0.70 0.64 0.59 0.66 0.57 0.39 0.39 0.47 0.49 0.41
0.07 0.02 0.00 0.00 0.00 0.00 0.00 0.00 0.00 0.00 0.01 0.02 0.04 0.06 0.10 0.16 0.26 0.36 0.49 0.58 0.68 0.81 0.97 1.14 1.16 1.16 1.23 1.15 0.97 0.75 0.55 0.49 0.48 0.37 0.35 0.47 0.57 0.49
0.04 0.01 0.00 0.00 0.00 0.00 0.00 0.00 0.00 0.00 0.01 0.01 0.03 0.05 0.09 0.15 0.21 0.28 0.40 0.53 0.64 0.72 0.82 1.01 1.10 1.12 1.30 1.49 1.36 0.95 0.64 0.52 0.50 0.41 0.32 0.38 0.57 0.58
0.01 0.01 0.01 0.01 0.01 0.00 0.00 0.00 0.00 0.00 0.00 0.01 0.02 0.04 0.06 0.10 0.16 0.22 0.31 0.42 0.55 0.66 0.74 0.81 0.89 0.95 1.09 1.40 1.65 1.27 0.80 0.59 0.54 0.55 0.47 0.37 0.43 0.56
0.01 0.02 0.02 0.02 0.01 0.01 0.01 0.00 0.00 0.00 0.00 0.00 0.01 0.02 0.04 0.07 0.11 0.17 0.24 0.35 0.46 0.56 0.65 0.72 0.82 0.90 0.89 0.92 1.12 1.34 1.15 0.72 0.52 0.56 0.59 0.53 0.51 0.62
0.02 0.02 0.03 0.03 0.02 0.01 0.01 0.00 0.00 0.00 0.00 0.00 0.00 0.01 0.02 0.04 0.08 0.12 0.17 0.25 0.35 0.45 0.52 0.64 0.77 0.81 0.83 0.74 0.74 0.97 1.16 1.07 0.68 0.48 0.46 0.46 0.49 0.52
0.03 0.03 0.03 0.03 0.03 0.02 0.01 0.01 0.00 0.00 0.00 0.00 0.00 0.00 0.01 0.02 0.05 0.08 0.12 0.18 0.27 0.37 0.45 0.55 0.63 0.73 0.84 0.87 0.85 0.83 0.95 1.11 1.06 0.77 0.51 0.34 0.27 0.31
0.05 0.05 0.05 0.05 0.04 0.03 0.02 0.01 0.01 0.00 0.00 0.00 0.00 0.00 0.00 0.01 0.03 0.05 0.08 0.12 0.18 0.27 0.36 0.47 0.57 0.66 0.84 0.94 0.92 0.78 0.71 0.80 0.87 0.81 0.81 0.65 0.39 0.25

GEFSNE_prec_meanprecacc_048.txt.gz
Total_Precipitation_Accumulation
0.23 0.25 0.28 0.25 0.25 0.26 0.29 0.38 0.49 0.34 0.09 0.02 0.04 0.06 0.10 0.15 0.20 0.20 0.21 0.22 0.24 0.26 0.28 0.28 0.30 0.41 0.68 1.23 2.12 3.03 3.14 2.37 1.49 0.94 0.78 0.99 1.20 1.31
0.28 0.31 0.33 0.35 0.35 0.32 0.32 0.33 0.39 0.43 0.25 0.04 0.04 0.08 0.13 0.16 0.22 0.19 0.22 0.24 0.22 0.23 0.24 0.26 0.27 0.35 0.51 0.77 1.29 2.11 2.88 3.01 2.39 1.62 1.13 1.04 1.15 1.26
0.31 0.38 0.42 0.45 0.49 0.46 0.44 0.39 0.35 0.38 0.34 0.09 0.03 0.05 0.14 0.19 0.21 0.21 0.23 0.22 0.19 0.20 0.22 0.23 0.25 0.30 0.42 0.60 0.87 1.38 2.11 2.73 2.85 2.38 1.85 1.45 1.27 1.19
0.41 0.43 0.45 0.49 0.54 0.56 0.57 0.50 0.40 0.34 0.33 0.19 0.06 0.05 0.10 0.21 0.26 0.25 0.24 0.22 0.20 0.20 0.22 0.23 0.23 0.27 0.35 0.47 0.65 0.93 1.47 2.06 2.56 2.63 2.30 1.83 1.48 1.37
0.67 0.66 0.61 0.57 0.58 0.58 0.61 0.57 0.48 0.38 0.32 0.25 0.14 0.08 0.10 0.20 0.31 0.34 0.31 0.27 0.23 0.22 0.23 0.23 0.24 0.26 0.30 0.36 0.49 0.67 0.92 1.33 1.78 2.34 2.52 2.24 1.82 1.59
0.72 0.77 0.78 0.80 0.75 0.69 0.66 0.61 0.55 0.47 0.37 0.31 0.22 0.15 0.13 0.19 0.33 0.41 0.37 0.31 0.28 0.25 0.25 0.24 0.25 0.26 0.25 0.24 0.27 0.41 0.64 1.00 1.41 1.87 2.31 2.39 2.09 1.80
0.51 0.55 0.65 0.80 0.86 0.87 0.86 0.75 0.66 0.62 0.52 0.41 0.33 0.25 0.21 0.25 0.36 0.44 0.48 0.43 0.37 0.34 0.31 0.26 0.24 0.22 0.21 0.24 0.28 0.35 0.48 0.65 0.93 1.33 1.76 2.10 2.14 1.95
0.34 0.34 0.37 0.52 0.62 0.69 0.78 0.77 0.77 0.80 0.77 0.65 0.50 0.39 0.31 0.31 0.37 0.48 0.56 0.59 0.52 0.40 0.39 0.37 0.33 0.30 0.25 0.22 0.24 0.27 0.33 0.47 0.62 0.88 1.23 1.60 1.85 1.96
0.19 0.19 0.20 0.29 0.39 0.43 0.49 0.52 0.57 0.69 0.86 0.90 0.81 0.63 0.46 0.36 0.41 0.48 0.55 0.61 0.59 0.54 0.53 0.59 0.56 0.46 0.37 0.33 0.33 0.28 0.29 0.34 0.45 0.60 0.84 1.18 1.49 1.72
0.14 0.12 0.09 0.15 0.28 0.36 0.37 0.37 0.43 0.57 0.81 0.96 1.03 0.93 0.73 0.55 0.50 0.57 0.63 0.61 0.64 0.72 0.72 0.81 0.84 0.69 0.57 0.47 0.40 0.32 0.30 0.30 0.37 0.46 0.61 0.86 1.18 1.44
0.12 0.13 0.08 0.07 0.20 0.24 0.17 0.20 0.25 0.38 0.54 0.73 0.81 0.79 0.73 0.70 0.67 0.68 0.73 0.71 0.83 1.00 0.98 0.98 1.09 1.00 0.86 0.76 0.60 0.45 0.35 0.33 0.34 0.41 0.48 0.63 0.89 1.26
0.08 0.09 0.13 0.13 0.17 0.14 0.08 0.09 0.18 0.27 0.29 0.35 0.41 0.45 0.49 0.54 0.63 0.76 0.88 0.88 1.00 1.22 1.16 1.02 1.20 1.21 1.25 1.14 0.82 0.53 0.42 0.44 0.42 0.43 0.46 0.53 0.71 0.98
0.09 0.10 0.11 0.13 0.11 0.08 0.05 0.06 0.17 0.16 0.14 0.21 0.28 0.33 0.41 0.49 0.61 0.76 0.90 0.96 1.03 1.18 1.15 1.01 1.18 1.14 1.14 1.26 1.10 0.78 0.48 0.43 0.45 0.52 0.56 0.57 0.62 0.68
0.09 0.09 0.10 0.08 0.05 0.03 0.02 0.04 0.04 0.04 0.06 0.12 0.17 0.23 0.34 0.47 0.60 0.74 0.87 0.95 1.02 1.10 1.07 0.93 1.08 1.07 0.91 0.93 1.06 1.03 0.74 0.52 0.43 0.44 0.52 0.69 0.77 0.72
0.17 0.14 0.05 0.02 0.01 0.00 0.01 0.01 0.01 0.02 0.04 0.08 0.13 0.19 0.30 0.42 0.49 0.57 0.69 0.82 0.90 0.99 1.03 0.95 1.00 1.08 0.94 0.83 0.83 0.87 0.87 0.77 0.55 0.46 0.50 0.57 0.63 0.66
0.12 0.09 0.02 0.00 0.00 0.00 0.00 0.00 0.00 0.01 0.04 0.07 0.11 0.15 0.19 0.28 0.37 0.48 0.59 0.72 0.82 0.95 1.04 1.08 1.14 1.22 1.14 0.96 0.82 0.76 0.71 0.80 0.70 0.51 0.49 0.56 0.57 0.49
0.08 0.02 0.00 0.00 0.00 0.00 0.00 0.00 0.00 0.01 0.01 0.03 0.07 0.10 0.14 0.21 0.30 0.41 0.55 0.65 0.77 0.91 1.06 1.24 1.31 1.33 1.38 1.31 1.12 0.89 0.69 0.63 0.62 0.51 0.49 0.61 0.70 0.59
0.04 0.01 0.00 0.00 0.01 0.01 0.01 0.00 0.00 0.01 0.01 0.02 0.04 0.08 0.13 0.20 0.27 0.34 0.46 0.60 0.73 0.84 0.95 1.15 1.29 1.32 1.50 1.69 1.56 1.13 0.81 0.70 0.67 0.58 0.48 0.53 0.73 0.72
0.01 0.01 0.01 0.02 0.02 0.02 0.01 0.01 0.01 0.01 0.01 0.02 0.03 0.06 0.09 0.15 0.21 0.27 0.37 0.49 0.64 0.77 0.87 0.97 1.10 1.20 1.35 1.65 1.87 1.50 1.03 0.81 0.77 0.77 0.66 0.52 0.57 0.67
0.01 0.02 0.03 0.03 0.02 0.02 0.02 0.01 0.01 0.01 0.01 0.01 0.02 0.03 0.06 0.10 0.16 0.22 0.30 0.42 0.54 0.67 0.77 0.87 1.01 1.13 1.16 1.22 1.39 1.59 1.44 1.01 0.79 0.80 0.81 0.71 0.68 0.79
0.02 0.02 0.03 0.04 0.03 0.03 0.02 0.01 0.01 0.01 0.01 0.01 0.01 0.02 0.03 0.07 0.11 0.17 0.23 0.31 0.42 0.54 0.65 0.78 0.94 1.03 1.09 1.02 1.03 1.26 1.48 1.45 1.01 0.71 0.66 0.66 0.73 0.79
0.03 0.03 0.04 0.04 0.04 0.04 0.03 0.02 0.01 0.01 0.01 0.01 0.01 0.01 0.02 0.04 0.08 0.12 0.17 0.23 0.33 0.45 0.57 0.68 0.80 0.94 1.10 1.16 1.17 1.16 1.29 1.49 1.47 1.13 0.77 0.52 0.41 0.46
0.06 0.05 0.06 0.06 0.05 0.04 0.03 0.02 0.02 0.01 0.01 0.01 0.01 0.01 0.01 0.02 0.04 0.07 0.11 0.17 0.24 0.34 0.46 0.59 0.73 0.89 1.11 1.24 1.26 1.15 1.09 1.20 1.29 1.22 1.18 0.92 0.53 0.31

GEFSNE_prec_meanprecacc_054.txt.gz
Total_Precipitation_Accumulation
0.23 0.25 0.28 0.25 0.25 0.26 0.29 0.40 0.54 0.38 0.10 0.02 0.04 0.06 0.10 0.15 0.20 0.20 0.22 0.23 0.26 0.29 0.33 0.34 0.36 0.48 0.75 1.31 2.22 3.15 3.26 2.48 1.56 0.99 0.84 1.07 1.31 1.57
0.28 0.31 0.33 0.35 0.35 0.33 0.33 0.36 0.43 0.49 0.28 0.05 0.04 0.08 0.13 0.16 0.22 0.20 0.22 0.25 0.23 0.24 0.26 0.29 0.32 0.40 0.56 0.83 1.36 2.19 2.97 3.09 2.46 1.67 1.18 1.11 1.25 1.42
0.31 0.38 0.42 0.45 0.50 0.48 0.45 0.41 0.38 0.41 0.37 0.10 0.03 0.05 0.14 0.20 0.21 0.21 0.23 0.22 0.19 0.20 0.22 0.25 0.28 0.34 0.46 0.64 0.91 1.43 2.17 2.80 2.91 2.42 1.89 1.50 1.35 1.30
0.41 0.43 0.46 0.49 0.55 0.57 0.58 0.52 0.42 0.35 0.36 0.22 0.06 0.05 0.10 0.21 0.26 0.26 0.24 0.23 0.20 0.20 0.22 0.24 0.25 0.30 0.38 0.51 0.68 0.96 1.51 2.11 2.60 2.66 2.33 1.86 1.54 1.47
0.67 0.67 0.62 0.57 0.59 0.59 0.62 0.59 0.49 0.39 0.33 0.28 0.15 0.08 0.10 0.20 0.32 0.34 0.31 0.27 0.23 0.22 0.23 0.24 0.24 0.27 0.31 0.38 0.52 0.69 0.94 1.35 1.81 2.36 2.53 2.26 1.86 1.66
0.73 0.78 0.79 0.81 0.76 0.70 0.68 0.63 0.57 0.50 0.40 0.34 0.25 0.16 0.14 0.20 0.34 0.41 0.37 0.31 0.28 0.25 0.25 0.24 0.25 0.26 0.26 0.25 0.28 0.42 0.65 1.01 1.43 1.88 2.32 2.40 2.11 1.84
0.52 0.56 0.66 0.81 0.87 0.90 0.91 0.80 0.72 0.69 0.58 0.47 0.38 0.28 0.22 0.26 0.38 0.45 0.49 0.44 0.37 0.34 0.31 0.26 0.24 0.22 0.22 0.24 0.28 0.35 0.48 0.66 0.93 1.34 1.76 2.10 2.15 1.98
0.35 0.34 0.37 0.52 0.62 0.70 0.80 0.79 0.81 0.89 0.88 0.74 0.56 0.43 0.33 0.33 0.40 0.50 0.58 0.61 0.53 0.40 0.40 0.37 0.33 0.30 0.25 0.22 0.24 0.27 0.33 0.47 0.62 0.88 1.23 1.61 1.85 1.97
0.19 0.19 0.20 0.29 0.39 0.43 0.50 0.55 0.60 0.72 0.89 0.94 0.85 0.65 0.48 0.38 0.43 0.50 0.56 0.63 0.60 0.55 0.54 0.60 0.56 0.46 0.37 0.33 0.33 0.28 0.29 0.35 0.45 0.60 0.84 1.18 1.50 1.72
0.14 0.12 0.09 0.15 0.28 0.38 0.46 0.45 0.45 0.57 0.82 0.98 1.08 0.98 0.77 0.61 0.59 0.66 0.69 0.64 0.65 0.73 0.74 0.83 0.84 0.69 0.57 0.47 0.40 0.32 0.30 0.30 0.37 0.46 0.61 0.86 1.19 1.45
0.12 0.14 0.09 0.07 0.20 0.29 0.26 0.23 0.25 0.38 0.55 0.75 0.84 0.83 0.78 0.76 0.75 0.78 0.80 0.74 0.85 1.01 0.99 1.00 1.10 1.00 0.87 0.76 0.60 0.45 0.36 0.33 0.34 0.41 0.48 0.63 0.90 1.27
0.08 0.10 0.13 0.14 0.19 0.18 0.11 0.11 0.19 0.28 0.31 0.35 0.41 0.45 0.50 0.55 0.65 0.81 0.93 0.92 1.02 1.23 1.17 1.04 1.21 1.23 1.27 1.14 0.82 0.53 0.42 0.44 0.42 0.43 0.47 0.54 0.72 0.99
0.09 0.10 0.11 0.14 0.13 0.10 0.06 0.07 0.19 0.19 0.15 0.22 0.28 0.34 0.41 0.50 0.62 0.78 0.93 1.00 1.06 1.19 1.16 1.03 1.20 1.16 1.17 1.27 1.11 0.78 0.48 0.43 0.46 0.52 0.57 0.58 0.63 0.69
0.09 0.09 0.10 0.09 0.06 0.04 0.03 0.05 0.06 0.04 0.07 0.12 0.18 0.24 0.35 0.48 0.61 0.76 0.90 0.98 1.04 1.12 1.07 0.95 1.09 1.08 0.93 0.94 1.07 1.04 0.74 0.53 0.43 0.45 0.52 0.70 0.78 0.74
0.18 0.14 0.05 0.02 0.01 0.01 0.01 0.02 0.01 0.02 0.05 0.09 0.14 0.21 0.31 0.45 0.51 0.59 0.70 0.84 0.92 1.01 1.04 0.97 1.02 1.09 0.96 0.85 0.84 0.89 0.88 0.78 0.56 0.47 0.51 0.58 0.64 0.68
0.12 0.09 0.02 0.00 0.00 0.00 0.00 0.00 0.00 0.02 0.05 0.08 0.13 0.16 0.21 0.30 0.39 0.51 0.62 0.74 0.84 0.96 1.05 1.10 1.16 1.24 1.15 0.97 0.83 0.77 0.72 0.81 0.72 0.52 0.51 0.58 0.59 0.51
0.09 0.02 0.00 0.00 0.00 0.00 0.00 0.00 0.00 0.01 0.02 0.04 0.07 0.11 0.16 0.24 0.33 0.45 0.59 0.69 0.80 0.93 1.08 1.26 1.33 1.35 1.40 1.32 1.14 0.90 0.71 0.65 0.64 0.53 0.52 0.64 0.74 0.62
0.05 0.01 0.00 0.01 0.01 0.01 0.01 0.01 0.00 0.01 0.01 0.03 0.05 0.10 0.15 0.23 0.31 0.38 0.50 0.64 0.77 0.88 0.99 1.19 1.33 1.36 1.53 1.71 1.57 1.14 0.83 0.72 0.70 0.61 0.52 0.57 0.79 0.77
0.01 0.01 0.01 0.02 0.02 0.02 0.02 0.01 0.01 0.01 0.01 0.02 0.04 0.08 0.12 0.17 0.24 0.32 0.41 0.53 0.69 0.83 0.94 1.04 1.17 1.26 1.39 1.67 1.88 1.51 1.04 0.83 0.81 0.81 0.71 0.58 0.63 0.73
0.01 0.02 0.03 0.03 0.03 0.03 0.02 0.02 0.01 0.01 0.01 0.01 0.02 0.05 0.08 0.13 0.19 0.26 0.34 0.47 0.60 0.73 0.85 0.95 1.08 1.20 1.21 1.25 1.42 1.60 1.46 1.04 0.83 0.87 0.88 0.79 0.79 0.90
0.02 0.02 0.03 0.04 0.04 0.04 0.03 0.02 0.02 0.02 0.01 0.02 0.02 0.03 0.06 0.10 0.15 0.22 0.29 0.38 0.49 0.60 0.72 0.87 1.03 1.12 1.17 1.08 1.07 1.28 1.51 1.48 1.06 0.78 0.75 0.79 0.92 0.99
0.03 0.04 0.04 0.05 0.05 0.04 0.04 0.03 0.02 0.02 0.02 0.02 0.01 0.02 0.03 0.07 0.12 0.17 0.23 0.29 0.40 0.53 0.66 0.78 0.91 1.04 1.18 1.22 1.21 1.19 1.33 1.54 1.55 1.24 0.91 0.68 0.62 0.66
0.06 0.06 0.06 0.06 0.05 0.05 0.04 0.03 0.03 0.02 0.02 0.02 0.02 0.02 0.02 0.04 0.07 0.11 0.17 0.24 0.32 0.43 0.57 0.72 0.85 1.01 1.22 1.31 1.30 1.19 1.16 1.29 1.41 1.39 1.37 1.13 0.74 0.48

GEFSNE_prec_meanprecacc_060.txt.gz
Total_Precipitation_Accumulation
0.23 0.25 0.28 0.25 0.25 0.26 0.29 0.41 0.57 0.40 0.10 0.02 0.04 0.06 0.10 0.15 0.20 0.20 0.22 0.23 0.26 0.31 0.35 0.37 0.40 0.52 0.81 1.39 2.33 3.29 3.43 2.68 1.77 1.18 1.00 1.21 1.44 1.71
0.28 0.31 0.33 0.35 0.35 0.33 0.33 0.36 0.45 0.52 0.30 0.05 0.04 0.08 0.13 0.16 0.22 0.20 0.22 0.25 0.24 0.25 0.28 0.31 0.34 0.43 0.60 0.88 1.44 2.30 3.12 3.27 2.67 1.87 1.37 1.28 1.39 1.56
0.31 0.38 0.42 0.45 0.50 0.48 0.45 0.42 0.39 0.44 0.41 0.10 0.03 0.05 0.14 0.20 0.21 0.21 0.23 0.22 0.19 0.20 0.23 0.26 0.30 0.37 0.49 0.68 0.97 1.51 2.29 2.95 3.10 2.64 2.10 1.69 1.51 1.44
0.41 0.43 0.46 0.49 0.55 0.57 0.59 0.53 0.43 0.36 0.39 0.24 0.06 0.05 0.10 0.21 0.26 0.26 0.25 0.23 0.20 0.20 0.23 0.25 0.27 0.32 0.41 0.54 0.73 1.02 1.59 2.23 2.75 2.84 2.52 2.04 1.71 1.63
0.67 0.67 0.62 0.58 0.59 0.59 0.62 0.59 0.50 0.39 0.35 0.31 0.16 0.08 0.10 0.20 0.32 0.35 0.31 0.27 0.23 0.22 0.23 0.25 0.26 0.29 0.33 0.41 0.55 0.74 1.01 1.43 1.91 2.48 2.68 2.41 2.01 1.80
0.74 0.79 0.79 0.81 0.76 0.71 0.69 0.64 0.58 0.52 0.43 0.38 0.27 0.17 0.14 0.20 0.35 0.43 0.38 0.32 0.28 0.26 0.25 0.24 0.26 0.27 0.28 0.27 0.30 0.45 0.69 1.06 1.49 1.97 2.44 2.52 2.23 1.96
0.52 0.56 0.66 0.81 0.88 0.91 0.93 0.83 0.76 0.75 0.63 0.52 0.42 0.32 0.25 0.28 0.40 0.47 0.51 0.45 0.38 0.34 0.32 0.26 0.24 0.22 0.22 0.24 0.29 0.36 0.50 0.68 0.97 1.39 1.84 2.19 2.24 2.07
0.35 0.34 0.37 0.52 0.63 0.71 0.81 0.81 0.84 0.94 0.95 0.81 0.61 0.47 0.35 0.35 0.41 0.52 0.61 0.63 0.54 0.41 0.40 0.38 0.34 0.30 0.25 0.22 0.24 0.27 0.34 0.48 0.64 0.91 1.27 1.67 1.92 2.04
0.20 0.19 0.20 0.30 0.39 0.43 0.51 0.55 0.61 0.74 0.92 0.98 0.89 0.67 0.50 0.39 0.46 0.54 0.59 0.66 0.62 0.55 0.55 0.61 0.57 0.46 0.37 0.33 0.33 0.29 0.29 0.35 0.46 0.62 0.86 1.22 1.55 1.77
0.14 0.12 0.10 0.15 0.28 0.38 0.46 0.47 0.47 0.58 0.82 0.99 1.09 1.00 0.80 0.65 0.67 0.74 0.76 0.69 0.67 0.74 0.76 0.86 0.85 0.69 0.58 0.47 0.40 0.32 0.30 0.31 0.37 0.47 0.62 0.88 1.22 1.49
0.13 0.14 0.09 0.07 0.21 0.29 0.28 0.26 0.27 0.39 0.55 0.76 0.85 0.85 0.81 0.79 0.80 0.86 0.86 0.78 0.87 1.01 1.00 1.03 1.11 1.01 0.87 0.77 0.60 0.45 0.36 0.33 0.35 0.42 0.49 0.64 0.92 1.29
0.08 0.10 0.13 0.14 0.20 0.19 0.13 0.14 0.21 0.29 0.32 0.36 0.42 0.46 0.50 0.55 0.67 0.84 0.97 0.96 1.04 1.25 1.18 1.06 1.23 1.26 1.30 1.15 0.83 0.54 0.43 0.44 0.43 0.43 0.47 0.54 0.73 1.01
0.09 0.10 0.11 0.14 0.14 0.11 0.08 0.09 0.20 0.21 0.18 0.23 0.29 0.34 0.42 0.51 0.63 0.79 0.96 1.06 1.10 1.22 1.17 1.06 1.22 1.19 1.21 1.30 1.12 0.79 0.49 0.44 0.46 0.53 0.57 0.58 0.64 0.71
0.10 0.09 0.10 0.09 0.07 0.05 0.04 0.06 0.07 0.06 0.07 0.13 0.18 0.25 0.35 0.48 0.62 0.78 0.92 1.02 1.08 1.15 1.09 0.97 1.13 1.10 0.96 0.98 1.10 1.05 0.76 0.54 0.44 0.45 0.53 0.71 0.78 0.74
0.18 0.14 0.06 0.03 0.02 0.01 0.01 0.02 0.01 0.02 0.05 0.09 0.14 0.21 0.32 0.45 0.52 0.60 0.72 0.86 0.94 1.03 1.06 0.99 1.05 1.12 0.99 0.88 0.87 0.91 0.90 0.80 0.57 0.48 0.52 0.58 0.65 0.69
0.13 0.09 0.02 0.01 0.00 0.00 0.00 0.00 0.00 0.02 0.05 0.08 0.13 0.17 0.21 0.30 0.40 0.53 0.64 0.76 0.86 0.97 1.07 1.13 1.19 1.28 1.18 1.00 0.86 0.80 0.74 0.83 0.73 0.54 0.52 0.59 0.59 0.52
0.09 0.02 0.00 0.00 0.00 0.00 0.00 0.00 0.00 0.01 0.02 0.04 0.08 0.12 0.16 0.24 0.34 0.46 0.61 0.71 0.83 0.96 1.10 1.28 1.36 1.38 1.42 1.35 1.17 0.92 0.72 0.66 0.65 0.54 0.53 0.66 0.75 0.63
0.05 0.02 0.01 0.01 0.01 0.01 0.01 0.01 0.00 0.01 0.02 0.03 0.06 0.10 0.16 0.24 0.31 0.39 0.52 0.67 0.80 0.91 1.02 1.21 1.36 1.40 1.57 1.73 1.59 1.16 0.84 0.73 0.71 0.62 0.54 0.59 0.80 0.77
0.01 0.01 0.01 0.02 0.02 0.02 0.02 0.01 0.01 0.01 0.01 0.03 0.05 0.08 0.12 0.18 0.25 0.33 0.43 0.56 0.72 0.86 0.97 1.07 1.20 1.30 1.42 1.69 1.89 1.52 1.04 0.84 0.82 0.83 0.73 0.59 0.64 0.74
0.01 0.02 0.03 0.03 0.03 0.03 0.03 0.02 0.02 0.01 0.01 0.02 0.03 0.05 0.09 0.15 0.21 0.28 0.36 0.50 0.63 0.76 0.88 0.98 1.12 1.23 1.23 1.27 1.43 1.62 1.47 1.05 0.84 0.88 0.89 0.81 0.80 0.91
0.02 0.03 0.03 0.04 0.04 0.04 0.03 0.02 0.02 0.02 0.02 0.02 0.02 0.03 0.07 0.11 0.17 0.23 0.31 0.41 0.52 0.64 0.75 0.90 1.06 1.15 1.20 1.11 1.09 1.29 1.51 1.49 1.07 0.79 0.77 0.81 0.95 1.02
0.03 0.04 0.04 0.05 0.05 0.04 0.04 0.03 0.03 0.02 0.02 0.02 0.02 0.03 0.04 0.08 0.13 0.19 0.25 0.32 0.43 0.57 0.69 0.81 0.94 1.08 1.22 1.25 1.22 1.19 1.34 1.55 1.55 1.25 0.93 0.71 0.65 0.68
0.06 0.06 0.06 0.06 0.05 0.05 0.04 0.03 0.03 0.02 0.02 0.03 0.03 0.03 0.03 0.05 0.08 0.13 0.19 0.27 0.36 0.47 0.61 0.75 0.89 1.06 1.25 1.33 1.31 1.19 1.16 1.30 1.42 1.40 1.38 1.14 0.75 0.48

GEFSNE_prec_meanprecacc_066.txt.gz
Total_Precipitation_Accumulation
0.23 0.25 0.28 0.25 0.25 0.26 0.29 0.41 0.57 0.40 0.10 0.02 0.04 0.06 0.10 0.15 0.20 0.20 0.22 0.23 0.26 0.31 0.36 0.37 0.41 0.54 0.83 1.42 2.36 3.33 3.47 2.71 1.80 1.22 1.05 1.27 1.52 1.80
0.28 0.31 0.33 0.35 0.35 0.33 0.33 0.36 0.45 0.52 0.30 0.05 0.04 0.08 0.13 0.16 0.22 0.20 0.22 0.25 0.24 0.25 0.28 0.32 0.35 0.45 0.62 0.91 1.47 2.34 3.15 3.32 2.71 1.93 1.44 1.36 1.50 1.67
0.32 0.39 0.43 0.46 0.50 0.48 0.45 0.42 0.40 0.44 0.42 0.10 0.03 0.05 0.14 0.20 0.21 0.21 0.23 0.22 0.19 0.20 0.23 0.26 0.31 0.38 0.51 0.71 1.00 1.55 2.33 3.01 3.16 2.71 2.18 1.80 1.64 1.58
0.42 0.43 0.46 0.50 0.56 0.58 0.59 0.53 0.43 0.36 0.39 0.24 0.07 0.05 0.10 0.21 0.26 0.26 0.25 0.23 0.20 0.20 0.23 0.25 0.28 0.34 0.43 0.58 0.77 1.07 1.65 2.28 2.80 2.90 2.60 2.14 1.83 1.78
0.68 0.68 0.63 0.58 0.60 0.59 0.63 0.60 0.50 0.40 0.35 0.31 0.16 0.08 0.10 0.20 0.32 0.35 0.31 0.27 0.23 0.22 0.23 0.25 0.26 0.30 0.35 0.43 0.58 0.78 1.05 1.48 1.96 2.54 2.74 2.49 2.11 1.92
0.74 0.79 0.80 0.82 0.77 0.71 0.69 0.64 0.59 0.53 0.43 0.38 0.27 0.17 0.15 0.20 0.36 0.44 0.39 0.32 0.29 0.26 0.25 0.24 0.26 0.28 0.29 0.29 0.33 0.47 0.72 1.10 1.53 2.02 2.49 2.59 2.31 2.06
0.53 0.57 0.66 0.82 0.89 0.92 0.94 0.84 0.77 0.76 0.64 0.54 0.43 0.32 0.25 0.29 0.41 0.48 0.52 0.45 0.38 0.34 0.32 0.26 0.25 0.22 0.22 0.24 0.29 0.37 0.51 0.70 0.99 1.42 1.89 2.25 2.32 2.16
0.36 0.35 0.38 0.53 0.64 0.72 0.83 0.83 0.86 0.96 0.98 0.84 0.64 0.48 0.36 0.35 0.42 0.53 0.62 0.64 0.55 0.41 0.41 0.38 0.34 0.30 0.25 0.22 0.24 0.28 0.35 0.50 0.67 0.95 1.31 1.72 1.99 2.13
0.20 0.20 0.21 0.31 0.40 0.44 0.52 0.57 0.63 0.76 0.95 1.01 0.93 0.69 0.51 0.39 0.47 0.55 0.61 0.68 0.63 0.56 0.56 0.62 0.57 0.47 0.37 0.33 0.33 0.30 0.31 0.37 0.49 0.65 0.90 1.27 1.61 1.86
0.15 0.13 0.11 0.16 0.29 0.40 0.48 0.49 0.49 0.59 0.83 1.01 1.11 1.00 0.81 0.66 0.69 0.78 0.81 0.73 0.69 0.74 0.77 0.88 0.85 0.70 0.58 0.48 0.40 0.33 0.32 0.33 0.40 0.50 0.66 0.93 1.27 1.56
0.13 0.15 0.10 0.08 0.22 0.31 0.31 0.29 0.28 0.40 0.56 0.76 0.86 0.86 0.82 0.82 0.84 0.92 0.93 0.83 0.89 1.02 1.00 1.04 1.12 1.01 0.88 0.77 0.61 0.46 0.38 0.36 0.38 0.45 0.53 0.68 0.97 1.36
0.10 0.11 0.15 0.15 0.21 0.22 0.17 0.17 0.22 0.30 0.32 0.37 0.42 0.46 0.51 0.56 0.68 0.86 0.99 0.98 1.06 1.26 1.18 1.07 1.24 1.28 1.32 1.16 0.84 0.55 0.44 0.46 0.45 0.46 0.50 0.58 0.77 1.07
0.12 0.12 0.13 0.16 0.16 0.14 0.12 0.12 0.22 0.22 0.19 0.24 0.30 0.35 0.42 0.51 0.63 0.79 0.96 1.07 1.13 1.23 1.17 1.08 1.26 1.22 1.24 1.32 1.13 0.80 0.50 0.45 0.48 0.54 0.58 0.60 0.67 0.76
0.12 0.11 0.12 0.11 0.09 0.08 0.07 0.09 0.09 0.08 0.10 0.15 0.19 0.25 0.36 0.49 0.62 0.78 0.92 1.02 1.09 1.16 1.09 1.00 1.18 1.14 1.00 1.00 1.11 1.06 0.77 0.55 0.46 0.47 0.54 0.72 0.81 0.79
0.21 0.16 0.08 0.05 0.04 0.04 0.04 0.05 0.04 0.04 0.07 0.11 0.15 0.21 0.32 0.45 0.52 0.60 0.72 0.87 0.95 1.03 1.07 1.02 1.10 1.16 1.04 0.92 0.89 0.92 0.91 0.81 0.59 0.50 0.53 0.60 0.66 0.72
0.17 0.13 0.06 0.04 0.03 0.02 0.01 0.02 0.02 0.03 0.06 0.09 0.13 0.17 0.21 0.30 0.40 0.53 0.64 0.77 0.87 0.98 1.07 1.14 1.22 1.33 1.24 1.03 0.89 0.81 0.75 0.85 0.75 0.56 0.55 0.61 0.61 0.54
0.15 0.10 0.07 0.05 0.05 0.03 0.02 0.01 0.01 0.02 0.03 0.04 0.08 0.12 0.17 0.24 0.34 0.46 0.61 0.72 0.85 0.97 1.11 1.29 1.38 1.42 1.46 1.39 1.21 0.94 0.74 0.67 0.66 0.56 0.56 0.68 0.76 0.65
0.13 0.10 0.07 0.04 0.04 0.03 0.02 0.02 0.01 0.01 0.02 0.03 0.06 0.10 0.16 0.24 0.32 0.39 0.53 0.69 0.82 0.92 1.03 1.23 1.38 1.43 1.60 1.75 1.61 1.18 0.86 0.74 0.72 0.64 0.56 0.62 0.82 0.79
0.09 0.07 0.05 0.04 0.04 0.03 0.03 0.02 0.02 0.01 0.02 0.03 0.05 0.08 0.13 0.18 0.26 0.34 0.44 0.57 0.73 0.87 0.98 1.09 1.24 1.35 1.46 1.71 1.90 1.54 1.08 0.87 0.85 0.85 0.75 0.62 0.66 0.75
0.07 0.06 0.06 0.05 0.05 0.05 0.04 0.03 0.02 0.02 0.01 0.02 0.03 0.05 0.10 0.15 0.21 0.28 0.37 0.51 0.65 0.78 0.89 1.00 1.15 1.28 1.29 1.30 1.46 1.63 1.50 1.08 0.88 0.91 0.91 0.84 0.82 0.93
0.05 0.05 0.05 0.06 0.06 0.05 0.04 0.03 0.03 0.03 0.02 0.02 0.02 0.04 0.07 0.12 0.18 0.24 0.32 0.42 0.54 0.66 0.78 0.91 1.08 1.18 1.25 1.16 1.12 1.30 1.53 1.51 1.10 0.83 0.80 0.85 0.98 1.04
0.05 0.06 0.06 0.06 0.07 0.06 0.05 0.04 0.03 0.02 0.02 0.02 0.02 0.03 0.05 0.09 0.14 0.20 0.26 0.34 0.45 0.59 0.71 0.83 0.96 1.11 1.27 1.30 1.25 1.20 1.35 1.57 1.58 1.27 0.96 0.75 0.68 0.71
0.08 0.08 0.07 0.08 0.07 0.06 0.05 0.04 0.03 0.03 0.02 0.03 0.03 0.03 0.04 0.06 0.09 0.15 0.21 0.29 0.38 0.49 0.63 0.77 0.91 1.09 1.29 1.37 1.34 1.21 1.17 1.32 1.45 1.43 1.40 1.16 0.77 0.49

GEFSNE_prec_meanprecacc_072.txt.gz
Total_Precipitation_Accumulation
0.23 0.25 0.28 0.25 0.25 0.26 0.29 0.41 0.57 0.40 0.10 0.02 0.04 0.06 0.10 0.15 0.20 0.21 0.22 0.23 0.26 0.31 0.36 0.37 0.41 0.54 0.84 1.43 2.37 3.34 3.48 2.73 1.83 1.25 1.08 1.31 1.55 1.84
0.28 0.31 0.33 0.35 0.35 0.33 0.33 0.36 0.45 0.52 0.30 0.05 0.04 0.08 0.13 0.17 0.22 0.20 0.22 0.25 0.24 0.25 0.28 0.32 0.35 0.45 0.63 0.92 1.48 2.35 3.17 3.34 2.74 1.96 1.48 1.40 1.54 1.72
0.32 0.39 0.43 0.46 0.50 0.48 0.46 0.42 0.40 0.44 0.42 0.11 0.03 0.05 0.14 0.20 0.21 0.21 0.23 0.22 0.19 0.20 0.23 0.26 0.31 0.39 0.52 0.72 1.02 1.57 2.36 3.04 3.19 2.74 2.23 1.84 1.68 1.63
0.42 0.43 0.46 0.50 0.56 0.58 0.59 0.53 0.43 0.37 0.39 0.24 0.07 0.05 0.10 0.21 0.27 0.26 0.25 0.23 0.20 0.20 0.23 0.25 0.29 0.35 0.44 0.59 0.78 1.08 1.67 2.30 2.83 2.93 2.64 2.18 1.88 1.82
0.68 0.68 0.63 0.58 0.60 0.59 0.63 0.60 0.50 0.40 0.36 0.32 0.17 0.08 0.10 0.20 0.32 0.35 0.31 0.27 0.23 0.22 0.23 0.25 0.26 0.30 0.35 0.44 0.59 0.79 1.07 1.50 1.98 2.56 2.77 2.52 2.14 1.96
0.74 0.79 0.80 0.82 0.77 0.72 0.70 0.65 0.60 0.54 0.45 0.40 0.29 0.18 0.15 0.21 0.36 0.44 0.39 0.32 0.29 0.26 0.25 0.24 0.26 0.28 0.29 0.29 0.33 0.48 0.73 1.11 1.54 2.03 2.51 2.61 2.33 2.09
0.53 0.57 0.66 0.82 0.89 0.93 0.95 0.85 0.79 0.78 0.67 0.56 0.45 0.34 0.26 0.30 0.41 0.48 0.53 0.45 0.38 0.34 0.32 0.26 0.25 0.22 0.22 0.24 0.29 0.37 0.51 0.70 1.00 1.43 1.90 2.27 2.34 2.19
0.36 0.35 0.38 0.54 0.64 0.73 0.84 0.85 0.88 0.99 1.00 0.87 0.66 0.50 0.36 0.36 0.43 0.54 0.64 0.66 0.56 0.41 0.41 0.38 0.34 0.30 0.25 0.22 0.24 0.28 0.36 0.51 0.68 0.96 1.34 1.75 2.03 2.17
0.20 0.20 0.21 0.31 0.41 0.45 0.54 0.61 0.70 0.83 0.99 1.05 0.96 0.71 0.51 0.40 0.48 0.58 0.63 0.69 0.64 0.56 0.56 0.63 0.57 0.47 0.37 0.33 0.33 0.30 0.31 0.38 0.50 0.67 0.93 1.30 1.65 1.90
0.15 0.13 0.11 0.16 0.29 0.41 0.50 0.52 0.53 0.64 0.90 1.09 1.19 1.04 0.81 0.66 0.70 0.80 0.83 0.76 0.71 0.75 0.77 0.89 0.85 0.70 0.58 0.48 0.40 0.33 0.32 0.34 0.41 0.52 0.69 0.96 1.31 1.60
0.13 0.15 0.10 0.09 0.22 0.32 0.35 0.33 0.31 0.41 0.57 0.81 0.96 0.95 0.87 0.84 0.87 0.99 1.02 0.91 0.93 1.02 1.00 1.04 1.12 1.01 0.88 0.77 0.61 0.46 0.38 0.36 0.39 0.46 0.55 0.71 1.00 1.40
0.10 0.11 0.15 0.16 0.22 0.23 0.22 0.22 0.26 0.30 0.33 0.39 0.47 0.54 0.59 0.63 0.74 0.94 1.08 1.06 1.11 1.28 1.18 1.07 1.24 1.28 1.33 1.16 0.84 0.55 0.44 0.46 0.45 0.46 0.51 0.59 0.80 1.10
0.12 0.13 0.13 0.16 0.18 0.17 0.16 0.17 0.24 0.22 0.20 0.27 0.33 0.37 0.45 0.55 0.67 0.83 1.00 1.11 1.16 1.25 1.17 1.08 1.26 1.22 1.26 1.33 1.13 0.80 0.50 0.45 0.48 0.54 0.59 0.61 0.69 0.79
0.13 0.12 0.12 0.11 0.11 0.11 0.12 0.16 0.14 0.12 0.18 0.22 0.23 0.27 0.37 0.50 0.63 0.79 0.94 1.04 1.11 1.17 1.10 1.00 1.20 1.16 1.03 1.02 1.11 1.06 0.77 0.55 0.46 0.47 0.54 0.72 0.82 0.80
0.22 0.17 0.09 0.07 0.07 0.07 0.09 0.12 0.13 0.15 0.20 0.20 0.19 0.22 0.32 0.45 0.52 0.61 0.73 0.88 0.96 1.04 1.08 1.02 1.11 1.18 1.07 0.96 0.90 0.92 0.91 0.81 0.59 0.51 0.54 0.61 0.67 0.73
0.18 0.14 0.08 0.08 0.08 0.06 0.05 0.06 0.09 0.13 0.15 0.16 0.16 0.18 0.22 0.32 0.42 0.54 0.65 0.78 0.89 0.99 1.08 1.14 1.23 1.35 1.27 1.05 0.91 0.83 0.76 0.85 0.75 0.56 0.56 0.62 0.62 0.55
0.17 0.13 0.10 0.09 0.10 0.09 0.07 0.05 0.05 0.08 0.10 0.11 0.12 0.15 0.19 0.26 0.36 0.47 0.62 0.73 0.86 0.97 1.11 1.29 1.38 1.43 1.48 1.41 1.24 0.96 0.74 0.68 0.66 0.57 0.58 0.71 0.77 0.66
0.18 0.17 0.11 0.08 0.08 0.08 0.07 0.06 0.04 0.05 0.06 0.08 0.11 0.14 0.18 0.26 0.33 0.40 0.54 0.70 0.83 0.93 1.03 1.23 1.39 1.45 1.61 1.76 1.62 1.19 0.87 0.75 0.73 0.66 0.59 0.66 0.84 0.80
0.16 0.13 0.09 0.08 0.07 0.07 0.06 0.06 0.05 0.03 0.04 0.06 0.08 0.11 0.15 0.20 0.27 0.35 0.45 0.58 0.74 0.88 0.98 1.09 1.25 1.38 1.51 1.73 1.90 1.55 1.10 0.90 0.87 0.87 0.77 0.65 0.69 0.77
0.11 0.10 0.09 0.08 0.08 0.08 0.07 0.06 0.05 0.05 0.05 0.05 0.05 0.07 0.11 0.17 0.23 0.29 0.38 0.52 0.66 0.79 0.90 1.00 1.16 1.30 1.33 1.34 1.48 1.64 1.50 1.11 0.92 0.94 0.93 0.85 0.85 0.96
0.07 0.07 0.08 0.09 0.09 0.08 0.07 0.07 0.06 0.06 0.05 0.04 0.04 0.05 0.08 0.13 0.19 0.25 0.32 0.43 0.56 0.68 0.79 0.92 1.08 1.19 1.29 1.21 1.15 1.30 1.53 1.52 1.13 0.87 0.84 0.89 1.02 1.09
0.07 0.08 0.08 0.09 0.09 0.09 0.08 0.07 0.07 0.05 0.04 0.04 0.04 0.04 0.06 0.10 0.15 0.20 0.27 0.35 0.46 0.60 0.72 0.83 0.96 1.13 1.30 1.34 1.28 1.21 1.35 1.57 1.59 1.28 0.99 0.80 0.75 0.78
0.10 0.10 0.10 0.10 0.09 0.09 0.08 0.07 0.06 0.04 0.04 0.04 0.04 0.04 0.05 0.07 0.10 0.15 0.22 0.30 0.39 0.51 0.64 0.78 0.92 1.10 1.31 1.39 1.37 1.23 1.18 1.32 1.46 1.43 1.40 1.17 0.79 0.53

GEFSNE_prec_meanprecacc_078.txt.gz
Total_Precipitation_Accumulation
0.23 0.25 0.28 0.25 0.25 0.26 0.29 0.41 0.57 0.40 0.10 0.02 0.04 0.06 0.10 0.15 0.20 0.21 0.22 0.23 0.26 0.31 0.36 0.37 0.41 0.54 0.84 1.43 2.38 3.35 3.49 2.74 1.83 1.25 1.09 1.32 1.57 1.86
0.28 0.31 0.33 0.35 0.35 0.33 0.33 0.36 0.45 0.52 0.30 0.05 0.04 0.08 0.13 0.17 0.22 0.20 0.22 0.25 0.24 0.25 0.28 0.32 0.35 0.45 0.63 0.92 1.49 2.36 3.18 3.35 2.75 1.97 1.49 1.42 1.56 1.74
0.32 0.39 0.43 0.46 0.50 0.48 0.46 0.42 0.40 0.44 0.42 0.11 0.03 0.05 0.14 0.20 0.21 0.21 0.23 0.22 0.19 0.20 0.23 0.26 0.31 0.39 0.52 0.72 1.02 1.58 2.37 3.04 3.20 2.76 2.24 1.86 1.71 1.66
0.42 0.43 0.46 0.50 0.56 0.58 0.59 0.53 0.43 0.37 0.39 0.24 0.07 0.05 0.11 0.21 0.27 0.26 0.25 0.23 0.20 0.20 0.23 0.26 0.29 0.35 0.45 0.59 0.79 1.09 1.67 2.31 2.84 2.95 2.65 2.20 1.89 1.84
0.68 0.68 0.63 0.58 0.60 0.59 0.63 0.60 0.50 0.40 0.36 0.33 0.17 0.09 0.11 0.20 0.32 0.35 0.31 0.27 0.23 0.22 0.23 0.25 0.27 0.30 0.36 0.45 0.60 0.80 1.08 1.51 1.99 2.57 2.78 2.53 2.15 1.98
0.74 0.79 0.80 0.82 0.77 0.72 0.70 0.65 0.60 0.55 0.46 0.42 0.30 0.18 0.15 0.21 0.37 0.45 0.39 0.33 0.29 0.26 0.26 0.24 0.26 0.28 0.29 0.30 0.34 0.49 0.74 1.11 1.55 2.04 2.52 2.62 2.34 2.10
0.53 0.57 0.67 0.82 0.89 0.93 0.96 0.86 0.80 0.80 0.69 0.58 0.47 0.34 0.27 0.31 0.43 0.49 0.54 0.47 0.39 0.35 0.32 0.26 0.25 0.22 0.22 0.25 0.30 0.38 0.52 0.71 1.01 1.44 1.91 2.28 2.35 2.20
0.36 0.35 0.38 0.54 0.65 0.74 0.86 0.87 0.90 1.02 1.03 0.89 0.67 0.51 0.37 0.36 0.43 0.56 0.66 0.69 0.58 0.41 0.41 0.39 0.34 0.31 0.25 0.22 0.24 0.28 0.36 0.51 0.68 0.97 1.35 1.76 2.04 2.18
0.20 0.20 0.22 0.31 0.41 0.46 0.55 0.63 0.72 0.86 1.03 1.08 0.98 0.71 0.51 0.40 0.50 0.61 0.66 0.71 0.64 0.56 0.57 0.63 0.57 0.47 0.37 0.33 0.33 0.30 0.31 0.38 0.51 0.68 0.94 1.31 1.66 1.91
0.15 0.14 0.11 0.16 0.29 0.41 0.51 0.53 0.53 0.65 0.92 1.13 1.25 1.07 0.83 0.67 0.71 0.82 0.85 0.79 0.73 0.75 0.79 0.91 0.86 0.70 0.58 0.48 0.40 0.33 0.32 0.34 0.42 0.53 0.69 0.97 1.32 1.61
0.14 0.15 0.10 0.09 0.22 0.33 0.36 0.34 0.32 0.42 0.58 0.83 0.99 1.01 0.92 0.88 0.90 1.05 1.10 1.00 0.99 1.04 1.01 1.06 1.12 1.02 0.88 0.77 0.61 0.46 0.38 0.37 0.39 0.47 0.55 0.72 1.01 1.41
0.10 0.11 0.15 0.16 0.22 0.24 0.23 0.23 0.27 0.31 0.33 0.40 0.49 0.58 0.66 0.72 0.86 1.06 1.16 1.11 1.14 1.29 1.19 1.08 1.25 1.29 1.34 1.16 0.84 0.55 0.44 0.46 0.45 0.47 0.51 0.60 0.80 1.10
0.13 0.13 0.13 0.17 0.19 0.18 0.18 0.20 0.26 0.24 0.22 0.29 0.34 0.39 0.48 0.61 0.75 0.96 1.16 1.21 1.22 1.28 1.18 1.08 1.27 1.23 1.28 1.33 1.13 0.80 0.50 0.45 0.48 0.54 0.59 0.61 0.69 0.79
0.14 0.12 0.13 0.12 0.12 0.13 0.14 0.18 0.17 0.17 0.24 0.27 0.27 0.30 0.39 0.52 0.66 0.83 1.02 1.14 1.18 1.20 1.11 1.02 1.21 1.17 1.05 1.04 1.12 1.06 0.77 0.55 0.46 0.47 0.54 0.72 0.82 0.80
0.23 0.19 0.11 0.09 0.09 0.09 0.11 0.15 0.16 0.20 0.27 0.28 0.24 0.25 0.33 0.47 0.55 0.65 0.78 0.94 1.04 1.10 1.12 1.06 1.14 1.19 1.09 0.98 0.91 0.92 0.91 0.81 0.59 0.51 0.54 0.61 0.67 0.73
0.20 0.15 0.09 0.09 0.09 0.08 0.06 0.08 0.12 0.17 0.21 0.23 0.21 0.21 0.24 0.34 0.46 0.58 0.70 0.82 0.95 1.04 1.11 1.18 1.25 1.37 1.30 1.07 0.92 0.83 0.76 0.85 0.75 0.56 0.56 0.62 0.62 0.55
0.21 0.16 0.12 0.12 0.12 0.11 0.08 0.06 0.07 0.11 0.15 0.17 0.18 0.20 0.24 0.30 0.39 0.50 0.66 0.78 0.90 0.99 1.13 1.32 1.41 1.45 1.50 1.43 1.26 0.97 0.74 0.68 0.66 0.57 0.58 0.71 0.77 0.66
0.22 0.21 0.14 0.11 0.10 0.09 0.09 0.07 0.06 0.07 0.09 0.12 0.16 0.20 0.23 0.30 0.36 0.44 0.58 0.74 0.86 0.94 1.05 1.25 1.42 1.49 1.65 1.79 1.63 1.20 0.87 0.76 0.73 0.66 0.59 0.67 0.84 0.80
0.19 0.16 0.12 0.10 0.09 0.09 0.08 0.07 0.06 0.05 0.07 0.10 0.13 0.16 0.20 0.25 0.31 0.38 0.48 0.62 0.77 0.90 1.00 1.11 1.28 1.41 1.54 1.75 1.90 1.55 1.10 0.90 0.87 0.87 0.77 0.66 0.70 0.77
0.12 0.12 0.11 0.10 0.10 0.10 0.09 0.08 0.07 0.08 0.09 0.09 0.10 0.12 0.16 0.21 0.27 0.33 0.41 0.54 0.68 0.81 0.92 1.02 1.18 1.32 1.35 1.35 1.48 1.64 1.50 1.11 0.93 0.95 0.93 0.85 0.85 0.96
0.09 0.09 0.10 0.11 0.11 0.10 0.09 0.09 0.09 0.08 0.08 0.08 0.08 0.09 0.12 0.17 0.22 0.27 0.35 0.45 0.58 0.70 0.81 0.93 1.08 1.20 1.30 1.24 1.19 1.31 1.53 1.52 1.13 0.89 0.87 0.92 1.05 1.10
0.08 0.09 0.10 0.10 0.11 0.11 0.10 0.10 0.09 0.08 0.08 0.08 0.08 0.08 0.09 0.13 0.18 0.23 0.30 0.37 0.48 0.61 0.73 0.84 0.97 1.14 1.32 1.37 1.30 1.21 1.35 1.57 1.59 1.29 1.00 0.83 0.81 0.81
0.12 0.11 0.11 0.11 0.11 0.11 0.10 0.09 0.08 0.07 0.06 0.06 0.07 0.07 0.08 0.10 0.13 0.18 0.24 0.32 0.41 0.52 0.66 0.79 0.93 1.11 1.32 1.41 1.38 1.24 1.19 1.32 1.46 1.43 1.40 1.17 0.80 0.55

GEFSNE_prec_meanprecacc_084.txt.gz
Total_Precipitation_Accumulation
0.23 0.25 0.28 0.25 0.25 0.26 0.29 0.41 0.57 0.40 0.10 0.02 0.04 0.06 0.10 0.15 0.20 0.21 0.22 0.23 0.26 0.31 0.36 0.37 0.41 0.54 0.84 1.43 2.38 3.35 3.49 2.74 1.84 1.26 1.10 1.34 1.59 1.88
0.28 0.31 0.33 0.35 0.35 0.33 0.33 0.36 0.45 0.52 0.30 0.05 0.04 0.08 0.13 0.17 0.22 0.20 0.22 0.25 0.24 0.25 0.28 0.32 0.35 0.45 0.63 0.92 1.49 2.36 3.18 3.35 2.76 1.98 1.50 1.44 1.58 1.76
0.32 0.39 0.43 0.46 0.50 0.48 0.46 0.42 0.40 0.44 0.42 0.11 0.03 0.05 0.14 0.20 0.21 0.21 0.23 0.22 0.19 0.20 0.23 0.27 0.31 0.39 0.52 0.72 1.02 1.58 2.37 3.05 3.21 2.77 2.26 1.88 1.73 1.68
0.42 0.43 0.46 0.50 0.56 0.58 0.59 0.53 0.43 0.37 0.39 0.25 0.07 0.05 0.11 0.21 0.27 0.26 0.25 0.23 0.20 0.20 0.23 0.26 0.29 0.35 0.45 0.60 0.79 1.10 1.68 2.32 2.85 2.96 2.66 2.21 1.92 1.87
0.68 0.68 0.63 0.58 0.60 0.60 0.63 0.60 0.51 0.41 0.37 0.33 0.17 0.09 0.11 0.20 0.33 0.36 0.32 0.28 0.23 0.23 0.24 0.25 0.27 0.31 0.36 0.46 0.61 0.81 1.09 1.52 2.01 2.59 2.79 2.55 2.17 2.00
0.74 0.79 0.80 0.82 0.77 0.72 0.70 0.66 0.61 0.56 0.47 0.43 0.30 0.18 0.16 0.21 0.38 0.46 0.40 0.33 0.30 0.27 0.28 0.26 0.28 0.29 0.30 0.31 0.35 0.51 0.76 1.14 1.57 2.06 2.54 2.64 2.36 2.12
0.53 0.57 0.67 0.82 0.90 0.94 0.98 0.88 0.81 0.82 0.72 0.61 0.49 0.35 0.28 0.32 0.44 0.50 0.56 0.49 0.42 0.37 0.35 0.29 0.27 0.24 0.24 0.27 0.32 0.41 0.55 0.74 1.04 1.47 1.94 2.31 2.37 2.22
0.36 0.36 0.39 0.55 0.66 0.76 0.89 0.90 0.95 1.07 1.09 0.95 0.72 0.54 0.38 0.37 0.45 0.58 0.70 0.74 0.62 0.43 0.44 0.41 0.36 0.33 0.26 0.23 0.25 0.30 0.39 0.55 0.72 1.01 1.38 1.80 2.07 2.20
0.21 0.21 0.23 0.32 0.42 0.47 0.56 0.65 0.75 0.90 1.08 1.14 1.05 0.76 0.54 0.42 0.53 0.65 0.69 0.74 0.66 0.57 0.60 0.67 0.59 0.49 0.38 0.34 0.34 0.31 0.34 0.41 0.54 0.72 0.98 1.35 1.69 1.94
0.15 0.14 0.12 0.17 0.30 0.42 0.52 0.54 0.54 0.66 0.94 1.16 1.29 1.11 0.86 0.71 0.77 0.87 0.89 0.84 0.77 0.78 0.81 0.93 0.86 0.71 0.59 0.49 0.41 0.35 0.34 0.36 0.44 0.56 0.73 1.00 1.35 1.65
0.14 0.15 0.11 0.09 0.23 0.35 0.38 0.36 0.33 0.42 0.58 0.84 1.02 1.04 0.96 0.95 0.98 1.15 1.21 1.12 1.07 1.06 1.02 1.08 1.12 1.02 0.89 0.78 0.61 0.47 0.40 0.39 0.41 0.50 0.58 0.75 1.04 1.44
0.11 0.12 0.16 0.18 0.25 0.28 0.26 0.27 0.30 0.33 0.34 0.41 0.50 0.59 0.69 0.77 0.95 1.19 1.28 1.21 1.20 1.32 1.19 1.09 1.26 1.31 1.37 1.17 0.85 0.55 0.45 0.47 0.47 0.50 0.55 0.63 0.84 1.14
0.15 0.15 0.15 0.19 0.21 0.21 0.22 0.23 0.30 0.28 0.25 0.32 0.37 0.41 0.50 0.63 0.78 1.02 1.25 1.32 1.30 1.32 1.19 1.09 1.29 1.27 1.31 1.34 1.13 0.80 0.51 0.45 0.49 0.56 0.62 0.64 0.72 0.83
0.17 0.14 0.14 0.14 0.15 0.16 0.18 0.22 0.22 0.22 0.29 0.32 0.31 0.34 0.42 0.54 0.67 0.86 1.07 1.22 1.25 1.25 1.13 1.04 1.23 1.19 1.07 1.06 1.13 1.06 0.77 0.55 0.46 0.48 0.54 0.73 0.84 0.83
0.25 0.21 0.13 0.12 0.13 0.12 0.14 0.18 0.20 0.24 0.32 0.33 0.28 0.27 0.35 0.48 0.57 0.68 0.82 1.00 1.12 1.18 1.18 1.10 1.16 1.21 1.12 1.01 0.92 0.93 0.92 0.82 0.59 0.51 0.54 0.61 0.68 0.74
0.22 0.18 0.12 0.12 0.11 0.09 0.08 0.10 0.14 0.20 0.24 0.26 0.24 0.23 0.26 0.37 0.49 0.61 0.74 0.88 1.03 1.11 1.17 1.23 1.30 1.42 1.35 1.10 0.94 0.84 0.76 0.86 0.75 0.56 0.56 0.62 0.62 0.56
0.24 0.19 0.14 0.13 0.14 0.13 0.10 0.07 0.08 0.13 0.17 0.19 0.21 0.23 0.26 0.33 0.42 0.53 0.71 0.83 0.96 1.03 1.17 1.37 1.47 1.52 1.56 1.47 1.30 0.98 0.75 0.68 0.67 0.57 0.59 0.71 0.78 0.66
0.26 0.24 0.17 0.13 0.12 0.11 0.10 0.08 0.07 0.09 0.11 0.14 0.19 0.23 0.26 0.33 0.39 0.47 0.62 0.79 0.90 0.97 1.08 1.29 1.47 1.58 1.74 1.86 1.66 1.21 0.88 0.76 0.74 0.66 0.60 0.68 0.84 0.80
0.21 0.18 0.13 0.11 0.10 0.10 0.09 0.09 0.07 0.06 0.09 0.13 0.16 0.19 0.23 0.28 0.35 0.42 0.52 0.66 0.81 0.93 1.03 1.15 1.33 1.47 1.59 1.78 1.91 1.55 1.11 0.90 0.88 0.88 0.78 0.66 0.70 0.77
0.13 0.13 0.12 0.11 0.11 0.11 0.10 0.09 0.09 0.09 0.11 0.12 0.12 0.14 0.19 0.24 0.30 0.35 0.43 0.57 0.71 0.84 0.96 1.06 1.21 1.34 1.37 1.36 1.49 1.64 1.51 1.12 0.94 0.96 0.94 0.86 0.85 0.96
0.10 0.10 0.11 0.12 0.12 0.11 0.11 0.10 0.10 0.10 0.09 0.10 0.11 0.12 0.15 0.20 0.25 0.30 0.37 0.47 0.62 0.74 0.84 0.95 1.09 1.21 1.33 1.28 1.22 1.32 1.53 1.52 1.14 0.90 0.87 0.93 1.06 1.11
0.10 0.10 0.11 0.11 0.12 0.12 0.12 0.11 0.11 0.10 0.09 0.10 0.09 0.09 0.11 0.16 0.21 0.26 0.33 0.40 0.51 0.63 0.74 0.85 0.99 1.18 1.36 1.41 1.32 1.22 1.36 1.58 1.60 1.29 1.01 0.84 0.83 0.83
0.13 0.12 0.12 0.12 0.12 0.12 0.12 0.11 0.10 0.08 0.07 0.08 0.08 0.08 0.09 0.12 0.15 0.20 0.26 0.34 0.43 0.54 0.68 0.82 0.95 1.13 1.33 1.42 1.39 1.24 1.19 1.33 1.47 1.44 1.41 1.17 0.81 0.56

GEFSNE_prec_meanprecacc_090.txt.gz
Total_Precipitation_Accumulation
0.23 0.25 0.28 0.25 0.25 0.26 0.29 0.41 0.57 0.40 0.10 0.02 0.04 0.06 0.10 0.15 0.20 0.21 0.22 0.23 0.26 0.31 0.36 0.38 0.41 0.54 0.84 1.44 2.38 3.35 3.50 2.76 1.87 1.32 1.20 1.46 1.73 2.02
0.28 0.31 0.33 0.35 0.35 0.33 0.34 0.36 0.45 0.53 0.31 0.05 0.04 0.08 0.13 0.17 0.22 0.20 0.22 0.25 0.24 0.25 0.28 0.32 0.36 0.45 0.63 0.92 1.49 2.37 3.19 3.36 2.77 2.01 1.56 1.54 1.71 1.90
0.32 0.39 0.43 0.46 0.50 0.48 0.46 0.42 0.40 0.45 0.42 0.11 0.03 0.05 0.14 0.20 0.21 0.21 0.23 0.22 0.19 0.20 0.23 0.27 0.31 0.39 0.53 0.73 1.03 1.59 2.38 3.06 3.23 2.79 2.29 1.94 1.83 1.81
0.42 0.44 0.46 0.50 0.56 0.58 0.59 0.53 0.43 0.37 0.40 0.25 0.07 0.05 0.11 0.21 0.27 0.26 0.25 0.23 0.20 0.20 0.23 0.26 0.29 0.36 0.46 0.61 0.81 1.11 1.70 2.34 2.87 2.98 2.69 2.25 1.98 1.97
0.68 0.68 0.63 0.58 0.60 0.60 0.63 0.60 0.51 0.41 0.37 0.34 0.18 0.09 0.11 0.21 0.33 0.36 0.32 0.28 0.24 0.23 0.24 0.26 0.27 0.32 0.38 0.47 0.63 0.84 1.12 1.54 2.03 2.62 2.83 2.59 2.23 2.08
0.74 0.79 0.80 0.82 0.78 0.72 0.71 0.66 0.61 0.57 0.49 0.44 0.32 0.20 0.17 0.22 0.38 0.46 0.41 0.34 0.30 0.28 0.28 0.27 0.28 0.31 0.32 0.33 0.38 0.54 0.79 1.17 1.61 2.10 2.57 2.68 2.40 2.18
0.54 0.57 0.67 0.83 0.91 0.96 1.00 0.90 0.84 0.86 0.76 0.66 0.53 0.39 0.30 0.34 0.45 0.51 0.57 0.50 0.42 0.38 0.35 0.29 0.27 0.25 0.25 0.28 0.34 0.43 0.58 0.78 1.09 1.53 2.00 2.37 2.43 2.27
0.37 0.36 0.39 0.55 0.67 0.78 0.92 0.94 0.99 1.13 1.15 1.02 0.80 0.61 0.43 0.40 0.47 0.61 0.73 0.77 0.64 0.44 0.44 0.41 0.36 0.33 0.27 0.23 0.26 0.31 0.41 0.59 0.78 1.08 1.47 1.89 2.16 2.30
0.21 0.22 0.23 0.32 0.43 0.48 0.58 0.67 0.77 0.93 1.12 1.19 1.11 0.81 0.58 0.45 0.57 0.71 0.74 0.78 0.69 0.59 0.62 0.69 0.60 0.50 0.38 0.34 0.35 0.32 0.36 0.45 0.61 0.80 1.07 1.46 1.81 2.06
0.16 0.15 0.12 0.17 0.30 0.43 0.53 0.55 0.55 0.67 0.95 1.18 1.31 1.13 0.88 0.73 0.79 0.91 0.94 0.89 0.82 0.80 0.84 0.97 0.88 0.71 0.59 0.49 0.42 0.36 0.37 0.40 0.50 0.62 0.82 1.11 1.47 1.76
0.14 0.16 0.11 0.10 0.24 0.38 0.41 0.39 0.35 0.44 0.60 0.87 1.05 1.07 1.00 1.00 1.05 1.25 1.33 1.25 1.18 1.10 1.04 1.11 1.14 1.03 0.89 0.79 0.62 0.48 0.42 0.42 0.46 0.55 0.65 0.84 1.15 1.56
0.12 0.13 0.17 0.20 0.27 0.32 0.30 0.31 0.35 0.35 0.36 0.42 0.52 0.61 0.71 0.79 0.99 1.25 1.37 1.34 1.34 1.41 1.21 1.10 1.27 1.33 1.40 1.17 0.85 0.56 0.46 0.49 0.51 0.54 0.61 0.70 0.93 1.25
0.17 0.16 0.16 0.21 0.24 0.25 0.26 0.27 0.34 0.32 0.29 0.36 0.40 0.44 0.52 0.65 0.79 1.03 1.28 1.37 1.40 1.41 1.22 1.12 1.32 1.30 1.34 1.36 1.14 0.80 0.51 0.46 0.50 0.59 0.66 0.70 0.80 0.93
0.19 0.15 0.15 0.16 0.18 0.20 0.22 0.26 0.26 0.27 0.33 0.36 0.35 0.38 0.45 0.57 0.69 0.87 1.09 1.24 1.28 1.29 1.18 1.09 1.30 1.24 1.11 1.10 1.14 1.07 0.77 0.56 0.47 0.49 0.56 0.77 0.90 0.92
0.26 0.23 0.16 0.15 0.15 0.14 0.15 0.20 0.23 0.26 0.34 0.36 0.32 0.30 0.38 0.51 0.59 0.70 0.85 1.03 1.15 1.21 1.22 1.16 1.23 1.27 1.18 1.06 0.94 0.94 0.92 0.82 0.59 0.52 0.55 0.63 0.71 0.80
0.23 0.19 0.14 0.13 0.12 0.10 0.09 0.11 0.15 0.21 0.27 0.30 0.27 0.25 0.28 0.39 0.51 0.64 0.78 0.92 1.08 1.15 1.20 1.27 1.34 1.48 1.43 1.15 0.98 0.87 0.77 0.86 0.75 0.57 0.57 0.64 0.64 0.58
0.27 0.21 0.16 0.14 0.15 0.13 0.10 0.08 0.09 0.13 0.18 0.21 0.23 0.25 0.28 0.36 0.44 0.56 0.75 0.88 1.02 1.07 1.19 1.40 1.51 1.58 1.63 1.54 1.37 1.02 0.77 0.69 0.67 0.58 0.60 0.73 0.79 0.68
0.29 0.27 0.18 0.14 0.13 0.12 0.11 0.09 0.07 0.09 0.12 0.16 0.21 0.25 0.29 0.36 0.43 0.50 0.66 0.84 0.95 1.00 1.11 1.31 1.52 1.66 1.85 1.94 1.70 1.23 0.90 0.78 0.75 0.67 0.61 0.70 0.86 0.81
0.22 0.19 0.14 0.12 0.12 0.11 0.10 0.10 0.09 0.07 0.10 0.15 0.18 0.21 0.26 0.31 0.38 0.46 0.56 0.70 0.84 0.96 1.06 1.19 1.37 1.53 1.65 1.82 1.93 1.56 1.12 0.92 0.89 0.90 0.79 0.67 0.70 0.77
0.14 0.14 0.14 0.12 0.12 0.12 0.11 0.11 0.10 0.10 0.12 0.13 0.14 0.16 0.21 0.27 0.33 0.38 0.46 0.60 0.74 0.87 1.00 1.10 1.25 1.38 1.39 1.38 1.51 1.65 1.51 1.13 0.96 0.98 0.95 0.86 0.86 0.97
0.10 0.11 0.12 0.13 0.13 0.12 0.12 0.11 0.11 0.11 0.10 0.11 0.12 0.13 0.16 0.23 0.28 0.32 0.39 0.50 0.65 0.77 0.87 0.97 1.10 1.23 1.36 1.34 1.29 1.35 1.53 1.53 1.14 0.90 0.88 0.95 1.08 1.13
0.10 0.11 0.11 0.12 0.13 0.13 0.13 0.12 0.12 0.10 0.10 0.11 0.11 0.11 0.13 0.18 0.23 0.28 0.35 0.43 0.54 0.66 0.77 0.87 1.01 1.21 1.41 1.45 1.34 1.23 1.36 1.59 1.61 1.31 1.02 0.85 0.84 0.84
0.14 0.13 0.13 0.13 0.13 0.13 0.12 0.12 0.11 0.09 0.08 0.09 0.09 0.09 0.11 0.13 0.16 0.22 0.28 0.36 0.45 0.56 0.71 0.85 0.98 1.16 1.36 1.44 1.41 1.26 1.21 1.34 1.48 1.47 1.44 1.19 0.81 0.56

GEFSNE_prec_meanprecacc_096.txt.gz
Total_Precipitation_Accumulation
0.23 0.25 0.28 0.25 0.25 0.26 0.29 0.41 0.58 0.41 0.11 0.02 0.04 0.06 0.10 0.15 0.20 0.21 0.22 0.23 0.26 0.31 0.36 0.38 0.42 0.55 0.85 1.45 2.39 3.37 3.52 2.77 1.89 1.34 1.22 1.51 1.82 2.18
0.28 0.31 0.33 0.35 0.35 0.33 0.34 0.36 0.45 0.53 0.31 0.05 0.04 0.08 0.13 0.17 0.22 0.20 0.22 0.25 0.24 0.26 0.29 0.32 0.36 0.46 0.64 0.94 1.51 2.38 3.21 3.38 2.79 2.03 1.59 1.57 1.76 1.99
0.32 0.39 0.43 0.46 0.50 0.48 0.46 0.42 0.40 0.45 0.43 0.11 0.03 0.06 0.14 0.20 0.21 0.21 0.23 0.22 0.19 0.20 0.23 0.27 0.32 0.40 0.54 0.74 1.05 1.61 2.40 3.09 3.25 2.82 2.32 1.98 1.87 1.87
0.42 0.44 0.46 0.50 0.56 0.58 0.59 0.53 0.43 0.37 0.41 0.26 0.07 0.05 0.11 0.21 0.27 0.26 0.25 0.23 0.20 0.20 0.23 0.26 0.30 0.37 0.47 0.63 0.83 1.14 1.73 2.37 2.90 3.01 2.73 2.29 2.03 2.03
0.68 0.68 0.63 0.58 0.60 0.60 0.63 0.61 0.51 0.41 0.38 0.35 0.19 0.09 0.11 0.21 0.33 0.36 0.32 0.28 0.24 0.23 0.24 0.26 0.28 0.33 0.39 0.49 0.65 0.86 1.14 1.57 2.06 2.64 2.86 2.62 2.26 2.12
0.74 0.79 0.80 0.82 0.78 0.73 0.71 0.66 0.62 0.57 0.49 0.46 0.33 0.20 0.17 0.23 0.39 0.47 0.41 0.34 0.31 0.28 0.28 0.27 0.29 0.31 0.33 0.34 0.40 0.56 0.81 1.20 1.64 2.13 2.61 2.71 2.43 2.21
0.54 0.57 0.67 0.83 0.92 0.97 1.01 0.91 0.85 0.88 0.79 0.69 0.57 0.42 0.33 0.36 0.47 0.53 0.59 0.51 0.43 0.38 0.35 0.29 0.27 0.25 0.25 0.28 0.34 0.43 0.59 0.79 1.10 1.55 2.03 2.40 2.46 2.31
0.37 0.36 0.39 0.56 0.67 0.78 0.93 0.96 1.01 1.16 1.19 1.07 0.85 0.66 0.46 0.42 0.49 0.63 0.75 0.80 0.67 0.45 0.45 0.42 0.36 0.33 0.27 0.23 0.26 0.31 0.41 0.59 0.79 1.10 1.49 1.92 2.20 2.34
0.21 0.22 0.23 0.32 0.43 0.48 0.58 0.68 0.78 0.95 1.15 1.23 1.15 0.84 0.60 0.47 0.59 0.73 0.77 0.81 0.71 0.60 0.64 0.70 0.60 0.50 0.38 0.34 0.35 0.32 0.36 0.46 0.62 0.82 1.10 1.49 1.85 2.11
0.16 0.15 0.12 0.17 0.31 0.43 0.53 0.56 0.56 0.68 0.96 1.20 1.33 1.14 0.89 0.75 0.82 0.95 0.99 0.96 0.87 0.83 0.85 0.99 0.88 0.72 0.59 0.49 0.42 0.36 0.37 0.41 0.51 0.64 0.84 1.14 1.50 1.81
0.14 0.16 0.12 0.10 0.25 0.40 0.44 0.41 0.37 0.45 0.61 0.88 1.08 1.10 1.05 1.05 1.12 1.33 1.44 1.37 1.29 1.14 1.05 1.13 1.15 1.03 0.90 0.79 0.62 0.48 0.42 0.43 0.47 0.57 0.68 0.87 1.19 1.61
0.12 0.13 0.18 0.21 0.30 0.35 0.33 0.33 0.38 0.37 0.37 0.44 0.54 0.63 0.73 0.81 1.01 1.28 1.42 1.43 1.43 1.48 1.23 1.12 1.29 1.34 1.42 1.18 0.85 0.56 0.46 0.50 0.51 0.55 0.63 0.73 0.97 1.29
0.18 0.17 0.17 0.22 0.27 0.28 0.30 0.30 0.37 0.35 0.33 0.40 0.43 0.46 0.53 0.65 0.79 1.04 1.30 1.42 1.48 1.49 1.25 1.16 1.37 1.34 1.39 1.39 1.14 0.80 0.51 0.46 0.50 0.59 0.67 0.72 0.83 0.97
0.20 0.16 0.16 0.18 0.21 0.24 0.25 0.28 0.29 0.31 0.36 0.38 0.37 0.39 0.46 0.57 0.70 0.88 1.10 1.26 1.32 1.34 1.21 1.14 1.39 1.31 1.18 1.15 1.16 1.07 0.77 0.56 0.47 0.49 0.56 0.78 0.92 0.95
0.27 0.24 0.18 0.18 0.18 0.15 0.16 0.21 0.25 0.28 0.36 0.38 0.33 0.31 0.38 0.51 0.60 0.71 0.85 1.04 1.16 1.23 1.25 1.20 1.29 1.34 1.26 1.12 0.97 0.95 0.93 0.82 0.60 0.52 0.56 0.63 0.72 0.81
0.25 0.21 0.17 0.16 0.14 0.11 0.10 0.12 0.16 0.22 0.28 0.32 0.28 0.25 0.29 0.39 0.52 0.65 0.79 0.94 1.11 1.17 1.22 1.28 1.37 1.53 1.50 1.21 1.02 0.89 0.78 0.87 0.76 0.57 0.58 0.65 0.65 0.60
0.32 0.26 0.19 0.16 0.16 0.14 0.10 0.08 0.09 0.14 0.19 0.22 0.24 0.26 0.29 0.37 0.45 0.57 0.77 0.91 1.06 1.10 1.21 1.41 1.54 1.61 1.67 1.59 1.42 1.05 0.78 0.70 0.67 0.58 0.61 0.74 0.80 0.69
0.34 0.31 0.19 0.14 0.14 0.13 0.12 0.09 0.08 0.10 0.12 0.17 0.23 0.26 0.30 0.37 0.44 0.51 0.68 0.86 0.98 1.02 1.12 1.33 1.54 1.71 1.90 1.98 1.73 1.26 0.91 0.79 0.75 0.68 0.62 0.71 0.87 0.82
0.24 0.20 0.15 0.13 0.12 0.12 0.11 0.10 0.09 0.08 0.11 0.16 0.19 0.22 0.27 0.32 0.39 0.47 0.57 0.71 0.86 0.97 1.07 1.20 1.40 1.57 1.70 1.84 1.94 1.57 1.13 0.93 0.91 0.91 0.80 0.68 0.71 0.79
0.14 0.15 0.14 0.13 0.13 0.13 0.12 0.11 0.11 0.11 0.12 0.13 0.14 0.17 0.22 0.28 0.34 0.39 0.47 0.61 0.75 0.88 1.01 1.11 1.26 1.40 1.42 1.39 1.53 1.66 1.51 1.14 0.97 0.99 0.96 0.88 0.87 0.98
0.11 0.12 0.12 0.14 0.14 0.14 0.13 0.12 0.12 0.12 0.10 0.12 0.13 0.14 0.17 0.24 0.29 0.33 0.40 0.51 0.66 0.79 0.88 0.97 1.11 1.24 1.38 1.38 1.32 1.36 1.54 1.54 1.15 0.92 0.89 0.97 1.10 1.14
0.11 0.12 0.12 0.13 0.15 0.15 0.14 0.13 0.13 0.11 0.10 0.11 0.11 0.12 0.14 0.19 0.25 0.29 0.36 0.44 0.55 0.67 0.77 0.88 1.01 1.22 1.44 1.49 1.36 1.23 1.37 1.60 1.62 1.32 1.03 0.86 0.85 0.84
0.16 0.15 0.14 0.14 0.14 0.14 0.14 0.13 0.12 0.10 0.09 0.09 0.10 0.10 0.11 0.14 0.17 0.23 0.29 0.37 0.46 0.57 0.71 0.86 0.99 1.18 1.38 1.45 1.42 1.27 1.22 1.35 1.50 1.51 1.47 1.20 0.82 0.57

GEFSNE_prec_meanprecacc_102.txt.gz
Total_Precipitation_Accumulation
0.23 0.25 0.28 0.25 0.25 0.26 0.29 0.41 0.58 0.41 0.11 0.02 0.04 0.06 0.10 0.15 0.20 0.21 0.22 0.23 0.26 0.31 0.37 0.39 0.43 0.56 0.86 1.46 2.41 3.38 3.54 2.79 1.91 1.36 1.24 1.53 1.84 2.19
0.28 0.31 0.33 0.35 0.35 0.33 0.34 0.36 0.45 0.53 0.31 0.05 0.04 0.08 0.13 0.17 0.22 0.20 0.22 0.25 0.24 0.26 0.29 0.33 0.37 0.47 0.66 0.95 1.53 2.40 3.23 3.40 2.81 2.06 1.61 1.60 1.79 2.02
0.32 0.39 0.43 0.46 0.50 0.48 0.46 0.42 0.40 0.45 0.43 0.11 0.03 0.06 0.14 0.20 0.21 0.21 0.23 0.22 0.19 0.20 0.23 0.28 0.33 0.41 0.56 0.76 1.07 1.63 2.43 3.12 3.28 2.85 2.36 2.01 1.90 1.90
0.42 0.44 0.46 0.50 0.56 0.58 0.59 0.53 0.43 0.37 0.41 0.26 0.07 0.06 0.11 0.21 0.27 0.26 0.25 0.23 0.20 0.20 0.23 0.27 0.31 0.39 0.50 0.65 0.86 1.17 1.76 2.40 2.94 3.05 2.76 2.33 2.07 2.07
0.68 0.68 0.63 0.58 0.60 0.60 0.63 0.61 0.51 0.42 0.38 0.36 0.19 0.10 0.12 0.21 0.33 0.36 0.32 0.28 0.24 0.23 0.24 0.27 0.29 0.34 0.41 0.52 0.69 0.90 1.18 1.61 2.10 2.68 2.89 2.65 2.29 2.15
0.74 0.79 0.80 0.83 0.78 0.73 0.71 0.67 0.62 0.58 0.50 0.47 0.35 0.22 0.18 0.23 0.39 0.47 0.42 0.34 0.31 0.28 0.28 0.27 0.29 0.32 0.34 0.36 0.41 0.58 0.83 1.21 1.66 2.16 2.63 2.73 2.45 2.23
0.54 0.57 0.67 0.83 0.92 0.97 1.01 0.91 0.86 0.89 0.80 0.71 0.58 0.44 0.34 0.37 0.48 0.54 0.60 0.52 0.43 0.38 0.35 0.29 0.27 0.25 0.25 0.28 0.34 0.43 0.59 0.80 1.11 1.56 2.04 2.42 2.48 2.33
0.37 0.36 0.39 0.56 0.67 0.79 0.94 0.97 1.03 1.17 1.21 1.09 0.88 0.69 0.48 0.44 0.50 0.65 0.77 0.82 0.69 0.45 0.45 0.42 0.37 0.33 0.27 0.23 0.26 0.31 0.42 0.60 0.80 1.11 1.51 1.94 2.22 2.35
0.21 0.22 0.23 0.32 0.43 0.48 0.58 0.68 0.79 0.95 1.17 1.26 1.19 0.87 0.61 0.48 0.60 0.75 0.79 0.85 0.75 0.61 0.65 0.72 0.61 0.50 0.38 0.34 0.35 0.33 0.37 0.48 0.63 0.84 1.12 1.51 1.87 2.13
0.16 0.15 0.12 0.17 0.31 0.43 0.54 0.56 0.57 0.69 0.97 1.21 1.34 1.15 0.90 0.76 0.85 1.01 1.07 1.04 0.92 0.85 0.87 1.02 0.89 0.72 0.59 0.49 0.42 0.36 0.38 0.42 0.53 0.66 0.87 1.16 1.53 1.84
0.14 0.16 0.12 0.10 0.25 0.41 0.45 0.42 0.38 0.46 0.61 0.90 1.10 1.13 1.08 1.10 1.17 1.39 1.52 1.46 1.35 1.16 1.06 1.14 1.16 1.04 0.90 0.79 0.62 0.48 0.43 0.43 0.48 0.59 0.70 0.90 1.22 1.65
0.12 0.13 0.18 0.22 0.31 0.37 0.35 0.35 0.41 0.38 0.38 0.45 0.55 0.65 0.74 0.82 1.02 1.30 1.46 1.50 1.49 1.51 1.24 1.13 1.30 1.36 1.45 1.18 0.85 0.56 0.46 0.50 0.52 0.56 0.64 0.75 0.99 1.31
0.19 0.18 0.17 0.23 0.28 0.31 0.34 0.34 0.41 0.39 0.36 0.44 0.46 0.47 0.54 0.66 0.80 1.05 1.31 1.45 1.54 1.54 1.27 1.19 1.42 1.37 1.44 1.41 1.14 0.81 0.51 0.46 0.50 0.59 0.67 0.72 0.84 0.98
0.21 0.16 0.16 0.19 0.24 0.28 0.29 0.31 0.33 0.36 0.39 0.41 0.38 0.39 0.47 0.58 0.70 0.88 1.10 1.27 1.34 1.36 1.22 1.18 1.47 1.37 1.23 1.19 1.18 1.08 0.78 0.56 0.47 0.49 0.56 0.78 0.92 0.96
0.28 0.25 0.20 0.21 0.21 0.18 0.18 0.23 0.27 0.29 0.37 0.39 0.34 0.31 0.38 0.51 0.60 0.71 0.86 1.04 1.17 1.23 1.25 1.21 1.34 1.39 1.32 1.19 1.00 0.96 0.94 0.83 0.60 0.52 0.56 0.63 0.72 0.82
0.27 0.23 0.19 0.18 0.15 0.12 0.10 0.12 0.16 0.22 0.29 0.33 0.29 0.26 0.29 0.40 0.52 0.65 0.80 0.95 1.12 1.18 1.22 1.30 1.40 1.57 1.56 1.26 1.06 0.92 0.79 0.88 0.76 0.58 0.58 0.65 0.65 0.60
0.35 0.30 0.22 0.18 0.17 0.14 0.10 0.08 0.09 0.14 0.20 0.23 0.25 0.27 0.30 0.37 0.45 0.57 0.77 0.92 1.07 1.11 1.21 1.42 1.55 1.63 1.69 1.62 1.46 1.07 0.79 0.71 0.69 0.59 0.62 0.75 0.81 0.70
0.38 0.35 0.22 0.16 0.15 0.14 0.12 0.10 0.08 0.10 0.13 0.18 0.24 0.27 0.31 0.38 0.44 0.51 0.68 0.87 0.99 1.03 1.13 1.34 1.56 1.72 1.91 2.00 1.75 1.27 0.92 0.79 0.76 0.69 0.63 0.72 0.88 0.83
0.27 0.22 0.16 0.13 0.13 0.12 0.12 0.11 0.10 0.08 0.12 0.17 0.20 0.23 0.28 0.33 0.40 0.47 0.57 0.72 0.86 0.97 1.08 1.21 1.41 1.59 1.72 1.85 1.94 1.57 1.14 0.94 0.92 0.93 0.82 0.69 0.73 0.80
0.15 0.16 0.15 0.14 0.14 0.14 0.13 0.12 0.11 0.11 0.14 0.15 0.16 0.18 0.23 0.30 0.35 0.40 0.47 0.62 0.76 0.89 1.01 1.11 1.27 1.41 1.44 1.41 1.54 1.66 1.52 1.15 0.98 1.01 0.97 0.89 0.88 0.99
0.12 0.12 0.13 0.15 0.15 0.14 0.14 0.13 0.13 0.13 0.12 0.13 0.14 0.15 0.18 0.26 0.31 0.34 0.41 0.51 0.67 0.80 0.88 0.98 1.11 1.25 1.40 1.40 1.34 1.37 1.54 1.54 1.16 0.93 0.90 0.98 1.11 1.15
0.12 0.13 0.13 0.14 0.15 0.16 0.15 0.15 0.14 0.12 0.12 0.13 0.13 0.13 0.15 0.21 0.26 0.29 0.36 0.45 0.55 0.67 0.78 0.88 1.02 1.23 1.45 1.50 1.37 1.24 1.37 1.60 1.63 1.33 1.04 0.88 0.86 0.85
0.17 0.16 0.15 0.15 0.15 0.15 0.16 0.15 0.14 0.11 0.10 0.11 0.11 0.11 0.13 0.16 0.18 0.23 0.30 0.37 0.47 0.58 0.72 0.86 1.00 1.19 1.39 1.46 1.43 1.27 1.22 1.36 1.51 1.52 1.48 1.21 0.83 0.57

GEFSNE_prec_meanprecacc_108.txt.gz
Total_Precipitation_Accumulation
0.23 0.25 0.28 0.25 0.25 0.26 0.29 0.41 0.58 0.41 0.11 0.02 0.04 0.06 0.10 0.15 0.20 0.21 0.22 0.23 0.26 0.32 0.37 0.39 0.43 0.57 0.87 1.47 2.42 3.40 3.56 2.82 1.93 1.38 1.26 1.55 1.87 2.22
0.28 0.31 0.33 0.35 0.35 0.33 0.34 0.36 0.45 0.54 0.31 0.05 0.04 0.08 0.13 0.17 0.22 0.20 0.22 0.25 0.24 0.26 0.29 0.33 0.38 0.48 0.67 0.97 1.55 2.43 3.26 3.43 2.85 2.09 1.65 1.64 1.84 2.06
0.32 0.39 0.43 0.46 0.50 0.48 0.46 0.42 0.40 0.45 0.43 0.11 0.03 0.06 0.14 0.20 0.21 0.21 0.23 0.22 0.19 0.20 0.23 0.28 0.34 0.43 0.57 0.78 1.09 1.66 2.46 3.15 3.32 2.89 2.40 2.06 1.96 1.96
0.42 0.44 0.46 0.50 0.56 0.58 0.59 0.53 0.43 0.37 0.41 0.26 0.07 0.06 0.11 0.21 0.27 0.26 0.25 0.23 0.20 0.20 0.23 0.27 0.32 0.40 0.51 0.67 0.88 1.20 1.79 2.44 2.98 3.09 2.81 2.38 2.12 2.12
0.68 0.68 0.63 0.58 0.60 0.60 0.63 0.61 0.51 0.42 0.38 0.36 0.20 0.10 0.12 0.21 0.33 0.36 0.32 0.28 0.24 0.23 0.24 0.27 0.29 0.34 0.42 0.54 0.71 0.93 1.21 1.64 2.13 2.71 2.92 2.68 2.33 2.19
0.74 0.79 0.80 0.83 0.78 0.73 0.71 0.67 0.62 0.58 0.51 0.48 0.36 0.22 0.19 0.23 0.40 0.48 0.42 0.34 0.31 0.28 0.28 0.27 0.29 0.32 0.35 0.37 0.43 0.59 0.85 1.22 1.67 2.17 2.65 2.75 2.47 2.25
0.54 0.57 0.67 0.83 0.92 0.97 1.01 0.92 0.87 0.90 0.82 0.73 0.60 0.45 0.35 0.38 0.49 0.55 0.61 0.52 0.44 0.38 0.36 0.29 0.28 0.25 0.25 0.28 0.34 0.44 0.59 0.80 1.12 1.58 2.06 2.44 2.50 2.34
0.37 0.36 0.39 0.56 0.67 0.79 0.94 0.98 1.04 1.18 1.23 1.12 0.91 0.72 0.50 0.45 0.52 0.66 0.79 0.84 0.70 0.45 0.46 0.42 0.37 0.34 0.27 0.24 0.26 0.31 0.43 0.61 0.82 1.13 1.53 1.96 2.24 2.38
0.21 0.22 0.23 0.32 0.43 0.48 0.58 0.68 0.79 0.96 1.18 1.28 1.22 0.89 0.63 0.49 0.62 0.78 0.82 0.88 0.77 0.63 0.67 0.74 0.61 0.51 0.39 0.34 0.35 0.33 0.38 0.49 0.66 0.86 1.15 1.54 1.90 2.16
0.16 0.15 0.12 0.17 0.31 0.44 0.54 0.57 0.57 0.69 0.97 1.22 1.35 1.16 0.92 0.78 0.88 1.07 1.14 1.11 0.96 0.86 0.89 1.04 0.90 0.72 0.59 0.49 0.42 0.37 0.39 0.44 0.55 0.69 0.89 1.19 1.56 1.86
0.14 0.16 0.12 0.11 0.25 0.42 0.47 0.44 0.39 0.46 0.62 0.91 1.12 1.16 1.12 1.14 1.22 1.45 1.58 1.51 1.38 1.17 1.06 1.15 1.16 1.04 0.90 0.79 0.62 0.49 0.43 0.44 0.49 0.60 0.72 0.92 1.24 1.67
0.12 0.13 0.18 0.22 0.32 0.39 0.37 0.38 0.44 0.40 0.40 0.47 0.57 0.66 0.76 0.83 1.04 1.32 1.49 1.53 1.51 1.52 1.24 1.14 1.31 1.38 1.47 1.19 0.85 0.56 0.47 0.50 0.52 0.57 0.65 0.77 1.01 1.34
0.19 0.18 0.17 0.24 0.29 0.33 0.36 0.37 0.45 0.43 0.41 0.48 0.50 0.50 0.55 0.67 0.80 1.05 1.32 1.47 1.56 1.55 1.27 1.21 1.44 1.39 1.47 1.42 1.15 0.81 0.52 0.47 0.51 0.60 0.68 0.73 0.85 0.99
0.21 0.16 0.17 0.20 0.26 0.30 0.32 0.34 0.36 0.39 0.42 0.43 0.40 0.41 0.47 0.58 0.71 0.89 1.10 1.27 1.35 1.37 1.22 1.20 1.51 1.40 1.27 1.22 1.19 1.08 0.79 0.57 0.48 0.50 0.57 0.78 0.93 0.97
0.29 0.26 0.21 0.22 0.23 0.19 0.19 0.24 0.28 0.30 0.38 0.40 0.35 0.32 0.39 0.52 0.60 0.72 0.86 1.05 1.17 1.23 1.26 1.22 1.37 1.43 1.36 1.22 1.02 0.97 0.95 0.84 0.60 0.52 0.56 0.64 0.72 0.82
0.28 0.24 0.21 0.19 0.16 0.12 0.11 0.13 0.17 0.23 0.30 0.35 0.31 0.27 0.30 0.40 0.53 0.66 0.81 0.95 1.13 1.18 1.22 1.30 1.41 1.60 1.58 1.28 1.08 0.94 0.81 0.89 0.77 0.58 0.59 0.65 0.65 0.60
0.38 0.34 0.25 0.20 0.18 0.15 0.11 0.09 0.10 0.15 0.21 0.24 0.26 0.28 0.31 0.38 0.46 0.58 0.78 0.93 1.08 1.11 1.22 1.42 1.55 1.64 1.71 1.63 1.47 1.08 0.80 0.73 0.69 0.60 0.62 0.75 0.81 0.70
0.41 0.38 0.24 0.17 0.16 0.15 0.13 0.11 0.09 0.11 0.14 0.18 0.24 0.28 0.32 0.39 0.45 0.53 0.69 0.88 0.99 1.03 1.13 1.34 1.56 1.73 1.92 2.01 1.75 1.28 0.94 0.81 0.77 0.69 0.64 0.72 0.89 0.83
0.29 0.24 0.17 0.14 0.14 0.13 0.13 0.12 0.11 0.09 0.12 0.18 0.21 0.24 0.29 0.35 0.42 0.49 0.58 0.73 0.87 0.98 1.08 1.21 1.42 1.60 1.73 1.86 1.95 1.58 1.15 0.95 0.93 0.94 0.82 0.70 0.73 0.80
0.15 0.16 0.16 0.14 0.15 0.15 0.14 0.14 0.12 0.12 0.14 0.16 0.17 0.19 0.25 0.32 0.37 0.41 0.49 0.63 0.77 0.89 1.01 1.12 1.28 1.42 1.45 1.42 1.55 1.67 1.52 1.16 0.99 1.02 0.97 0.89 0.89 1.00
0.12 0.13 0.14 0.16 0.16 0.15 0.15 0.14 0.14 0.14 0.13 0.14 0.15 0.16 0.20 0.28 0.32 0.35 0.42 0.52 0.68 0.80 0.89 0.98 1.12 1.26 1.41 1.41 1.35 1.38 1.55 1.54 1.16 0.94 0.91 0.99 1.12 1.16
0.13 0.14 0.14 0.15 0.16 0.17 0.16 0.16 0.16 0.14 0.13 0.14 0.14 0.14 0.17 0.23 0.28 0.31 0.38 0.46 0.56 0.68 0.78 0.88 1.02 1.24 1.46 1.51 1.38 1.24 1.38 1.61 1.63 1.33 1.05 0.88 0.87 0.86
0.18 0.17 0.16 0.16 0.16 0.16 0.17 0.16 0.15 0.13 0.11 0.12 0.13 0.13 0.14 0.17 0.19 0.25 0.31 0.38 0.48 0.58 0.72 0.87 1.00 1.20 1.39 1.46 1.44 1.28 1.23 1.36 1.51 1.53 1.49 1.21 0.83 0.58

GEFSNE_prec_meanprecacc_114.txt.gz
Total_Precipitation_Accumulation
0.23 0.25 0.28 0.25 0.25 0.26 0.29 0.41 0.58 0.41 0.11 0.02 0.04 0.06 0.10 0.15 0.20 0.21 0.22 0.23 0.26 0.32 0.37 0.39 0.44 0.57 0.88 1.48 2.43 3.42 3.57 2.83 1.95 1.40 1.28 1.58 1.89 2.25
0.28 0.31 0.33 0.35 0.35 0.33 0.34 0.36 0.45 0.54 0.31 0.05 0.04 0.08 0.13 0.17 0.22 0.20 0.22 0.25 0.24 0.26 0.29 0.34 0.38 0.49 0.68 0.98 1.56 2.44 3.27 3.45 2.87 2.12 1.68 1.68 1.88 2.10
0.32 0.39 0.43 0.46 0.50 0.48 0.46 0.42 0.40 0.45 0.43 0.11 0.03 0.06 0.14 0.20 0.21 0.21 0.23 0.22 0.19 0.20 0.24 0.28 0.34 0.43 0.58 0.79 1.11 1.68 2.48 3.17 3.35 2.92 2.44 2.10 2.00 2.00
0.42 0.44 0.46 0.50 0.56 0.58 0.59 0.53 0.43 0.37 0.41 0.26 0.07 0.06 0.11 0.21 0.27 0.26 0.25 0.23 0.20 0.20 0.23 0.28 0.33 0.41 0.52 0.68 0.90 1.21 1.81 2.46 3.00 3.12 2.84 2.42 2.16 2.17
0.68 0.68 0.63 0.58 0.60 0.60 0.63 0.61 0.51 0.42 0.38 0.36 0.20 0.10 0.12 0.21 0.33 0.36 0.32 0.28 0.24 0.23 0.24 0.27 0.29 0.35 0.43 0.55 0.72 0.94 1.23 1.66 2.15 2.74 2.95 2.71 2.36 2.23
0.74 0.79 0.80 0.83 0.78 0.73 0.71 0.67 0.62 0.58 0.51 0.48 0.36 0.23 0.19 0.24 0.40 0.48 0.42 0.35 0.31 0.28 0.28 0.27 0.29 0.33 0.35 0.37 0.43 0.60 0.85 1.24 1.69 2.19 2.67 2.78 2.49 2.27
0.54 0.57 0.67 0.83 0.92 0.97 1.01 0.92 0.87 0.90 0.82 0.74 0.61 0.46 0.36 0.39 0.50 0.56 0.62 0.53 0.44 0.38 0.36 0.29 0.28 0.25 0.25 0.28 0.35 0.44 0.60 0.82 1.14 1.60 2.09 2.47 2.53 2.37
0.37 0.36 0.39 0.56 0.67 0.79 0.94 0.98 1.04 1.19 1.24 1.13 0.92 0.74 0.51 0.46 0.53 0.68 0.80 0.85 0.71 0.46 0.46 0.43 0.37 0.34 0.27 0.24 0.26 0.32 0.44 0.63 0.84 1.16 1.56 1.99 2.27 2.41
0.21 0.22 0.23 0.32 0.43 0.48 0.58 0.68 0.79 0.96 1.19 1.29 1.24 0.91 0.64 0.50 0.63 0.79 0.84 0.90 0.80 0.64 0.69 0.75 0.62 0.51 0.39 0.34 0.35 0.34 0.40 0.51 0.68 0.88 1.17 1.57 1.93 2.20
0.16 0.15 0.12 0.17 0.31 0.44 0.54 0.57 0.58 0.70 0.98 1.23 1.36 1.17 0.93 0.79 0.90 1.09 1.18 1.15 0.99 0.87 0.90 1.06 0.90 0.73 0.60 0.50 0.43 0.38 0.40 0.46 0.57 0.71 0.92 1.22 1.59 1.90
0.14 0.16 0.12 0.11 0.25 0.43 0.47 0.44 0.40 0.47 0.63 0.92 1.14 1.18 1.14 1.17 1.26 1.50 1.63 1.57 1.42 1.18 1.07 1.17 1.17 1.04 0.90 0.79 0.63 0.49 0.44 0.45 0.50 0.62 0.74 0.94 1.26 1.69
0.12 0.13 0.18 0.22 0.32 0.40 0.38 0.39 0.45 0.41 0.41 0.48 0.58 0.68 0.77 0.84 1.05 1.34 1.51 1.56 1.55 1.55 1.25 1.15 1.32 1.39 1.48 1.19 0.85 0.56 0.47 0.50 0.53 0.58 0.67 0.79 1.03 1.36
0.19 0.18 0.17 0.24 0.30 0.33 0.37 0.38 0.47 0.45 0.43 0.51 0.53 0.52 0.56 0.68 0.81 1.06 1.33 1.49 1.59 1.58 1.28 1.23 1.46 1.41 1.49 1.43 1.15 0.81 0.52 0.47 0.51 0.61 0.69 0.75 0.87 1.01
0.21 0.17 0.17 0.21 0.26 0.32 0.33 0.35 0.38 0.41 0.44 0.45 0.42 0.42 0.48 0.59 0.72 0.90 1.11 1.28 1.36 1.39 1.23 1.22 1.54 1.42 1.29 1.23 1.19 1.08 0.79 0.58 0.49 0.51 0.59 0.80 0.94 0.98
0.29 0.27 0.22 0.23 0.24 0.20 0.20 0.26 0.29 0.31 0.39 0.42 0.36 0.33 0.40 0.53 0.61 0.72 0.87 1.06 1.18 1.24 1.26 1.23 1.38 1.44 1.39 1.25 1.04 0.98 0.96 0.85 0.61 0.54 0.58 0.65 0.74 0.83
0.28 0.25 0.22 0.20 0.17 0.13 0.12 0.14 0.17 0.23 0.31 0.36 0.32 0.28 0.30 0.41 0.54 0.67 0.82 0.97 1.14 1.19 1.23 1.31 1.42 1.61 1.60 1.29 1.10 0.95 0.82 0.91 0.78 0.59 0.59 0.66 0.66 0.60
0.39 0.35 0.26 0.20 0.19 0.16 0.12 0.09 0.11 0.16 0.22 0.25 0.27 0.28 0.31 0.39 0.47 0.59 0.79 0.95 1.10 1.12 1.22 1.43 1.56 1.64 1.71 1.64 1.49 1.10 0.81 0.73 0.70 0.61 0.63 0.76 0.81 0.70
0.42 0.40 0.25 0.18 0.17 0.16 0.14 0.12 0.10 0.12 0.15 0.19 0.25 0.29 0.33 0.40 0.46 0.54 0.71 0.90 1.01 1.04 1.14 1.35 1.57 1.74 1.93 2.01 1.76 1.29 0.95 0.82 0.78 0.70 0.65 0.73 0.89 0.84
0.30 0.24 0.17 0.15 0.14 0.14 0.14 0.13 0.11 0.09 0.13 0.19 0.22 0.25 0.30 0.36 0.43 0.50 0.60 0.75 0.89 0.99 1.09 1.22 1.43 1.62 1.74 1.87 1.96 1.58 1.16 0.96 0.94 0.95 0.83 0.70 0.74 0.81
0.15 0.16 0.16 0.15 0.15 0.16 0.15 0.14 0.13 0.13 0.15 0.17 0.18 0.20 0.25 0.33 0.38 0.43 0.50 0.65 0.78 0.91 1.02 1.13 1.29 1.44 1.47 1.43 1.56 1.67 1.53 1.17 1.00 1.03 0.98 0.89 0.89 1.01
0.12 0.13 0.14 0.17 0.17 0.16 0.15 0.15 0.15 0.15 0.13 0.15 0.16 0.17 0.21 0.29 0.34 0.36 0.43 0.54 0.69 0.82 0.90 0.99 1.12 1.26 1.42 1.42 1.36 1.38 1.56 1.55 1.17 0.94 0.91 1.00 1.13 1.17
0.14 0.15 0.15 0.15 0.17 0.17 0.17 0.17 0.17 0.15 0.14 0.15 0.15 0.15 0.18 0.24 0.29 0.32 0.39 0.47 0.58 0.69 0.79 0.89 1.02 1.25 1.47 1.52 1.38 1.25 1.39 1.61 1.64 1.34 1.05 0.89 0.88 0.88
0.18 0.18 0.17 0.16 0.16 0.17 0.18 0.17 0.16 0.14 0.12 0.13 0.13 0.13 0.15 0.18 0.20 0.26 0.32 0.40 0.49 0.60 0.73 0.87 1.01 1.20 1.40 1.47 1.44 1.29 1.23 1.37 1.52 1.53 1.49 1.22 0.83 0.58

GEFSNE_prec_meanprecacc_120.txt.gz
Total_Precipitation_Accumulation
0.23 0.25 0.28 0.25 0.25 0.26 0.29 0.41 0.58 0.41 0.11 0.02 0.04 0.06 0.10 0.15 0.20 0.21 0.22 0.23 0.26 0.32 0.37 0.40 0.44 0.58 0.89 1.49 2.45 3.43 3.59 2.85 1.96 1.42 1.31 1.61 1.92 2.28
0.28 0.31 0.33 0.35 0.35 0.33 0.34 0.36 0.45 0.54 0.31 0.05 0.04 0.08 0.13 0.17 0.22 0.20 0.22 0.25 0.24 0.26 0.29 0.34 0.39 0.50 0.69 0.99 1.57 2.46 3.29 3.47 2.90 2.15 1.71 1.71 1.91 2.14
0.32 0.39 0.43 0.46 0.50 0.48 0.46 0.42 0.40 0.45 0.43 0.11 0.03 0.06 0.14 0.20 0.21 0.21 0.23 0.22 0.19 0.20 0.24 0.29 0.35 0.44 0.59 0.80 1.12 1.69 2.50 3.20 3.37 2.95 2.47 2.13 2.04 2.05
0.42 0.44 0.46 0.50 0.56 0.58 0.59 0.53 0.43 0.37 0.41 0.26 0.07 0.06 0.11 0.21 0.27 0.26 0.25 0.23 0.20 0.20 0.23 0.28 0.33 0.42 0.53 0.70 0.91 1.23 1.83 2.48 3.02 3.14 2.86 2.45 2.20 2.21
0.68 0.68 0.63 0.58 0.60 0.60 0.63 0.61 0.51 0.42 0.38 0.36 0.20 0.10 0.12 0.21 0.33 0.36 0.32 0.28 0.24 0.23 0.24 0.27 0.29 0.35 0.44 0.56 0.74 0.96 1.24 1.67 2.16 2.75 2.97 2.74 2.39 2.27
0.74 0.79 0.80 0.83 0.78 0.73 0.71 0.67 0.62 0.58 0.51 0.48 0.36 0.23 0.19 0.24 0.40 0.49 0.43 0.35 0.31 0.28 0.28 0.27 0.29 0.33 0.36 0.38 0.44 0.61 0.86 1.24 1.70 2.22 2.71 2.81 2.53 2.31
0.54 0.57 0.67 0.83 0.92 0.97 1.01 0.92 0.87 0.91 0.82 0.74 0.61 0.46 0.36 0.39 0.50 0.56 0.63 0.53 0.44 0.38 0.36 0.29 0.28 0.25 0.25 0.28 0.35 0.44 0.61 0.83 1.16 1.63 2.12 2.51 2.56 2.41
0.37 0.36 0.39 0.56 0.67 0.79 0.94 0.98 1.04 1.19 1.24 1.13 0.92 0.74 0.52 0.46 0.53 0.68 0.81 0.86 0.72 0.46 0.46 0.43 0.37 0.34 0.27 0.24 0.26 0.33 0.45 0.65 0.87 1.19 1.59 2.02 2.30 2.44
0.21 0.22 0.23 0.32 0.43 0.48 0.58 0.68 0.79 0.96 1.19 1.30 1.24 0.91 0.64 0.50 0.64 0.80 0.85 0.92 0.81 0.64 0.70 0.77 0.62 0.51 0.39 0.34 0.36 0.35 0.41 0.53 0.70 0.91 1.20 1.60 1.96 2.23
0.16 0.15 0.12 0.17 0.31 0.44 0.54 0.57 0.58 0.70 0.98 1.23 1.37 1.17 0.93 0.80 0.91 1.11 1.20 1.19 1.02 0.89 0.91 1.08 0.91 0.73 0.60 0.50 0.43 0.38 0.41 0.46 0.58 0.72 0.94 1.25 1.62 1.93
0.14 0.16 0.12 0.11 0.25 0.43 0.48 0.44 0.40 0.47 0.63 0.92 1.14 1.19 1.16 1.19 1.28 1.53 1.67 1.61 1.45 1.19 1.07 1.18 1.17 1.05 0.90 0.79 0.63 0.49 0.44 0.45 0.51 0.63 0.76 0.97 1.29 1.72
0.12 0.13 0.18 0.22 0.32 0.40 0.38 0.39 0.45 0.41 0.41 0.48 0.58 0.68 0.78 0.85 1.07 1.36 1.53 1.59 1.57 1.57 1.26 1.16 1.33 1.40 1.49 1.19 0.85 0.56 0.47 0.50 0.53 0.59 0.68 0.81 1.06 1.37
0.19 0.18 0.17 0.24 0.30 0.34 0.38 0.38 0.47 0.46 0.44 0.52 0.54 0.53 0.57 0.68 0.82 1.07 1.34 1.51 1.62 1.60 1.30 1.26 1.49 1.43 1.51 1.45 1.15 0.81 0.52 0.47 0.51 0.61 0.70 0.76 0.89 1.03
0.21 0.17 0.17 0.21 0.27 0.32 0.33 0.36 0.39 0.42 0.45 0.46 0.42 0.42 0.49 0.60 0.73 0.91 1.12 1.29 1.37 1.40 1.24 1.23 1.57 1.44 1.32 1.25 1.19 1.08 0.79 0.58 0.49 0.51 0.59 0.81 0.96 1.00
0.29 0.27 0.22 0.23 0.25 0.20 0.20 0.26 0.30 0.31 0.40 0.42 0.37 0.34 0.41 0.54 0.62 0.73 0.87 1.06 1.18 1.24 1.26 1.23 1.39 1.46 1.41 1.27 1.04 0.98 0.96 0.85 0.62 0.54 0.59 0.66 0.74 0.84
0.28 0.25 0.22 0.21 0.17 0.13 0.12 0.14 0.17 0.23 0.32 0.37 0.33 0.29 0.31 0.42 0.54 0.67 0.82 0.97 1.15 1.19 1.23 1.31 1.42 1.62 1.62 1.30 1.11 0.96 0.82 0.92 0.79 0.60 0.60 0.66 0.66 0.61
0.40 0.36 0.27 0.21 0.19 0.16 0.12 0.10 0.11 0.17 0.23 0.26 0.28 0.29 0.32 0.39 0.47 0.59 0.80 0.95 1.10 1.12 1.22 1.43 1.56 1.64 1.72 1.65 1.49 1.10 0.82 0.74 0.71 0.61 0.63 0.76 0.81 0.71
0.42 0.40 0.25 0.18 0.17 0.16 0.15 0.12 0.10 0.12 0.15 0.20 0.26 0.29 0.34 0.40 0.47 0.54 0.71 0.91 1.02 1.05 1.14 1.35 1.57 1.74 1.93 2.01 1.77 1.30 0.95 0.82 0.78 0.71 0.65 0.74 0.89 0.84
0.30 0.25 0.17 0.15 0.14 0.14 0.14 0.13 0.12 0.10 0.13 0.19 0.23 0.25 0.30 0.36 0.43 0.50 0.60 0.75 0.89 0.99 1.10 1.22 1.43 1.63 1.75 1.87 1.96 1.58 1.17 0.97 0.94 0.95 0.84 0.71 0.74 0.81
0.15 0.16 0.16 0.15 0.15 0.16 0.15 0.15 0.13 0.13 0.15 0.17 0.18 0.20 0.26 0.33 0.39 0.43 0.51 0.65 0.79 0.91 1.03 1.13 1.29 1.44 1.48 1.45 1.57 1.68 1.53 1.17 1.01 1.03 0.99 0.90 0.90 1.01
0.12 0.13 0.14 0.17 0.17 0.16 0.16 0.15 0.15 0.15 0.14 0.16 0.16 0.17 0.21 0.30 0.34 0.37 0.44 0.54 0.70 0.82 0.90 0.99 1.12 1.27 1.43 1.43 1.36 1.38 1.56 1.55 1.18 0.95 0.92 1.00 1.14 1.17
0.14 0.15 0.15 0.16 0.17 0.18 0.17 0.17 0.17 0.15 0.14 0.15 0.15 0.16 0.18 0.24 0.29 0.32 0.39 0.47 0.58 0.70 0.80 0.89 1.03 1.25 1.48 1.53 1.39 1.26 1.40 1.62 1.64 1.34 1.06 0.90 0.89 0.90
0.19 0.18 0.17 0.17 0.17 0.18 0.18 0.18 0.17 0.14 0.12 0.13 0.14 0.14 0.16 0.19 0.21 0.26 0.33 0.40 0.49 0.60 0.74 0.88 1.02 1.21 1.41 1.47 1.45 1.29 1.24 1.37 1.52 1.54 1.50 1.22 0.84 0.59

GEFSNE_prec_meanprecacc_126.txt.gz
Total_Precipitation_Accumulation
0.23 0.25 0.28 0.25 0.25 0.26 0.29 0.41 0.58 0.41 0.11 0.02 0.04 0.06 0.10 0.15 0.20 0.21 0.22 0.23 0.26 0.32 0.37 0.40 0.44 0.58 0.89 1.50 2.46 3.44 3.60 2.86 1.98 1.43 1.33 1.63 1.95 2.31
0.28 0.31 0.33 0.35 0.35 0.33 0.34 0.36 0.45 0.54 0.31 0.05 0.04 0.08 0.13 0.17 0.22 0.20 0.22 0.25 0.24 0.26 0.29 0.34 0.39 0.50 0.70 1.00 1.58 2.47 3.31 3.49 2.92 2.17 1.74 1.74 1.95 2.18
0.32 0.39 0.43 0.46 0.50 0.48 0.46 0.42 0.40 0.45 0.43 0.11 0.03 0.06 0.14 0.20 0.21 0.21 0.23 0.22 0.19 0.20 0.24 0.29 0.35 0.45 0.60 0.81 1.13 1.71 2.52 3.22 3.39 2.97 2.49 2.16 2.07 2.08
0.42 0.44 0.46 0.50 0.56 0.58 0.59 0.53 0.43 0.37 0.41 0.26 0.07 0.06 0.11 0.21 0.27 0.26 0.25 0.23 0.20 0.20 0.23 0.28 0.34 0.42 0.54 0.70 0.92 1.25 1.85 2.50 3.04 3.16 2.88 2.47 2.22 2.24
0.68 0.68 0.63 0.58 0.60 0.60 0.63 0.61 0.52 0.42 0.38 0.36 0.20 0.10 0.12 0.21 0.33 0.36 0.32 0.28 0.24 0.23 0.24 0.27 0.30 0.35 0.44 0.57 0.75 0.97 1.25 1.68 2.17 2.77 2.99 2.76 2.42 2.30
0.74 0.79 0.80 0.83 0.78 0.73 0.71 0.67 0.62 0.58 0.51 0.48 0.36 0.23 0.19 0.24 0.40 0.49 0.43 0.35 0.31 0.28 0.28 0.27 0.30 0.33 0.36 0.38 0.44 0.61 0.86 1.25 1.71 2.23 2.73 2.84 2.55 2.34
0.54 0.57 0.67 0.83 0.92 0.97 1.01 0.92 0.87 0.91 0.82 0.74 0.61 0.46 0.36 0.39 0.50 0.56 0.63 0.53 0.44 0.38 0.36 0.29 0.28 0.25 0.25 0.28 0.35 0.44 0.61 0.84 1.18 1.65 2.15 2.54 2.59 2.44
0.37 0.36 0.39 0.56 0.67 0.79 0.94 0.98 1.04 1.19 1.24 1.13 0.92 0.74 0.52 0.47 0.53 0.69 0.81 0.86 0.72 0.46 0.47 0.43 0.37 0.34 0.27 0.24 0.26 0.33 0.46 0.67 0.89 1.22 1.62 2.05 2.33 2.47
0.21 0.22 0.23 0.32 0.43 0.48 0.58 0.68 0.79 0.96 1.19 1.30 1.24 0.91 0.64 0.51 0.64 0.81 0.86 0.93 0.82 0.65 0.72 0.78 0.62 0.51 0.39 0.34 0.36 0.35 0.42 0.55 0.72 0.93 1.22 1.62 1.99 2.26
0.16 0.15 0.12 0.17 0.31 0.44 0.54 0.57 0.58 0.70 0.98 1.23 1.37 1.18 0.93 0.80 0.92 1.13 1.23 1.22 1.04 0.90 0.93 1.10 0.91 0.73 0.60 0.50 0.43 0.38 0.41 0.47 0.59 0.73 0.95 1.27 1.64 1.95
0.14 0.16 0.12 0.11 0.26 0.43 0.48 0.44 0.40 0.47 0.63 0.92 1.15 1.20 1.17 1.20 1.30 1.55 1.69 1.63 1.47 1.19 1.08 1.18 1.18 1.05 0.90 0.79 0.63 0.49 0.44 0.46 0.51 0.63 0.76 0.98 1.31 1.74
0.12 0.13 0.18 0.22 0.32 0.40 0.38 0.39 0.45 0.41 0.41 0.49 0.59 0.69 0.78 0.85 1.07 1.37 1.55 1.61 1.59 1.58 1.26 1.17 1.34 1.40 1.50 1.19 0.85 0.56 0.47 0.50 0.53 0.59 0.69 0.82 1.08 1.39
0.19 0.18 0.17 0.24 0.30 0.34 0.38 0.39 0.48 0.47 0.45 0.53 0.55 0.53 0.57 0.68 0.82 1.07 1.34 1.53 1.65 1.62 1.31 1.28 1.50 1.43 1.52 1.45 1.15 0.81 0.52 0.47 0.51 0.61 0.70 0.77 0.90 1.05
0.21 0.17 0.17 0.21 0.27 0.33 0.34 0.36 0.40 0.43 0.46 0.46 0.43 0.43 0.49 0.60 0.73 0.91 1.12 1.30 1.38 1.41 1.25 1.25 1.59 1.45 1.34 1.26 1.20 1.08 0.79 0.58 0.49 0.51 0.59 0.82 0.96 1.00
0.29 0.27 0.22 0.24 0.25 0.20 0.20 0.26 0.30 0.32 0.40 0.43 0.37 0.34 0.41 0.54 0.62 0.73 0.87 1.06 1.18 1.24 1.27 1.24 1.40 1.47 1.42 1.29 1.05 0.98 0.96 0.85 0.62 0.54 0.59 0.66 0.75 0.84
0.29 0.26 0.22 0.21 0.17 0.13 0.12 0.14 0.17 0.23 0.32 0.37 0.33 0.29 0.31 0.42 0.54 0.67 0.83 0.97 1.15 1.19 1.23 1.31 1.43 1.63 1.62 1.31 1.11 0.96 0.83 0.92 0.79 0.60 0.60 0.66 0.66 0.61
0.40 0.36 0.27 0.21 0.19 0.16 0.12 0.10 0.11 0.17 0.23 0.26 0.28 0.29 0.32 0.39 0.48 0.60 0.80 0.96 1.11 1.12 1.23 1.43 1.56 1.65 1.72 1.65 1.50 1.10 0.82 0.75 0.71 0.61 0.64 0.76 0.82 0.71
0.42 0.40 0.25 0.18 0.17 0.16 0.15 0.12 0.10 0.13 0.15 0.20 0.26 0.29 0.34 0.40 0.47 0.54 0.71 0.91 1.02 1.05 1.15 1.35 1.57 1.74 1.93 2.01 1.77 1.30 0.95 0.82 0.79 0.71 0.65 0.74 0.90 0.84
0.30 0.25 0.17 0.15 0.14 0.14 0.14 0.13 0.12 0.10 0.13 0.19 0.23 0.26 0.31 0.37 0.44 0.50 0.61 0.76 0.89 0.99 1.10 1.23 1.44 1.63 1.76 1.88 1.96 1.59 1.17 0.97 0.95 0.95 0.84 0.72 0.75 0.82
0.15 0.16 0.16 0.15 0.15 0.16 0.15 0.15 0.14 0.13 0.15 0.17 0.18 0.20 0.26 0.34 0.39 0.44 0.51 0.66 0.79 0.91 1.03 1.13 1.29 1.45 1.50 1.46 1.57 1.68 1.54 1.18 1.02 1.04 0.99 0.90 0.91 1.02
0.12 0.13 0.14 0.17 0.17 0.16 0.16 0.15 0.15 0.15 0.14 0.16 0.17 0.18 0.22 0.30 0.35 0.37 0.44 0.55 0.71 0.83 0.91 0.99 1.13 1.27 1.43 1.44 1.37 1.39 1.57 1.56 1.18 0.96 0.93 1.01 1.14 1.18
0.14 0.15 0.15 0.16 0.17 0.18 0.18 0.17 0.17 0.15 0.14 0.15 0.15 0.16 0.19 0.25 0.30 0.33 0.40 0.48 0.58 0.70 0.80 0.89 1.03 1.25 1.48 1.54 1.40 1.26 1.40 1.62 1.64 1.34 1.06 0.91 0.91 0.92
0.19 0.18 0.17 0.17 0.17 0.18 0.19 0.18 0.17 0.14 0.12 0.13 0.14 0.14 0.16 0.20 0.22 0.27 0.33 0.40 0.50 0.60 0.74 0.88 1.02 1.21 1.41 1.48 1.45 1.29 1.24 1.37 1.52 1.54 1.50 1.23 0.85 0.60

GEFSNE_prec_meanprecacc_132.txt.gz
Total_Precipitation_Accumulation
0.24 0.25 0.28 0.25 0.25 0.27 0.29 0.41 0.58 0.41 0.11 0.02 0.04 0.06 0.10 0.15 0.20 0.21 0.22 0.23 0.26 0.32 0.37 0.40 0.44 0.58 0.90 1.51 2.46 3.45 3.61 2.88 1.99 1.45 1.35 1.66 1.99 2.35
0.28 0.31 0.34 0.35 0.35 0.33 0.34 0.36 0.45 0.54 0.32 0.05 0.04 0.08 0.13 0.17 0.22 0.20 0.22 0.25 0.24 0.26 0.29 0.34 0.39 0.51 0.70 1.01 1.59 2.48 3.32 3.51 2.94 2.20 1.77 1.77 1.99 2.22
0.32 0.39 0.43 0.46 0.50 0.48 0.46 0.42 0.40 0.45 0.43 0.11 0.03 0.06 0.14 0.20 0.21 0.21 0.23 0.22 0.19 0.20 0.24 0.29 0.36 0.45 0.61 0.82 1.14 1.72 2.54 3.24 3.41 2.99 2.52 2.19 2.10 2.12
0.42 0.44 0.46 0.50 0.56 0.58 0.59 0.53 0.43 0.37 0.41 0.26 0.07 0.06 0.11 0.21 0.27 0.26 0.25 0.23 0.20 0.20 0.23 0.29 0.34 0.43 0.54 0.71 0.94 1.26 1.87 2.52 3.06 3.17 2.91 2.49 2.25 2.28
0.68 0.68 0.63 0.59 0.60 0.60 0.64 0.61 0.52 0.42 0.38 0.36 0.20 0.10 0.12 0.21 0.33 0.36 0.32 0.28 0.24 0.23 0.24 0.27 0.30 0.36 0.45 0.58 0.76 0.99 1.27 1.70 2.19 2.78 3.00 2.78 2.44 2.32
0.74 0.80 0.81 0.83 0.78 0.73 0.72 0.67 0.62 0.58 0.51 0.48 0.36 0.23 0.19 0.24 0.40 0.49 0.43 0.35 0.31 0.28 0.28 0.28 0.30 0.34 0.36 0.39 0.45 0.62 0.87 1.25 1.72 2.24 2.74 2.86 2.58 2.36
0.54 0.57 0.67 0.83 0.92 0.97 1.01 0.92 0.87 0.91 0.82 0.74 0.61 0.46 0.36 0.39 0.51 0.56 0.63 0.54 0.44 0.39 0.36 0.30 0.28 0.25 0.25 0.28 0.35 0.45 0.62 0.85 1.19 1.67 2.17 2.56 2.62 2.47
0.38 0.37 0.40 0.56 0.68 0.79 0.94 0.98 1.04 1.19 1.24 1.13 0.93 0.74 0.52 0.47 0.54 0.69 0.82 0.87 0.73 0.46 0.47 0.43 0.37 0.34 0.27 0.24 0.26 0.33 0.46 0.68 0.90 1.23 1.64 2.07 2.35 2.50
0.22 0.22 0.23 0.32 0.43 0.48 0.59 0.68 0.79 0.96 1.19 1.30 1.24 0.91 0.65 0.51 0.65 0.82 0.87 0.94 0.83 0.66 0.72 0.78 0.62 0.51 0.39 0.34 0.36 0.35 0.43 0.56 0.73 0.94 1.23 1.63 2.01 2.28
0.16 0.15 0.13 0.18 0.31 0.44 0.55 0.57 0.58 0.70 0.98 1.23 1.37 1.18 0.94 0.81 0.93 1.15 1.25 1.23 1.05 0.90 0.93 1.11 0.91 0.73 0.60 0.50 0.43 0.38 0.41 0.48 0.59 0.74 0.96 1.28 1.66 1.96
0.15 0.16 0.12 0.11 0.26 0.43 0.48 0.45 0.40 0.47 0.63 0.93 1.15 1.20 1.17 1.21 1.31 1.56 1.71 1.65 1.48 1.20 1.08 1.19 1.18 1.05 0.90 0.79 0.63 0.49 0.44 0.46 0.51 0.63 0.77 0.99 1.32 1.75
0.12 0.14 0.19 0.22 0.32 0.40 0.38 0.39 0.46 0.42 0.42 0.49 0.59 0.69 0.78 0.85 1.07 1.38 1.56 1.63 1.61 1.59 1.27 1.18 1.34 1.41 1.51 1.19 0.85 0.56 0.47 0.50 0.53 0.59 0.69 0.82 1.09 1.40
0.19 0.18 0.18 0.24 0.30 0.34 0.38 0.39 0.48 0.47 0.45 0.53 0.55 0.53 0.58 0.69 0.82 1.07 1.35 1.54 1.66 1.64 1.32 1.29 1.52 1.44 1.53 1.46 1.15 0.81 0.52 0.47 0.51 0.61 0.70 0.77 0.91 1.06
0.21 0.17 0.17 0.21 0.27 0.33 0.34 0.36 0.40 0.43 0.46 0.46 0.43 0.43 0.50 0.60 0.73 0.91 1.13 1.30 1.39 1.42 1.26 1.26 1.61 1.47 1.36 1.27 1.20 1.08 0.79 0.58 0.49 0.51 0.59 0.82 0.96 1.01
0.29 0.27 0.22 0.24 0.25 0.20 0.20 0.26 0.30 0.32 0.40 0.43 0.37 0.34 0.41 0.54 0.63 0.73 0.87 1.06 1.19 1.24 1.27 1.24 1.41 1.48 1.44 1.30 1.06 0.98 0.96 0.85 0.62 0.54 0.59 0.66 0.75 0.84
0.29 0.26 0.22 0.21 0.17 0.13 0.12 0.14 0.17 0.23 0.32 0.38 0.33 0.29 0.31 0.42 0.54 0.68 0.83 0.98 1.15 1.19 1.23 1.31 1.43 1.64 1.63 1.31 1.12 0.96 0.83 0.92 0.79 0.60 0.60 0.66 0.66 0.61
0.40 0.36 0.27 0.21 0.19 0.16 0.12 0.10 0.11 0.17 0.23 0.26 0.28 0.29 0.32 0.39 0.48 0.60 0.81 0.96 1.11 1.13 1.23 1.43 1.56 1.65 1.72 1.65 1.50 1.10 0.82 0.75 0.72 0.62 0.64 0.76 0.82 0.72
0.43 0.40 0.25 0.18 0.17 0.16 0.15 0.12 0.10 0.13 0.15 0.20 0.26 0.30 0.34 0.41 0.47 0.55 0.72 0.92 1.02 1.05 1.15 1.35 1.58 1.75 1.93 2.01 1.77 1.30 0.96 0.82 0.79 0.71 0.66 0.74 0.90 0.85
0.30 0.25 0.17 0.15 0.14 0.14 0.14 0.13 0.12 0.10 0.13 0.20 0.23 0.26 0.31 0.37 0.44 0.51 0.61 0.76 0.90 1.00 1.10 1.23 1.44 1.64 1.76 1.88 1.96 1.59 1.18 0.98 0.95 0.95 0.84 0.72 0.76 0.82
0.15 0.16 0.16 0.15 0.15 0.16 0.15 0.15 0.14 0.13 0.15 0.17 0.18 0.21 0.26 0.34 0.40 0.44 0.51 0.66 0.80 0.92 1.03 1.13 1.30 1.46 1.51 1.47 1.58 1.68 1.54 1.18 1.02 1.04 0.99 0.91 0.91 1.02
0.12 0.13 0.15 0.17 0.17 0.16 0.16 0.15 0.16 0.15 0.14 0.16 0.17 0.18 0.22 0.30 0.35 0.38 0.45 0.55 0.71 0.84 0.91 1.00 1.13 1.28 1.44 1.45 1.38 1.39 1.57 1.56 1.18 0.96 0.94 1.02 1.15 1.18
0.14 0.15 0.15 0.16 0.17 0.18 0.18 0.17 0.17 0.15 0.14 0.15 0.16 0.16 0.19 0.26 0.31 0.34 0.40 0.49 0.59 0.71 0.81 0.90 1.03 1.25 1.48 1.54 1.40 1.26 1.40 1.62 1.64 1.34 1.07 0.93 0.95 0.95
0.19 0.18 0.17 0.17 0.17 0.18 0.19 0.18 0.17 0.14 0.12 0.14 0.14 0.14 0.16 0.20 0.22 0.28 0.34 0.41 0.50 0.61 0.75 0.88 1.02 1.21 1.41 1.48 1.45 1.30 1.24 1.37 1.52 1.54 1.50 1.23 0.86 0.62

GEFSNE_prec_meanprecacc_138.txt.gz
Total_Precipitation_Accumulation
0.24 0.26 0.29 0.26 0.26 0.27 0.30 0.41 0.58 0.41 0.11 0.02 0.04 0.06 0.10 0.15 0.20 0.21 0.22 0.23 0.26 0.32 0.38 0.40 0.44 0.58 0.90 1.51 2.47 3.46 3.62 2.89 2.01 1.47 1.38 1.69 2.02 2.39
0.29 0.32 0.34 0.35 0.35 0.33 0.34 0.36 0.45 0.54 0.32 0.05 0.04 0.08 0.13 0.17 0.22 0.20 0.22 0.25 0.24 0.26 0.29 0.34 0.39 0.51 0.71 1.01 1.60 2.49 3.34 3.53 2.96 2.22 1.80 1.81 2.03 2.27
0.32 0.39 0.43 0.46 0.50 0.48 0.46 0.42 0.40 0.45 0.44 0.11 0.03 0.06 0.14 0.20 0.21 0.21 0.23 0.22 0.19 0.20 0.24 0.29 0.36 0.45 0.61 0.83 1.15 1.74 2.55 3.26 3.43 3.02 2.55 2.23 2.15 2.16
0.42 0.44 0.47 0.50 0.56 0.58 0.59 0.53 0.44 0.38 0.41 0.26 0.07 0.06 0.11 0.22 0.27 0.26 0.25 0.23 0.20 0.20 0.24 0.29 0.34 0.43 0.55 0.72 0.95 1.28 1.88 2.53 3.08 3.20 2.93 2.53 2.29 2.31
0.68 0.68 0.63 0.59 0.60 0.60 0.64 0.61 0.52 0.42 0.39 0.36 0.20 0.10 0.12 0.21 0.33 0.36 0.32 0.28 0.24 0.23 0.24 0.27 0.30 0.36 0.46 0.58 0.77 1.00 1.29 1.71 2.21 2.80 3.02 2.80 2.47 2.35
0.75 0.80 0.81 0.83 0.78 0.73 0.72 0.67 0.62 0.59 0.51 0.49 0.37 0.23 0.19 0.24 0.40 0.49 0.43 0.35 0.31 0.28 0.28 0.28 0.30 0.34 0.37 0.39 0.46 0.63 0.88 1.26 1.73 2.26 2.76 2.88 2.60 2.38
0.54 0.58 0.68 0.84 0.93 0.98 1.02 0.93 0.88 0.92 0.83 0.74 0.62 0.47 0.36 0.40 0.51 0.57 0.63 0.54 0.44 0.39 0.36 0.30 0.28 0.25 0.25 0.28 0.35 0.45 0.62 0.86 1.20 1.68 2.19 2.59 2.64 2.49
0.38 0.37 0.41 0.57 0.69 0.81 0.96 1.00 1.06 1.20 1.24 1.14 0.93 0.75 0.52 0.47 0.54 0.69 0.82 0.88 0.73 0.46 0.47 0.44 0.37 0.34 0.27 0.24 0.27 0.34 0.47 0.69 0.92 1.25 1.65 2.09 2.37 2.52
0.22 0.23 0.24 0.34 0.45 0.49 0.60 0.70 0.81 0.97 1.20 1.31 1.25 0.92 0.65 0.51 0.66 0.83 0.87 0.95 0.84 0.66 0.73 0.79 0.62 0.52 0.39 0.35 0.36 0.36 0.43 0.57 0.74 0.95 1.24 1.64 2.02 2.29
0.16 0.15 0.13 0.18 0.32 0.45 0.56 0.58 0.59 0.71 0.99 1.24 1.37 1.18 0.94 0.81 0.94 1.16 1.25 1.24 1.05 0.90 0.93 1.11 0.91 0.73 0.60 0.50 0.43 0.39 0.42 0.48 0.60 0.75 0.97 1.29 1.67 1.98
0.15 0.16 0.12 0.11 0.26 0.44 0.48 0.45 0.40 0.47 0.63 0.93 1.15 1.20 1.17 1.21 1.31 1.57 1.71 1.66 1.49 1.20 1.08 1.20 1.18 1.05 0.90 0.79 0.63 0.50 0.44 0.46 0.52 0.64 0.78 1.00 1.33 1.76
0.12 0.14 0.19 0.23 0.33 0.41 0.39 0.40 0.46 0.42 0.42 0.49 0.59 0.69 0.78 0.85 1.08 1.38 1.56 1.64 1.61 1.60 1.27 1.19 1.35 1.42 1.52 1.19 0.85 0.57 0.47 0.51 0.53 0.59 0.69 0.83 1.09 1.41
0.20 0.18 0.18 0.24 0.31 0.35 0.39 0.39 0.48 0.48 0.45 0.53 0.55 0.53 0.58 0.69 0.82 1.08 1.35 1.54 1.67 1.65 1.32 1.31 1.53 1.46 1.55 1.46 1.15 0.81 0.52 0.47 0.51 0.61 0.70 0.77 0.91 1.06
0.22 0.17 0.17 0.22 0.27 0.33 0.34 0.37 0.41 0.43 0.46 0.46 0.43 0.43 0.50 0.61 0.73 0.91 1.13 1.30 1.39 1.43 1.26 1.27 1.63 1.49 1.38 1.28 1.20 1.08 0.79 0.58 0.49 0.51 0.59 0.82 0.97 1.01
0.29 0.27 0.22 0.24 0.25 0.21 0.21 0.27 0.31 0.32 0.40 0.43 0.37 0.34 0.41 0.55 0.63 0.74 0.88 1.06 1.19 1.25 1.27 1.24 1.42 1.49 1.46 1.32 1.07 0.99 0.96 0.85 0.62 0.55 0.59 0.66 0.75 0.85
0.29 0.26 0.22 0.21 0.18 0.14 0.12 0.14 0.17 0.24 0.32 0.38 0.34 0.29 0.32 0.42 0.55 0.68 0.83 0.98 1.16 1.19 1.23 1.31 1.43 1.64 1.64 1.32 1.13 0.97 0.83 0.92 0.79 0.60 0.60 0.66 0.66 0.61
0.40 0.36 0.27 0.21 0.19 0.16 0.12 0.10 0.12 0.17 0.23 0.26 0.29 0.30 0.32 0.40 0.48 0.60 0.81 0.97 1.12 1.13 1.23 1.43 1.56 1.65 1.72 1.65 1.50 1.11 0.82 0.75 0.72 0.62 0.64 0.77 0.82 0.72
0.43 0.40 0.25 0.18 0.18 0.16 0.15 0.12 0.10 0.13 0.16 0.20 0.26 0.30 0.34 0.41 0.48 0.55 0.72 0.92 1.03 1.06 1.15 1.36 1.58 1.75 1.93 2.02 1.77 1.30 0.96 0.83 0.79 0.71 0.66 0.75 0.90 0.85
0.30 0.25 0.18 0.15 0.15 0.14 0.14 0.14 0.12 0.10 0.14 0.20 0.23 0.26 0.31 0.37 0.44 0.51 0.61 0.77 0.90 1.00 1.11 1.24 1.45 1.65 1.77 1.88 1.96 1.59 1.18 0.98 0.95 0.96 0.84 0.73 0.76 0.83
0.16 0.16 0.16 0.16 0.16 0.17 0.16 0.15 0.14 0.13 0.16 0.18 0.19 0.21 0.27 0.34 0.40 0.44 0.52 0.67 0.80 0.92 1.03 1.14 1.31 1.47 1.53 1.48 1.59 1.68 1.54 1.19 1.03 1.05 0.99 0.91 0.91 1.02
0.13 0.14 0.15 0.17 0.17 0.17 0.17 0.16 0.16 0.15 0.14 0.16 0.17 0.18 0.22 0.31 0.36 0.38 0.45 0.55 0.72 0.84 0.92 1.00 1.13 1.28 1.45 1.45 1.38 1.39 1.57 1.56 1.19 0.98 0.95 1.03 1.15 1.18
0.14 0.15 0.15 0.16 0.18 0.18 0.18 0.18 0.18 0.16 0.15 0.16 0.16 0.16 0.19 0.26 0.31 0.34 0.41 0.49 0.60 0.71 0.81 0.90 1.03 1.25 1.49 1.55 1.40 1.26 1.40 1.62 1.64 1.35 1.08 0.95 0.99 0.99
0.19 0.18 0.17 0.17 0.17 0.18 0.19 0.19 0.18 0.15 0.13 0.14 0.15 0.15 0.17 0.20 0.22 0.28 0.34 0.41 0.51 0.61 0.75 0.89 1.02 1.22 1.41 1.48 1.46 1.30 1.24 1.38 1.52 1.54 1.50 1.24 0.87 0.65

GEFSNE_prec_meanprecacc_144.txt.gz
Total_Precipitation_Accumulation
0.24 0.26 0.30 0.26 0.26 0.27 0.30 0.41 0.58 0.41 0.11 0.02 0.04 0.06 0.10 0.15 0.20 0.21 0.22 0.23 0.26 0.32 0.38 0.40 0.45 0.59 0.90 1.52 2.48 3.47 3.63 2.90 2.03 1.50 1.41 1.73 2.07 2.45
0.30 0.32 0.35 0.36 0.36 0.33 0.34 0.36 0.45 0.54 0.32 0.05 0.04 0.08 0.13 0.17 0.22 0.20 0.22 0.25 0.24 0.26 0.29 0.34 0.39 0.51 0.71 1.02 1.61 2.50 3.35 3.55 2.98 2.25 1.83 1.84 2.07 2.32
0.32 0.39 0.43 0.46 0.51 0.48 0.46 0.43 0.40 0.46 0.44 0.11 0.03 0.06 0.14 0.20 0.21 0.21 0.23 0.22 0.19 0.20 0.24 0.29 0.36 0.46 0.62 0.83 1.16 1.75 2.57 3.28 3.46 3.04 2.57 2.26 2.18 2.21
0.42 0.44 0.47 0.50 0.56 0.58 0.59 0.54 0.44 0.38 0.42 0.27 0.07 0.06 0.11 0.22 0.27 0.26 0.25 0.23 0.20 0.20 0.24 0.29 0.34 0.43 0.55 0.73 0.96 1.29 1.90 2.55 3.09 3.22 2.96 2.55 2.32 2.35
0.68 0.69 0.63 0.59 0.61 0.60 0.64 0.61 0.52 0.42 0.39 0.37 0.20 0.11 0.12 0.22 0.34 0.37 0.32 0.28 0.24 0.23 0.24 0.27 0.30 0.36 0.46 0.59 0.78 1.01 1.30 1.73 2.22 2.82 3.05 2.83 2.49 2.38
0.75 0.80 0.81 0.83 0.78 0.73 0.72 0.67 0.63 0.59 0.52 0.50 0.37 0.23 0.19 0.24 0.41 0.49 0.43 0.35 0.31 0.28 0.28 0.28 0.30 0.34 0.37 0.39 0.46 0.64 0.89 1.28 1.75 2.28 2.78 2.90 2.62 2.40
0.55 0.58 0.68 0.84 0.93 0.98 1.03 0.94 0.89 0.93 0.85 0.76 0.63 0.48 0.37 0.40 0.51 0.57 0.64 0.54 0.44 0.39 0.36 0.30 0.28 0.25 0.25 0.28 0.35 0.46 0.64 0.87 1.22 1.71 2.21 2.61 2.66 2.51
0.39 0.38 0.42 0.58 0.70 0.82 0.97 1.01 1.07 1.22 1.26 1.16 0.95 0.76 0.53 0.48 0.55 0.70 0.83 0.88 0.73 0.46 0.47 0.44 0.37 0.34 0.27 0.24 0.27 0.35 0.49 0.70 0.93 1.26 1.67 2.11 2.39 2.54
0.23 0.24 0.25 0.34 0.46 0.50 0.62 0.72 0.82 0.99 1.22 1.32 1.26 0.93 0.67 0.52 0.67 0.83 0.88 0.95 0.84 0.66 0.73 0.79 0.62 0.52 0.39 0.35 0.37 0.37 0.44 0.58 0.75 0.96 1.26 1.66 2.04 2.32
0.17 0.16 0.14 0.19 0.32 0.46 0.56 0.59 0.59 0.71 1.00 1.25 1.39 1.19 0.95 0.82 0.94 1.16 1.26 1.24 1.06 0.90 0.93 1.11 0.92 0.73 0.60 0.50 0.43 0.39 0.42 0.49 0.60 0.76 0.98 1.31 1.69 2.00
0.15 0.17 0.13 0.12 0.27 0.45 0.49 0.45 0.41 0.48 0.64 0.94 1.16 1.20 1.18 1.22 1.32 1.57 1.72 1.66 1.49 1.20 1.08 1.20 1.19 1.05 0.90 0.79 0.63 0.50 0.44 0.46 0.52 0.64 0.79 1.01 1.35 1.78
0.13 0.14 0.19 0.23 0.34 0.42 0.39 0.40 0.47 0.43 0.43 0.49 0.59 0.69 0.78 0.85 1.08 1.38 1.57 1.64 1.62 1.60 1.27 1.19 1.35 1.42 1.52 1.19 0.85 0.57 0.47 0.51 0.53 0.60 0.70 0.83 1.10 1.41
0.20 0.19 0.18 0.25 0.31 0.35 0.39 0.40 0.49 0.48 0.46 0.54 0.56 0.54 0.58 0.69 0.83 1.08 1.35 1.55 1.68 1.66 1.33 1.32 1.54 1.46 1.56 1.47 1.15 0.81 0.52 0.47 0.51 0.61 0.70 0.77 0.91 1.07
0.22 0.17 0.17 0.22 0.28 0.34 0.35 0.37 0.41 0.44 0.46 0.47 0.43 0.43 0.50 0.61 0.73 0.91 1.13 1.30 1.39 1.43 1.27 1.28 1.64 1.50 1.39 1.29 1.21 1.08 0.79 0.58 0.49 0.51 0.59 0.82 0.97 1.01
0.30 0.28 0.23 0.25 0.26 0.21 0.21 0.27 0.31 0.32 0.40 0.43 0.38 0.35 0.42 0.55 0.63 0.74 0.88 1.07 1.19 1.25 1.27 1.24 1.42 1.49 1.46 1.33 1.08 0.99 0.96 0.85 0.62 0.55 0.59 0.66 0.75 0.85
0.29 0.27 0.23 0.22 0.19 0.14 0.13 0.15 0.18 0.24 0.32 0.38 0.34 0.30 0.32 0.43 0.55 0.69 0.84 0.98 1.16 1.20 1.23 1.31 1.43 1.64 1.64 1.32 1.13 0.97 0.83 0.92 0.79 0.60 0.60 0.66 0.66 0.61
0.41 0.36 0.27 0.21 0.20 0.16 0.12 0.10 0.12 0.17 0.23 0.26 0.29 0.30 0.33 0.40 0.49 0.61 0.82 0.97 1.12 1.13 1.23 1.43 1.56 1.65 1.72 1.65 1.50 1.11 0.82 0.75 0.72 0.62 0.64 0.77 0.82 0.72
0.44 0.41 0.25 0.18 0.18 0.16 0.15 0.12 0.11 0.13 0.16 0.21 0.27 0.30 0.35 0.41 0.48 0.55 0.72 0.92 1.03 1.06 1.16 1.36 1.58 1.75 1.93 2.02 1.77 1.30 0.96 0.83 0.79 0.71 0.66 0.75 0.90 0.85
0.30 0.25 0.18 0.15 0.15 0.14 0.14 0.14 0.12 0.10 0.14 0.20 0.24 0.27 0.32 0.38 0.45 0.52 0.62 0.77 0.90 1.00 1.11 1.24 1.45 1.65 1.78 1.89 1.96 1.59 1.18 0.98 0.95 0.96 0.84 0.73 0.76 0.83
0.16 0.16 0.16 0.16 0.16 0.17 0.16 0.15 0.14 0.13 0.16 0.18 0.19 0.21 0.27 0.35 0.41 0.45 0.52 0.67 0.81 0.92 1.03 1.14 1.31 1.48 1.55 1.50 1.60 1.68 1.54 1.19 1.04 1.05 1.00 0.91 0.91 1.02
0.13 0.14 0.15 0.17 0.17 0.17 0.17 0.16 0.16 0.16 0.14 0.16 0.17 0.18 0.22 0.31 0.36 0.38 0.45 0.56 0.72 0.84 0.92 1.00 1.14 1.28 1.45 1.46 1.39 1.39 1.57 1.56 1.20 0.99 0.96 1.04 1.16 1.19
0.14 0.15 0.15 0.16 0.18 0.18 0.18 0.18 0.18 0.16 0.15 0.17 0.17 0.17 0.20 0.26 0.32 0.34 0.41 0.50 0.60 0.72 0.82 0.90 1.03 1.26 1.49 1.55 1.41 1.26 1.40 1.62 1.64 1.35 1.09 0.98 1.04 1.04
0.19 0.18 0.17 0.17 0.18 0.19 0.19 0.19 0.18 0.15 0.14 0.15 0.16 0.16 0.18 0.21 0.23 0.29 0.35 0.42 0.51 0.62 0.75 0.89 1.02 1.22 1.41 1.48 1.46 1.30 1.24 1.38 1.53 1.54 1.50 1.24 0.89 0.67

GEFSNE_prec_meanprecacc_150.txt.gz
Total_Precipitation_Accumulation
0.25 0.27 0.31 0.28 0.27 0.28 0.30 0.42 0.58 0.41 0.11 0.02 0.04 0.07 0.10 0.16 0.20 0.21 0.22 0.23 0.26 0.32 0.38 0.40 0.45 0.59 0.91 1.52 2.48 3.48 3.64 2.91 2.05 1.52 1.44 1.77 2.11 2.49
0.31 0.34 0.36 0.37 0.36 0.33 0.34 0.37 0.45 0.54 0.32 0.05 0.04 0.08 0.13 0.17 0.22 0.20 0.22 0.25 0.24 0.26 0.30 0.34 0.39 0.51 0.71 1.02 1.61 2.51 3.36 3.56 3.00 2.27 1.86 1.88 2.11 2.36
0.33 0.40 0.43 0.46 0.51 0.48 0.46 0.43 0.41 0.46 0.44 0.12 0.04 0.06 0.15 0.20 0.21 0.21 0.23 0.22 0.19 0.20 0.24 0.29 0.36 0.46 0.62 0.84 1.17 1.76 2.58 3.29 3.47 3.06 2.60 2.29 2.22 2.24
0.43 0.45 0.47 0.50 0.56 0.58 0.60 0.54 0.44 0.38 0.42 0.27 0.08 0.06 0.11 0.22 0.27 0.26 0.25 0.23 0.20 0.20 0.24 0.29 0.34 0.43 0.56 0.73 0.96 1.30 1.91 2.56 3.11 3.24 2.98 2.58 2.35 2.38
0.69 0.69 0.64 0.59 0.61 0.60 0.64 0.62 0.53 0.43 0.40 0.37 0.21 0.11 0.13 0.22 0.34 0.37 0.32 0.28 0.24 0.23 0.24 0.27 0.30 0.36 0.46 0.59 0.78 1.02 1.31 1.74 2.24 2.84 3.06 2.85 2.52 2.41
0.75 0.80 0.81 0.83 0.79 0.74 0.73 0.68 0.63 0.60 0.53 0.50 0.38 0.24 0.20 0.25 0.41 0.49 0.43 0.35 0.31 0.28 0.28 0.28 0.30 0.34 0.37 0.39 0.47 0.64 0.90 1.29 1.76 2.29 2.80 2.92 2.64 2.43
0.55 0.59 0.69 0.86 0.94 0.99 1.03 0.94 0.90 0.94 0.86 0.78 0.65 0.49 0.38 0.41 0.52 0.58 0.64 0.54 0.45 0.39 0.36 0.30 0.28 0.25 0.25 0.28 0.35 0.46 0.64 0.88 1.23 1.72 2.23 2.62 2.67 2.52
0.40 0.39 0.43 0.60 0.71 0.83 0.99 1.02 1.08 1.23 1.27 1.17 0.96 0.77 0.55 0.49 0.55 0.70 0.83 0.88 0.73 0.46 0.47 0.44 0.37 0.34 0.27 0.24 0.27 0.35 0.49 0.71 0.94 1.27 1.68 2.11 2.40 2.55
0.24 0.25 0.26 0.35 0.47 0.51 0.63 0.73 0.83 1.00 1.23 1.34 1.28 0.95 0.68 0.53 0.67 0.84 0.88 0.95 0.84 0.66 0.73 0.79 0.62 0.52 0.39 0.35 0.37 0.37 0.45 0.58 0.76 0.97 1.26 1.67 2.05 2.33
0.17 0.17 0.14 0.19 0.33 0.47 0.57 0.60 0.60 0.73 1.02 1.26 1.40 1.20 0.95 0.82 0.94 1.16 1.26 1.24 1.06 0.90 0.93 1.11 0.92 0.73 0.60 0.50 0.43 0.39 0.42 0.49 0.61 0.76 0.99 1.31 1.70 2.01
0.16 0.18 0.13 0.12 0.29 0.47 0.50 0.47 0.42 0.49 0.65 0.95 1.17 1.21 1.18 1.22 1.32 1.57 1.72 1.66 1.49 1.20 1.09 1.20 1.19 1.05 0.91 0.79 0.63 0.50 0.44 0.46 0.52 0.65 0.79 1.01 1.35 1.78
0.14 0.15 0.21 0.25 0.36 0.44 0.40 0.41 0.48 0.44 0.44 0.50 0.60 0.70 0.79 0.86 1.08 1.38 1.57 1.64 1.63 1.61 1.27 1.20 1.36 1.43 1.52 1.19 0.85 0.57 0.47 0.51 0.53 0.60 0.70 0.83 1.11 1.42
0.21 0.20 0.19 0.27 0.33 0.37 0.40 0.40 0.50 0.49 0.46 0.54 0.56 0.54 0.59 0.70 0.83 1.09 1.36 1.55 1.69 1.66 1.33 1.32 1.55 1.47 1.56 1.47 1.15 0.81 0.52 0.47 0.51 0.61 0.70 0.77 0.91 1.07
0.23 0.18 0.18 0.24 0.29 0.35 0.35 0.38 0.42 0.44 0.46 0.47 0.44 0.44 0.51 0.61 0.74 0.92 1.13 1.31 1.40 1.43 1.27 1.28 1.64 1.50 1.40 1.30 1.21 1.08 0.79 0.58 0.49 0.51 0.59 0.82 0.97 1.01
0.32 0.30 0.25 0.27 0.27 0.22 0.22 0.28 0.31 0.32 0.40 0.43 0.38 0.35 0.42 0.55 0.64 0.75 0.88 1.07 1.19 1.25 1.27 1.25 1.42 1.50 1.47 1.34 1.08 0.99 0.96 0.85 0.62 0.55 0.59 0.66 0.75 0.85
0.33 0.30 0.26 0.25 0.20 0.15 0.14 0.15 0.18 0.24 0.33 0.38 0.34 0.30 0.33 0.43 0.56 0.69 0.84 0.99 1.16 1.20 1.23 1.31 1.43 1.65 1.64 1.32 1.13 0.97 0.83 0.92 0.79 0.60 0.60 0.66 0.66 0.61
0.43 0.38 0.29 0.23 0.21 0.17 0.13 0.10 0.12 0.18 0.24 0.27 0.29 0.30 0.33 0.41 0.49 0.61 0.82 0.97 1.13 1.14 1.23 1.44 1.56 1.65 1.72 1.65 1.50 1.11 0.82 0.75 0.72 0.62 0.64 0.77 0.82 0.72
0.45 0.42 0.27 0.19 0.18 0.16 0.15 0.13 0.11 0.13 0.16 0.21 0.27 0.30 0.35 0.42 0.48 0.55 0.73 0.93 1.04 1.06 1.16 1.36 1.58 1.75 1.93 2.02 1.77 1.30 0.96 0.83 0.79 0.71 0.66 0.75 0.90 0.85
0.31 0.26 0.19 0.16 0.15 0.14 0.14 0.14 0.12 0.10 0.14 0.20 0.24 0.27 0.32 0.38 0.45 0.52 0.62 0.77 0.91 1.01 1.11 1.24 1.45 1.66 1.79 1.89 1.96 1.59 1.18 0.99 0.95 0.96 0.84 0.73 0.77 0.83
0.17 0.17 0.17 0.16 0.16 0.17 0.16 0.15 0.14 0.13 0.16 0.18 0.19 0.21 0.27 0.35 0.41 0.45 0.53 0.68 0.81 0.93 1.04 1.14 1.31 1.49 1.56 1.51 1.61 1.68 1.54 1.20 1.04 1.06 1.00 0.91 0.91 1.02
0.14 0.14 0.15 0.17 0.17 0.17 0.17 0.16 0.16 0.16 0.14 0.16 0.18 0.18 0.22 0.31 0.36 0.39 0.46 0.56 0.73 0.85 0.93 1.01 1.14 1.29 1.46 1.46 1.40 1.39 1.57 1.57 1.22 1.01 0.98 1.05 1.17 1.19
0.15 0.16 0.16 0.16 0.18 0.18 0.18 0.18 0.18 0.17 0.15 0.17 0.17 0.17 0.20 0.27 0.32 0.35 0.42 0.50 0.61 0.73 0.82 0.91 1.04 1.26 1.50 1.56 1.41 1.27 1.40 1.62 1.65 1.36 1.11 1.00 1.07 1.08
0.19 0.19 0.18 0.18 0.18 0.19 0.19 0.19 0.18 0.16 0.14 0.15 0.16 0.16 0.18 0.21 0.23 0.29 0.35 0.43 0.52 0.62 0.76 0.89 1.03 1.22 1.42 1.49 1.47 1.30 1.24 1.38 1.53 1.54 1.51 1.25 0.90 0.69

GEFSNE_prec_meanprecacc_156.txt.gz
Total_Precipitation_Accumulation
0.25 0.27 0.31 0.28 0.27 0.28 0.31 0.42 0.59 0.41 0.11 0.02 0.04 0.07 0.10 0.16 0.20 0.21 0.22 0.23 0.26 0.32 0.38 0.40 0.45 0.59 0.91 1.52 2.49 3.48 3.65 2.93 2.06 1.54 1.46 1.80 2.16 2.54
0.31 0.34 0.36 0.37 0.37 0.34 0.34 0.37 0.46 0.55 0.32 0.05 0.04 0.08 0.13 0.17 0.22 0.20 0.22 0.25 0.24 0.26 0.30 0.34 0.40 0.51 0.72 1.03 1.61 2.51 3.37 3.57 3.01 2.29 1.89 1.91 2.15 2.40
0.34 0.40 0.44 0.47 0.51 0.49 0.47 0.43 0.41 0.46 0.45 0.12 0.04 0.06 0.15 0.20 0.21 0.21 0.23 0.22 0.19 0.21 0.24 0.29 0.36 0.46 0.62 0.84 1.17 1.76 2.59 3.30 3.48 3.08 2.62 2.31 2.25 2.28
0.44 0.45 0.47 0.51 0.56 0.59 0.60 0.54 0.44 0.38 0.43 0.28 0.08 0.06 0.12 0.22 0.28 0.26 0.25 0.23 0.20 0.20 0.24 0.29 0.34 0.44 0.56 0.73 0.96 1.30 1.91 2.57 3.12 3.25 2.99 2.60 2.37 2.41
0.69 0.69 0.64 0.59 0.61 0.61 0.64 0.62 0.53 0.44 0.40 0.38 0.21 0.11 0.13 0.22 0.34 0.37 0.33 0.28 0.24 0.23 0.25 0.27 0.30 0.37 0.46 0.59 0.78 1.02 1.31 1.74 2.24 2.84 3.08 2.87 2.53 2.43
0.76 0.81 0.82 0.83 0.79 0.74 0.73 0.68 0.64 0.60 0.53 0.51 0.39 0.25 0.20 0.25 0.41 0.50 0.44 0.36 0.32 0.28 0.29 0.28 0.30 0.34 0.37 0.39 0.47 0.64 0.90 1.29 1.77 2.30 2.81 2.93 2.65 2.44
0.56 0.60 0.70 0.86 0.95 1.00 1.04 0.95 0.90 0.94 0.86 0.78 0.65 0.50 0.39 0.42 0.53 0.58 0.64 0.54 0.45 0.39 0.36 0.30 0.28 0.25 0.25 0.28 0.35 0.46 0.65 0.89 1.24 1.73 2.24 2.63 2.68 2.54
0.41 0.40 0.44 0.60 0.72 0.85 1.00 1.03 1.09 1.24 1.28 1.17 0.97 0.78 0.55 0.49 0.56 0.71 0.83 0.88 0.74 0.47 0.47 0.44 0.37 0.34 0.27 0.24 0.27 0.35 0.49 0.71 0.95 1.28 1.68 2.12 2.41 2.56
0.25 0.26 0.27 0.37 0.49 0.52 0.64 0.74 0.84 1.01 1.24 1.34 1.28 0.95 0.68 0.54 0.68 0.84 0.88 0.96 0.84 0.66 0.73 0.79 0.62 0.52 0.39 0.35 0.37 0.37 0.45 0.58 0.76 0.97 1.27 1.68 2.06 2.34
0.18 0.17 0.15 0.20 0.34 0.47 0.58 0.60 0.61 0.74 1.03 1.27 1.40 1.21 0.96 0.82 0.95 1.17 1.26 1.24 1.06 0.90 0.93 1.11 0.92 0.73 0.60 0.50 0.43 0.39 0.43 0.49 0.61 0.76 0.99 1.32 1.70 2.02
0.17 0.18 0.14 0.13 0.30 0.48 0.51 0.48 0.43 0.50 0.67 0.96 1.17 1.22 1.19 1.22 1.32 1.57 1.72 1.66 1.49 1.20 1.09 1.20 1.19 1.05 0.91 0.79 0.63 0.50 0.45 0.46 0.52 0.65 0.79 1.02 1.36 1.79
0.15 0.16 0.23 0.26 0.38 0.45 0.42 0.44 0.50 0.46 0.45 0.51 0.61 0.70 0.79 0.86 1.08 1.38 1.57 1.65 1.63 1.61 1.28 1.20 1.36 1.43 1.53 1.20 0.85 0.57 0.47 0.51 0.53 0.60 0.70 0.83 1.11 1.42
0.23 0.21 0.21 0.29 0.34 0.38 0.42 0.42 0.53 0.51 0.48 0.56 0.57 0.55 0.59 0.70 0.83 1.09 1.36 1.55 1.69 1.66 1.33 1.33 1.55 1.47 1.57 1.47 1.15 0.81 0.52 0.47 0.51 0.61 0.70 0.77 0.92 1.07
0.26 0.20 0.20 0.27 0.32 0.37 0.38 0.41 0.44 0.46 0.47 0.48 0.44 0.44 0.51 0.61 0.74 0.92 1.14 1.31 1.40 1.43 1.27 1.28 1.65 1.51 1.41 1.30 1.21 1.08 0.79 0.58 0.49 0.51 0.59 0.82 0.97 1.01
0.37 0.35 0.29 0.31 0.31 0.25 0.25 0.31 0.33 0.33 0.41 0.44 0.38 0.35 0.42 0.55 0.64 0.75 0.88 1.07 1.19 1.25 1.27 1.25 1.42 1.50 1.47 1.34 1.08 0.99 0.96 0.85 0.62 0.55 0.59 0.66 0.75 0.85
0.41 0.39 0.35 0.32 0.25 0.18 0.17 0.17 0.19 0.25 0.33 0.38 0.34 0.30 0.33 0.43 0.56 0.69 0.84 0.99 1.17 1.20 1.24 1.32 1.44 1.65 1.65 1.32 1.13 0.97 0.83 0.93 0.79 0.60 0.60 0.66 0.66 0.61
0.50 0.45 0.34 0.28 0.25 0.20 0.15 0.12 0.13 0.19 0.24 0.27 0.29 0.30 0.33 0.41 0.49 0.61 0.82 0.97 1.13 1.14 1.24 1.44 1.56 1.65 1.72 1.66 1.50 1.11 0.82 0.75 0.72 0.62 0.64 0.77 0.82 0.72
0.50 0.46 0.31 0.23 0.21 0.19 0.17 0.14 0.12 0.14 0.16 0.21 0.27 0.31 0.35 0.42 0.48 0.55 0.73 0.93 1.04 1.07 1.16 1.36 1.58 1.75 1.94 2.02 1.77 1.30 0.96 0.83 0.79 0.71 0.66 0.76 0.91 0.85
0.35 0.29 0.21 0.19 0.17 0.16 0.16 0.15 0.13 0.10 0.14 0.20 0.24 0.27 0.32 0.38 0.45 0.52 0.62 0.77 0.91 1.01 1.11 1.24 1.46 1.66 1.79 1.89 1.96 1.59 1.19 0.99 0.95 0.96 0.85 0.74 0.77 0.83
0.19 0.19 0.19 0.18 0.18 0.18 0.17 0.16 0.15 0.14 0.16 0.18 0.19 0.22 0.28 0.36 0.41 0.45 0.53 0.68 0.81 0.93 1.04 1.14 1.31 1.49 1.57 1.52 1.61 1.69 1.54 1.20 1.05 1.06 1.00 0.91 0.91 1.02
0.16 0.16 0.17 0.19 0.19 0.18 0.17 0.17 0.16 0.16 0.15 0.17 0.18 0.18 0.23 0.32 0.36 0.39 0.46 0.57 0.73 0.85 0.93 1.01 1.14 1.29 1.46 1.47 1.40 1.40 1.57 1.57 1.22 1.02 0.99 1.06 1.17 1.20
0.16 0.17 0.17 0.18 0.19 0.19 0.19 0.19 0.19 0.17 0.15 0.17 0.17 0.17 0.20 0.27 0.32 0.35 0.42 0.51 0.61 0.73 0.83 0.91 1.04 1.26 1.50 1.56 1.42 1.27 1.40 1.63 1.65 1.36 1.12 1.03 1.12 1.14
0.21 0.20 0.20 0.20 0.20 0.20 0.20 0.19 0.18 0.16 0.14 0.15 0.16 0.16 0.18 0.22 0.24 0.30 0.36 0.43 0.52 0.63 0.76 0.90 1.03 1.22 1.42 1.49 1.47 1.31 1.25 1.38 1.53 1.54 1.51 1.26 0.92 0.73

GEFSNE_prec_meanprecacc_162.txt.gz
Total_Precipitation_Accumulation
0.26 0.28 0.31 0.28 0.28 0.28 0.31 0.42 0.59 0.42 0.11 0.03 0.04 0.07 0.10 0.16 0.20 0.21 0.22 0.23 0.26 0.32 0.38 0.40 0.45 0.59 0.91 1.52 2.49 3.48 3.66 2.93 2.07 1.54 1.48 1.82 2.18 2.57
0.32 0.35 0.36 0.37 0.37 0.34 0.35 0.37 0.46 0.55 0.33 0.05 0.04 0.08 0.13 0.17 0.22 0.20 0.22 0.25 0.24 0.26 0.30 0.34 0.40 0.51 0.72 1.03 1.62 2.52 3.37 3.58 3.02 2.30 1.90 1.93 2.17 2.42
0.35 0.41 0.44 0.47 0.52 0.49 0.47 0.44 0.42 0.47 0.45 0.12 0.04 0.06 0.15 0.20 0.22 0.21 0.23 0.22 0.19 0.21 0.24 0.29 0.36 0.46 0.62 0.84 1.17 1.76 2.59 3.30 3.49 3.08 2.63 2.33 2.26 2.29
0.44 0.45 0.48 0.51 0.57 0.59 0.60 0.55 0.45 0.39 0.43 0.28 0.09 0.06 0.12 0.22 0.28 0.26 0.25 0.23 0.20 0.20 0.24 0.29 0.34 0.44 0.56 0.73 0.96 1.30 1.91 2.57 3.12 3.26 3.00 2.61 2.38 2.42
0.70 0.70 0.64 0.60 0.62 0.61 0.65 0.62 0.53 0.44 0.40 0.38 0.21 0.11 0.13 0.22 0.34 0.37 0.33 0.29 0.24 0.23 0.25 0.27 0.30 0.37 0.46 0.59 0.78 1.02 1.31 1.74 2.25 2.85 3.08 2.87 2.55 2.44
0.76 0.82 0.83 0.84 0.80 0.75 0.73 0.69 0.64 0.60 0.53 0.51 0.39 0.25 0.21 0.25 0.42 0.50 0.44 0.36 0.32 0.28 0.29 0.28 0.30 0.34 0.37 0.40 0.47 0.64 0.90 1.29 1.77 2.31 2.82 2.94 2.66 2.45
0.57 0.61 0.71 0.87 0.96 1.01 1.05 0.96 0.91 0.95 0.87 0.79 0.66 0.50 0.39 0.42 0.53 0.59 0.65 0.55 0.45 0.39 0.37 0.30 0.28 0.25 0.25 0.28 0.36 0.46 0.65 0.89 1.24 1.73 2.24 2.64 2.69 2.55
0.43 0.41 0.45 0.62 0.74 0.86 1.01 1.04 1.10 1.25 1.29 1.18 0.97 0.79 0.56 0.50 0.56 0.71 0.84 0.89 0.74 0.47 0.47 0.44 0.38 0.34 0.27 0.24 0.27 0.35 0.49 0.72 0.95 1.28 1.69 2.13 2.42 2.57
0.27 0.27 0.28 0.38 0.50 0.53 0.65 0.75 0.85 1.02 1.25 1.34 1.29 0.95 0.69 0.54 0.68 0.84 0.89 0.96 0.85 0.66 0.73 0.79 0.62 0.52 0.39 0.35 0.37 0.37 0.45 0.59 0.76 0.97 1.27 1.68 2.07 2.35
0.21 0.19 0.16 0.21 0.34 0.48 0.58 0.61 0.61 0.74 1.03 1.27 1.40 1.21 0.96 0.83 0.95 1.17 1.26 1.24 1.06 0.91 0.94 1.11 0.92 0.73 0.60 0.50 0.43 0.39 0.43 0.49 0.61 0.76 0.99 1.32 1.71 2.02
0.19 0.20 0.15 0.13 0.30 0.49 0.51 0.48 0.44 0.51 0.67 0.97 1.18 1.22 1.19 1.23 1.32 1.57 1.72 1.66 1.49 1.20 1.09 1.20 1.19 1.05 0.91 0.79 0.63 0.50 0.45 0.46 0.52 0.65 0.79 1.02 1.36 1.79
0.18 0.18 0.24 0.27 0.38 0.46 0.42 0.44 0.51 0.47 0.45 0.52 0.62 0.72 0.80 0.87 1.09 1.39 1.57 1.65 1.63 1.61 1.28 1.20 1.36 1.43 1.53 1.20 0.85 0.57 0.47 0.51 0.54 0.60 0.70 0.84 1.11 1.42
0.27 0.23 0.22 0.30 0.36 0.39 0.43 0.42 0.53 0.52 0.49 0.57 0.59 0.57 0.61 0.71 0.84 1.09 1.37 1.56 1.69 1.67 1.33 1.33 1.55 1.47 1.57 1.47 1.15 0.81 0.52 0.47 0.51 0.61 0.70 0.77 0.92 1.07
0.31 0.23 0.23 0.29 0.33 0.39 0.39 0.42 0.46 0.48 0.49 0.50 0.47 0.46 0.52 0.62 0.75 0.92 1.14 1.31 1.40 1.44 1.27 1.29 1.65 1.51 1.41 1.31 1.21 1.08 0.79 0.58 0.49 0.51 0.59 0.82 0.97 1.01
0.43 0.41 0.35 0.35 0.33 0.27 0.27 0.33 0.36 0.35 0.43 0.45 0.40 0.36 0.43 0.56 0.64 0.75 0.89 1.07 1.20 1.25 1.28 1.25 1.43 1.50 1.48 1.35 1.09 0.99 0.96 0.85 0.62 0.55 0.59 0.66 0.75 0.85
0.49 0.47 0.43 0.40 0.31 0.22 0.20 0.20 0.21 0.27 0.35 0.40 0.35 0.30 0.33 0.44 0.56 0.69 0.85 0.99 1.17 1.20 1.24 1.32 1.44 1.65 1.65 1.33 1.14 0.97 0.83 0.93 0.79 0.60 0.60 0.66 0.66 0.61
0.59 0.53 0.43 0.38 0.36 0.27 0.20 0.15 0.16 0.21 0.26 0.28 0.30 0.31 0.34 0.41 0.49 0.61 0.82 0.98 1.13 1.14 1.24 1.44 1.57 1.65 1.73 1.66 1.51 1.11 0.82 0.75 0.72 0.62 0.64 0.77 0.82 0.72
0.60 0.54 0.37 0.29 0.29 0.26 0.22 0.18 0.16 0.17 0.18 0.22 0.28 0.31 0.35 0.42 0.49 0.56 0.73 0.93 1.04 1.07 1.16 1.37 1.59 1.76 1.94 2.02 1.77 1.30 0.96 0.83 0.79 0.72 0.67 0.76 0.91 0.85
0.43 0.36 0.26 0.23 0.21 0.21 0.20 0.18 0.16 0.14 0.17 0.23 0.26 0.28 0.33 0.39 0.46 0.53 0.63 0.78 0.92 1.01 1.12 1.24 1.46 1.67 1.80 1.89 1.96 1.59 1.19 0.99 0.96 0.96 0.85 0.74 0.78 0.83
0.26 0.25 0.24 0.22 0.21 0.21 0.20 0.18 0.17 0.16 0.18 0.20 0.21 0.23 0.29 0.37 0.42 0.46 0.54 0.69 0.82 0.94 1.05 1.15 1.32 1.50 1.58 1.53 1.62 1.69 1.55 1.21 1.06 1.07 1.00 0.91 0.91 1.03
0.22 0.21 0.22 0.24 0.23 0.21 0.19 0.18 0.18 0.17 0.16 0.18 0.19 0.20 0.24 0.33 0.38 0.40 0.47 0.58 0.74 0.86 0.94 1.01 1.14 1.30 1.47 1.48 1.41 1.40 1.57 1.58 1.24 1.05 1.01 1.08 1.19 1.20
0.22 0.22 0.21 0.22 0.23 0.22 0.21 0.20 0.20 0.18 0.17 0.18 0.18 0.18 0.21 0.27 0.33 0.36 0.43 0.52 0.62 0.74 0.83 0.92 1.05 1.27 1.51 1.57 1.43 1.28 1.41 1.63 1.66 1.38 1.14 1.07 1.18 1.20
0.27 0.26 0.24 0.23 0.22 0.22 0.22 0.21 0.21 0.17 0.15 0.16 0.17 0.17 0.19 0.22 0.25 0.30 0.37 0.44 0.53 0.64 0.77 0.91 1.04 1.23 1.43 1.50 1.48 1.32 1.26 1.39 1.53 1.55 1.52 1.27 0.95 0.78

GEFSNE_prec_meanprecacc_168.txt.gz
Total_Precipitation_Accumulation
0.30 0.31 0.34 0.30 0.29 0.29 0.31 0.43 0.59 0.42 0.12 0.03 0.05 0.07 0.10 0.16 0.20 0.21 0.22 0.23 0.27 0.32 0.38 0.40 0.45 0.59 0.91 1.52 2.49 3.49 3.66 2.94 2.07 1.55 1.49 1.84 2.20 2.59
0.36 0.37 0.39 0.39 0.38 0.35 0.35 0.38 0.47 0.55 0.33 0.06 0.05 0.08 0.13 0.17 0.22 0.20 0.22 0.25 0.24 0.26 0.30 0.35 0.40 0.52 0.72 1.03 1.62 2.52 3.38 3.58 3.03 2.30 1.91 1.94 2.19 2.44
0.40 0.45 0.47 0.49 0.53 0.50 0.47 0.44 0.42 0.47 0.46 0.13 0.04 0.06 0.15 0.21 0.22 0.21 0.24 0.22 0.19 0.21 0.24 0.30 0.37 0.46 0.62 0.84 1.17 1.76 2.59 3.30 3.49 3.09 2.64 2.34 2.28 2.32
0.51 0.51 0.52 0.54 0.59 0.60 0.61 0.55 0.45 0.39 0.44 0.29 0.09 0.07 0.12 0.22 0.28 0.27 0.25 0.23 0.20 0.21 0.25 0.29 0.35 0.44 0.56 0.74 0.96 1.30 1.91 2.57 3.12 3.26 3.01 2.62 2.40 2.44
0.78 0.77 0.70 0.64 0.64 0.63 0.66 0.63 0.54 0.45 0.41 0.38 0.22 0.12 0.13 0.22 0.34 0.37 0.33 0.29 0.25 0.24 0.25 0.28 0.31 0.37 0.47 0.59 0.78 1.02 1.31 1.74 2.25 2.85 3.09 2.89 2.56 2.45
0.85 0.89 0.89 0.89 0.83 0.77 0.75 0.70 0.66 0.62 0.54 0.52 0.40 0.26 0.21 0.25 0.42 0.50 0.44 0.36 0.32 0.29 0.29 0.28 0.31 0.34 0.37 0.40 0.47 0.64 0.90 1.29 1.77 2.31 2.83 2.95 2.67 2.47
0.67 0.69 0.79 0.95 1.01 1.05 1.08 0.98 0.93 0.97 0.89 0.81 0.67 0.51 0.40 0.43 0.54 0.59 0.65 0.55 0.45 0.39 0.37 0.30 0.28 0.25 0.25 0.28 0.36 0.46 0.65 0.89 1.24 1.74 2.25 2.65 2.70 2.56
0.53 0.50 0.53 0.70 0.82 0.92 1.05 1.07 1.12 1.26 1.31 1.19 0.98 0.79 0.56 0.50 0.57 0.72 0.84 0.89 0.74 0.47 0.47 0.44 0.38 0.34 0.27 0.24 0.27 0.35 0.50 0.72 0.96 1.29 1.70 2.14 2.43 2.59
0.36 0.37 0.39 0.47 0.59 0.61 0.71 0.79 0.87 1.04 1.26 1.35 1.29 0.96 0.69 0.55 0.69 0.85 0.89 0.96 0.85 0.66 0.73 0.79 0.62 0.52 0.39 0.35 0.37 0.37 0.45 0.59 0.76 0.98 1.28 1.69 2.08 2.37
0.29 0.28 0.26 0.32 0.44 0.56 0.64 0.64 0.63 0.75 1.04 1.27 1.40 1.21 0.96 0.83 0.96 1.17 1.27 1.25 1.06 0.91 0.94 1.11 0.92 0.73 0.60 0.50 0.44 0.39 0.43 0.49 0.61 0.77 1.00 1.33 1.72 2.04
0.27 0.28 0.24 0.21 0.39 0.56 0.57 0.52 0.46 0.52 0.68 0.97 1.19 1.23 1.20 1.24 1.33 1.58 1.72 1.67 1.50 1.20 1.09 1.20 1.19 1.05 0.91 0.79 0.63 0.50 0.45 0.46 0.52 0.65 0.80 1.02 1.37 1.80
0.25 0.26 0.33 0.36 0.47 0.53 0.48 0.49 0.53 0.48 0.46 0.52 0.63 0.72 0.81 0.88 1.11 1.39 1.58 1.66 1.64 1.61 1.28 1.20 1.36 1.43 1.53 1.20 0.85 0.57 0.47 0.51 0.54 0.60 0.70 0.84 1.12 1.43
0.33 0.30 0.30 0.39 0.43 0.47 0.49 0.48 0.57 0.54 0.50 0.58 0.60 0.58 0.62 0.73 0.86 1.10 1.37 1.56 1.70 1.67 1.33 1.33 1.56 1.48 1.57 1.48 1.15 0.81 0.52 0.47 0.51 0.61 0.70 0.78 0.92 1.08
0.36 0.29 0.30 0.38 0.42 0.46 0.46 0.49 0.52 0.51 0.51 0.52 0.49 0.48 0.54 0.64 0.75 0.93 1.14 1.31 1.40 1.44 1.27 1.29 1.66 1.52 1.42 1.31 1.21 1.08 0.79 0.58 0.49 0.51 0.59 0.82 0.97 1.01
0.50 0.49 0.43 0.44 0.43 0.36 0.37 0.42 0.42 0.39 0.45 0.48 0.42 0.38 0.44 0.57 0.65 0.75 0.89 1.07 1.20 1.26 1.28 1.25 1.43 1.51 1.49 1.36 1.09 0.99 0.96 0.85 0.62 0.55 0.59 0.66 0.75 0.85
0.59 0.58 0.54 0.50 0.40 0.31 0.28 0.27 0.27 0.31 0.38 0.42 0.37 0.32 0.34 0.44 0.56 0.69 0.85 0.99 1.17 1.21 1.24 1.32 1.44 1.65 1.66 1.33 1.14 0.97 0.83 0.93 0.79 0.60 0.60 0.66 0.66 0.62
0.68 0.63 0.52 0.46 0.44 0.35 0.26 0.21 0.20 0.24 0.29 0.30 0.31 0.32 0.34 0.42 0.50 0.61 0.82 0.98 1.13 1.14 1.24 1.44 1.57 1.66 1.73 1.66 1.51 1.11 0.83 0.75 0.72 0.62 0.65 0.77 0.82 0.72
0.71 0.63 0.45 0.37 0.36 0.33 0.29 0.24 0.19 0.19 0.20 0.24 0.29 0.32 0.36 0.43 0.49 0.56 0.74 0.93 1.05 1.07 1.17 1.37 1.60 1.77 1.95 2.02 1.77 1.31 0.96 0.83 0.79 0.72 0.67 0.77 0.92 0.86
0.51 0.43 0.33 0.29 0.27 0.27 0.27 0.24 0.20 0.16 0.19 0.24 0.27 0.29 0.34 0.40 0.46 0.53 0.64 0.79 0.92 1.02 1.13 1.25 1.47 1.68 1.80 1.90 1.96 1.59 1.20 1.00 0.96 0.97 0.85 0.75 0.79 0.84
0.34 0.32 0.31 0.28 0.27 0.26 0.25 0.24 0.21 0.19 0.21 0.22 0.22 0.24 0.30 0.38 0.43 0.47 0.55 0.70 0.84 0.95 1.06 1.16 1.33 1.51 1.60 1.54 1.63 1.69 1.55 1.23 1.07 1.08 1.01 0.92 0.92 1.03
0.31 0.29 0.29 0.31 0.29 0.26 0.24 0.22 0.22 0.21 0.18 0.20 0.20 0.21 0.25 0.34 0.39 0.41 0.48 0.60 0.77 0.89 0.96 1.03 1.16 1.31 1.48 1.49 1.42 1.41 1.58 1.59 1.26 1.07 1.03 1.09 1.20 1.21
0.30 0.29 0.28 0.29 0.29 0.27 0.26 0.24 0.24 0.21 0.19 0.19 0.19 0.20 0.23 0.29 0.34 0.37 0.45 0.54 0.64 0.75 0.85 0.93 1.06 1.28 1.51 1.58 1.43 1.28 1.42 1.64 1.66 1.39 1.16 1.09 1.21 1.24
0.33 0.32 0.31 0.30 0.29 0.27 0.25 0.24 0.23 0.20 0.17 0.18 0.18 0.18 0.20 0.24 0.27 0.33 0.39 0.46 0.55 0.65 0.78 0.92 1.05 1.24 1.43 1.51 1.49 1.33 1.27 1.40 1.54 1.56 1.53 1.28 0.96 0.79

GEFSNE_prec_meanprecacc_174.txt.gz
Total_Precipitation_Accumulation
0.42 0.41 0.42 0.37 0.35 0.35 0.36 0.47 0.63 0.45 0.13 0.04 0.05 0.07 0.11 0.16 0.21 0.21 0.22 0.23 0.27 0.32 0.38 0.40 0.45 0.59 0.91 1.52 2.49 3.49 3.66 2.94 2.08 1.56 1.50 1.85 2.22 2.62
0.46 0.47 0.47 0.47 0.46 0.42 0.41 0.43 0.51 0.59 0.36 0.07 0.06 0.09 0.14 0.17 0.23 0.20 0.22 0.25 0.25 0.26 0.30 0.35 0.40 0.52 0.72 1.03 1.62 2.52 3.38 3.59 3.03 2.31 1.92 1.96 2.21 2.47
0.51 0.55 0.55 0.57 0.62 0.58 0.54 0.49 0.47 0.52 0.50 0.15 0.06 0.08 0.16 0.21 0.22 0.22 0.24 0.22 0.19 0.21 0.25 0.30 0.37 0.46 0.62 0.84 1.18 1.77 2.60 3.31 3.49 3.10 2.64 2.35 2.30 2.34
0.62 0.61 0.61 0.62 0.67 0.68 0.67 0.61 0.50 0.43 0.47 0.32 0.12 0.09 0.14 0.23 0.29 0.28 0.26 0.23 0.20 0.21 0.25 0.30 0.35 0.44 0.56 0.74 0.97 1.30 1.92 2.57 3.13 3.27 3.02 2.63 2.42 2.46
0.89 0.87 0.78 0.72 0.73 0.71 0.73 0.69 0.59 0.48 0.45 0.42 0.26 0.15 0.16 0.24 0.36 0.38 0.33 0.29 0.25 0.24 0.26 0.28 0.31 0.37 0.47 0.60 0.78 1.02 1.31 1.75 2.25 2.86 3.10 2.90 2.58 2.47
0.97 0.99 0.97 0.97 0.91 0.84 0.82 0.77 0.72 0.68 0.60 0.57 0.45 0.29 0.24 0.28 0.44 0.51 0.45 0.36 0.32 0.29 0.29 0.29 0.31 0.34 0.37 0.40 0.47 0.64 0.90 1.30 1.78 2.32 2.84 2.97 2.69 2.48
0.76 0.79 0.87 1.02 1.07 1.11 1.14 1.05 1.01 1.04 0.96 0.86 0.72 0.55 0.43 0.44 0.54 0.59 0.66 0.56 0.46 0.39 0.37 0.30 0.28 0.26 0.25 0.28 0.36 0.47 0.65 0.90 1.25 1.75 2.26 2.66 2.72 2.58
0.62 0.57 0.60 0.78 0.88 0.99 1.12 1.14 1.19 1.33 1.37 1.25 1.02 0.82 0.58 0.51 0.57 0.72 0.85 0.89 0.74 0.47 0.48 0.44 0.38 0.34 0.28 0.24 0.28 0.35 0.50 0.73 0.96 1.30 1.71 2.15 2.45 2.61
0.46 0.45 0.45 0.53 0.65 0.67 0.78 0.87 0.96 1.12 1.33 1.40 1.33 0.98 0.71 0.56 0.69 0.85 0.89 0.97 0.85 0.67 0.73 0.79 0.63 0.52 0.39 0.35 0.37 0.37 0.45 0.59 0.77 0.98 1.29 1.71 2.10 2.38
0.38 0.36 0.34 0.38 0.51 0.64 0.73 0.73 0.72 0.83 1.10 1.32 1.44 1.24 0.98 0.84 0.96 1.18 1.28 1.26 1.07 0.91 0.94 1.12 0.92 0.74 0.60 0.50 0.44 0.39 0.43 0.50 0.61 0.77 1.01 1.34 1.74 2.05
0.35 0.35 0.31 0.29 0.47 0.66 0.66 0.61 0.54 0.59 0.74 1.02 1.22 1.26 1.23 1.26 1.35 1.59 1.74 1.68 1.51 1.22 1.10 1.21 1.19 1.06 0.91 0.79 0.63 0.50 0.45 0.46 0.52 0.66 0.80 1.03 1.38 1.81
0.34 0.33 0.40 0.43 0.55 0.62 0.57 0.58 0.62 0.55 0.52 0.58 0.67 0.76 0.84 0.91 1.13 1.42 1.60 1.68 1.66 1.64 1.29 1.21 1.36 1.43 1.53 1.20 0.85 0.57 0.47 0.51 0.54 0.60 0.70 0.84 1.13 1.43
0.43 0.38 0.36 0.46 0.50 0.54 0.57 0.56 0.65 0.61 0.57 0.65 0.65 0.62 0.65 0.75 0.89 1.13 1.40 1.59 1.72 1.69 1.35 1.34 1.56 1.48 1.58 1.48 1.15 0.81 0.52 0.47 0.51 0.61 0.70 0.78 0.93 1.08
0.46 0.38 0.37 0.46 0.49 0.55 0.54 0.57 0.62 0.62 0.60 0.61 0.55 0.53 0.58 0.68 0.79 0.96 1.17 1.34 1.43 1.46 1.29 1.30 1.66 1.52 1.43 1.32 1.21 1.08 0.79 0.58 0.49 0.51 0.59 0.82 0.97 1.02
0.62 0.60 0.52 0.53 0.51 0.45 0.46 0.50 0.51 0.50 0.56 0.58 0.50 0.44 0.48 0.61 0.68 0.79 0.92 1.10 1.21 1.26 1.28 1.25 1.43 1.51 1.49 1.37 1.10 0.99 0.97 0.85 0.62 0.55 0.59 0.66 0.75 0.85
0.71 0.70 0.65 0.61 0.51 0.42 0.39 0.36 0.36 0.42 0.47 0.49 0.43 0.37 0.39 0.49 0.60 0.73 0.88 1.01 1.18 1.21 1.24 1.32 1.44 1.66 1.66 1.34 1.14 0.98 0.84 0.93 0.79 0.60 0.60 0.67 0.67 0.62
0.80 0.74 0.63 0.58 0.56 0.45 0.35 0.30 0.29 0.35 0.38 0.37 0.38 0.38 0.39 0.46 0.54 0.65 0.85 1.00 1.14 1.15 1.24 1.44 1.57 1.66 1.74 1.67 1.51 1.11 0.83 0.75 0.72 0.63 0.65 0.78 0.83 0.73
0.83 0.74 0.56 0.47 0.45 0.41 0.37 0.33 0.29 0.28 0.28 0.30 0.36 0.38 0.41 0.47 0.53 0.59 0.76 0.95 1.05 1.08 1.17 1.37 1.60 1.77 1.95 2.03 1.78 1.31 0.96 0.83 0.80 0.72 0.67 0.77 0.92 0.86
0.63 0.52 0.41 0.35 0.34 0.33 0.33 0.30 0.27 0.24 0.26 0.30 0.32 0.34 0.38 0.43 0.49 0.55 0.65 0.80 0.93 1.03 1.13 1.26 1.47 1.69 1.81 1.90 1.97 1.60 1.20 1.01 0.96 0.97 0.86 0.76 0.80 0.85
0.45 0.40 0.38 0.34 0.32 0.32 0.31 0.31 0.28 0.27 0.28 0.28 0.28 0.29 0.34 0.41 0.46 0.49 0.56 0.71 0.84 0.96 1.07 1.16 1.33 1.52 1.60 1.55 1.64 1.70 1.56 1.23 1.08 1.09 1.02 0.93 0.93 1.04
0.41 0.38 0.36 0.38 0.36 0.33 0.31 0.30 0.31 0.29 0.27 0.27 0.27 0.27 0.29 0.37 0.41 0.43 0.49 0.61 0.77 0.89 0.97 1.04 1.16 1.32 1.49 1.49 1.43 1.41 1.58 1.60 1.27 1.09 1.04 1.10 1.21 1.23
0.38 0.37 0.35 0.37 0.38 0.36 0.35 0.33 0.33 0.30 0.28 0.26 0.25 0.24 0.26 0.31 0.36 0.39 0.46 0.54 0.65 0.76 0.86 0.94 1.07 1.29 1.52 1.59 1.44 1.29 1.43 1.65 1.67 1.40 1.17 1.11 1.23 1.27
0.40 0.38 0.37 0.37 0.37 0.35 0.35 0.35 0.33 0.29 0.25 0.24 0.22 0.21 0.22 0.26 0.28 0.34 0.40 0.47 0.56 0.66 0.79 0.93 1.06 1.25 1.44 1.51 1.50 1.33 1.27 1.41 1.55 1.57 1.54 1.29 0.98 0.80

GEFSNE_prec_meanprecacc_180.txt.gz
Total_Precipitation_Accumulation
0.57 0.55 0.56 0.49 0.46 0.46 0.48 0.57 0.72 0.53 0.20 0.10 0.10 0.11 0.14 0.18 0.23 0.23 0.23 0.24 0.28 0.33 0.38 0.41 0.45 0.59 0.91 1.53 2.49 3.49 3.66 2.94 2.08 1.57 1.51 1.87 2.24 2.64
0.61 0.62 0.61 0.61 0.58 0.53 0.51 0.52 0.60 0.67 0.42 0.12 0.11 0.13 0.17 0.20 0.25 0.22 0.23 0.27 0.26 0.28 0.30 0.35 0.40 0.52 0.72 1.03 1.62 2.52 3.38 3.59 3.04 2.32 1.93 1.97 2.22 2.49
0.66 0.70 0.69 0.69 0.74 0.68 0.62 0.56 0.53 0.57 0.55 0.19 0.09 0.11 0.19 0.24 0.25 0.24 0.26 0.25 0.22 0.23 0.26 0.30 0.37 0.46 0.62 0.84 1.18 1.77 2.60 3.31 3.50 3.10 2.65 2.36 2.31 2.35
0.75 0.74 0.73 0.74 0.77 0.77 0.75 0.67 0.55 0.47 0.51 0.36 0.15 0.12 0.17 0.26 0.32 0.30 0.28 0.26 0.22 0.23 0.26 0.30 0.35 0.44 0.56 0.74 0.97 1.30 1.92 2.58 3.13 3.27 3.03 2.64 2.43 2.48
1.01 0.98 0.88 0.82 0.82 0.79 0.80 0.75 0.63 0.53 0.49 0.46 0.28 0.18 0.19 0.28 0.40 0.41 0.36 0.31 0.26 0.25 0.26 0.28 0.31 0.37 0.47 0.60 0.79 1.02 1.32 1.75 2.26 2.87 3.11 2.91 2.59 2.48
1.09 1.10 1.06 1.05 0.97 0.90 0.87 0.82 0.77 0.73 0.64 0.61 0.48 0.33 0.28 0.32 0.48 0.55 0.47 0.38 0.33 0.29 0.30 0.29 0.31 0.35 0.37 0.40 0.47 0.65 0.91 1.30 1.78 2.33 2.85 2.98 2.70 2.49
0.89 0.91 0.98 1.10 1.14 1.17 1.18 1.09 1.05 1.10 1.01 0.91 0.75 0.59 0.47 0.49 0.58 0.62 0.68 0.58 0.47 0.40 0.37 0.30 0.29 0.26 0.25 0.29 0.36 0.47 0.65 0.90 1.26 1.75 2.27 2.67 2.73 2.59
0.73 0.70 0.73 0.89 0.97 1.06 1.17 1.17 1.22 1.37 1.41 1.29 1.06 0.86 0.62 0.56 0.62 0.76 0.88 0.92 0.76 0.48 0.48 0.44 0.38 0.35 0.28 0.24 0.28 0.36 0.51 0.73 0.97 1.30 1.71 2.16 2.46 2.62
0.56 0.56 0.57 0.64 0.75 0.74 0.85 0.93 1.00 1.15 1.35 1.43 1.36 1.02 0.75 0.60 0.74 0.89 0.92 0.99 0.87 0.68 0.74 0.80 0.63 0.52 0.40 0.35 0.38 0.38 0.46 0.60 0.77 0.99 1.29 1.71 2.11 2.40
0.46 0.45 0.43 0.47 0.59 0.72 0.79 0.79 0.77 0.86 1.13 1.35 1.47 1.27 1.02 0.88 1.00 1.22 1.31 1.29 1.09 0.93 0.95 1.13 0.93 0.75 0.61 0.51 0.45 0.40 0.44 0.50 0.62 0.78 1.02 1.35 1.75 2.06
0.43 0.43 0.39 0.36 0.55 0.74 0.75 0.68 0.60 0.63 0.78 1.07 1.27 1.31 1.29 1.33 1.41 1.64 1.79 1.72 1.54 1.24 1.11 1.23 1.21 1.08 0.93 0.81 0.64 0.51 0.45 0.47 0.53 0.66 0.81 1.04 1.39 1.82
0.41 0.40 0.46 0.49 0.62 0.69 0.65 0.66 0.68 0.59 0.57 0.64 0.74 0.83 0.91 0.99 1.22 1.47 1.65 1.73 1.70 1.67 1.32 1.24 1.39 1.45 1.55 1.21 0.86 0.57 0.47 0.51 0.54 0.61 0.71 0.85 1.13 1.44
0.49 0.43 0.41 0.51 0.56 0.60 0.63 0.63 0.72 0.66 0.61 0.70 0.72 0.68 0.72 0.82 0.96 1.19 1.46 1.64 1.77 1.73 1.38 1.36 1.58 1.50 1.59 1.49 1.16 0.82 0.52 0.47 0.52 0.62 0.70 0.78 0.93 1.09
0.50 0.42 0.42 0.51 0.56 0.62 0.61 0.64 0.69 0.68 0.65 0.67 0.62 0.59 0.64 0.74 0.85 1.02 1.23 1.40 1.48 1.50 1.32 1.33 1.69 1.54 1.44 1.33 1.22 1.09 0.80 0.58 0.50 0.51 0.60 0.82 0.97 1.02
0.65 0.66 0.59 0.61 0.61 0.56 0.57 0.60 0.59 0.57 0.62 0.64 0.56 0.49 0.53 0.66 0.74 0.85 0.98 1.16 1.27 1.31 1.32 1.28 1.45 1.52 1.50 1.37 1.10 0.99 0.97 0.85 0.62 0.55 0.59 0.67 0.76 0.85
0.76 0.77 0.74 0.70 0.61 0.55 0.53 0.47 0.44 0.49 0.54 0.55 0.49 0.43 0.44 0.54 0.66 0.78 0.92 1.06 1.23 1.25 1.27 1.33 1.45 1.66 1.67 1.34 1.15 0.98 0.84 0.93 0.79 0.60 0.60 0.67 0.67 0.63
0.86 0.81 0.72 0.68 0.67 0.57 0.49 0.42 0.40 0.44 0.47 0.43 0.44 0.44 0.46 0.52 0.59 0.69 0.89 1.04 1.18 1.17 1.26 1.45 1.58 1.66 1.74 1.67 1.52 1.12 0.83 0.76 0.72 0.63 0.65 0.78 0.83 0.74
0.90 0.82 0.65 0.56 0.56 0.52 0.48 0.44 0.40 0.38 0.37 0.38 0.43 0.45 0.48 0.53 0.59 0.65 0.80 0.98 1.08 1.10 1.18 1.38 1.60 1.78 1.96 2.04 1.78 1.31 0.97 0.84 0.80 0.72 0.68 0.78 0.93 0.87
0.71 0.60 0.49 0.45 0.43 0.43 0.43 0.39 0.36 0.33 0.35 0.39 0.40 0.40 0.44 0.49 0.55 0.61 0.69 0.83 0.96 1.05 1.14 1.27 1.48 1.69 1.82 1.91 1.97 1.60 1.21 1.01 0.97 0.97 0.86 0.76 0.81 0.86
0.52 0.48 0.46 0.43 0.42 0.42 0.40 0.39 0.37 0.36 0.38 0.38 0.37 0.36 0.40 0.47 0.52 0.54 0.60 0.74 0.86 0.97 1.08 1.17 1.34 1.52 1.61 1.56 1.64 1.70 1.56 1.24 1.09 1.10 1.02 0.93 0.93 1.05
0.49 0.45 0.44 0.46 0.45 0.42 0.39 0.38 0.38 0.37 0.35 0.36 0.35 0.34 0.36 0.44 0.48 0.49 0.54 0.65 0.80 0.91 0.98 1.05 1.17 1.33 1.49 1.50 1.44 1.42 1.59 1.60 1.28 1.09 1.05 1.11 1.22 1.24
0.46 0.45 0.44 0.46 0.46 0.44 0.42 0.40 0.40 0.38 0.36 0.35 0.33 0.32 0.33 0.39 0.43 0.45 0.51 0.58 0.67 0.78 0.87 0.96 1.08 1.30 1.53 1.60 1.45 1.30 1.43 1.65 1.68 1.41 1.18 1.12 1.25 1.30
0.47 0.48 0.47 0.46 0.45 0.44 0.43 0.42 0.41 0.37 0.34 0.33 0.30 0.28 0.30 0.33 0.34 0.39 0.45 0.50 0.57 0.67 0.81 0.94 1.07 1.26 1.45 1.52 1.50 1.34 1.28 1.41 1.56 1.58 1.55 1.31 0.99 0.82

GEFSNE_prec_meanprecacc_186.txt.gz
Total_Precipitation_Accumulation
0.66 0.64 0.65 0.57 0.53 0.54 0.56 0.67 0.85 0.68 0.33 0.20 0.18 0.18 0.21 0.26 0.29 0.27 0.26 0.28 0.32 0.37 0.43 0.46 0.51 0.65 0.95 1.55 2.51 3.50 3.67 2.95 2.09 1.57 1.52 1.88 2.25 2.65
0.71 0.72 0.71 0.70 0.67 0.61 0.60 0.62 0.71 0.79 0.54 0.22 0.19 0.20 0.25 0.29 0.34 0.28 0.29 0.33 0.31 0.33 0.37 0.42 0.46 0.58 0.76 1.05 1.63 2.53 3.39 3.59 3.04 2.32 1.94 1.98 2.23 2.50
0.77 0.80 0.78 0.78 0.82 0.78 0.71 0.66 0.64 0.68 0.66 0.28 0.18 0.18 0.26 0.32 0.33 0.31 0.32 0.31 0.27 0.29 0.33 0.38 0.44 0.52 0.66 0.87 1.19 1.77 2.60 3.31 3.50 3.11 2.66 2.37 2.32 2.37
0.84 0.84 0.83 0.83 0.86 0.86 0.85 0.76 0.65 0.57 0.60 0.44 0.24 0.21 0.24 0.33 0.38 0.37 0.34 0.31 0.28 0.30 0.33 0.39 0.44 0.50 0.61 0.77 0.98 1.31 1.92 2.58 3.14 3.28 3.03 2.65 2.44 2.49
1.08 1.05 0.96 0.91 0.92 0.88 0.90 0.85 0.74 0.63 0.57 0.55 0.37 0.26 0.27 0.34 0.47 0.49 0.41 0.36 0.31 0.32 0.34 0.38 0.41 0.44 0.52 0.63 0.81 1.04 1.33 1.76 2.26 2.87 3.11 2.91 2.59 2.49
1.16 1.18 1.14 1.13 1.06 0.99 0.97 0.93 0.88 0.83 0.74 0.71 0.58 0.42 0.36 0.39 0.55 0.63 0.55 0.45 0.39 0.35 0.37 0.37 0.39 0.42 0.43 0.44 0.50 0.66 0.92 1.31 1.79 2.33 2.85 2.98 2.70 2.50
0.99 1.00 1.07 1.19 1.23 1.27 1.29 1.19 1.15 1.21 1.12 1.01 0.84 0.67 0.55 0.57 0.67 0.71 0.78 0.66 0.54 0.46 0.44 0.38 0.35 0.31 0.30 0.33 0.39 0.49 0.67 0.91 1.27 1.76 2.28 2.68 2.73 2.60
0.83 0.79 0.81 0.98 1.06 1.16 1.27 1.27 1.32 1.47 1.51 1.39 1.14 0.93 0.68 0.62 0.69 0.85 0.98 1.02 0.86 0.56 0.54 0.51 0.43 0.39 0.31 0.27 0.31 0.39 0.53 0.75 0.98 1.31 1.72 2.17 2.47 2.63
0.64 0.64 0.66 0.74 0.85 0.84 0.95 1.03 1.09 1.25 1.45 1.52 1.45 1.09 0.81 0.66 0.80 0.97 1.01 1.08 0.95 0.75 0.80 0.86 0.68 0.56 0.43 0.38 0.41 0.40 0.48 0.61 0.78 0.99 1.30 1.72 2.12 2.41
0.53 0.52 0.51 0.56 0.69 0.81 0.89 0.89 0.85 0.95 1.22 1.42 1.54 1.33 1.07 0.93 1.06 1.31 1.41 1.39 1.19 1.01 1.01 1.18 0.97 0.78 0.65 0.54 0.48 0.42 0.45 0.51 0.63 0.78 1.02 1.36 1.75 2.07
0.51 0.51 0.46 0.44 0.63 0.83 0.83 0.76 0.67 0.71 0.87 1.14 1.33 1.37 1.35 1.39 1.48 1.75 1.90 1.84 1.67 1.34 1.17 1.27 1.25 1.12 0.97 0.84 0.67 0.53 0.47 0.48 0.53 0.67 0.82 1.05 1.40 1.82
0.52 0.50 0.55 0.57 0.70 0.76 0.71 0.73 0.75 0.66 0.63 0.71 0.80 0.88 0.97 1.06 1.32 1.57 1.73 1.81 1.79 1.75 1.38 1.28 1.44 1.50 1.59 1.24 0.89 0.59 0.49 0.52 0.55 0.61 0.72 0.86 1.14 1.44
0.58 0.54 0.51 0.60 0.64 0.67 0.69 0.68 0.78 0.72 0.67 0.77 0.78 0.74 0.78 0.90 1.05 1.29 1.54 1.72 1.84 1.80 1.43 1.42 1.64 1.55 1.63 1.52 1.19 0.83 0.54 0.49 0.53 0.62 0.71 0.79 0.93 1.09
0.58 0.50 0.50 0.60 0.64 0.69 0.67 0.71 0.76 0.75 0.72 0.72 0.67 0.65 0.70 0.80 0.92 1.09 1.30 1.47 1.55 1.58 1.39 1.40 1.74 1.59 1.48 1.36 1.25 1.11 0.81 0.59 0.50 0.52 0.60 0.83 0.97 1.02
0.73 0.73 0.66 0.68 0.68 0.62 0.64 0.67 0.66 0.63 0.69 0.70 0.61 0.54 0.58 0.71 0.79 0.91 1.05 1.24 1.35 1.40 1.39 1.35 1.51 1.58 1.55 1.41 1.13 1.02 0.98 0.86 0.63 0.55 0.59 0.67 0.76 0.86
0.84 0.85 0.82 0.77 0.68 0.61 0.59 0.55 0.51 0.56 0.61 0.61 0.54 0.47 0.49 0.60 0.71 0.83 0.99 1.14 1.32 1.35 1.35 1.40 1.50 1.70 1.70 1.36 1.16 1.00 0.85 0.94 0.80 0.61 0.61 0.67 0.67 0.63
0.94 0.89 0.80 0.76 0.74 0.64 0.55 0.49 0.48 0.53 0.54 0.49 0.49 0.49 0.51 0.57 0.64 0.74 0.95 1.11 1.26 1.26 1.34 1.52 1.62 1.69 1.76 1.69 1.53 1.13 0.84 0.76 0.73 0.63 0.65 0.78 0.84 0.75
0.96 0.87 0.71 0.62 0.61 0.58 0.55 0.52 0.48 0.46 0.43 0.44 0.48 0.51 0.54 0.59 0.65 0.71 0.87 1.06 1.15 1.17 1.24 1.43 1.64 1.80 1.98 2.05 1.80 1.33 0.97 0.84 0.80 0.73 0.68 0.78 0.94 0.88
0.75 0.65 0.54 0.49 0.47 0.48 0.49 0.47 0.44 0.41 0.41 0.45 0.46 0.46 0.50 0.55 0.62 0.68 0.77 0.90 1.02 1.10 1.18 1.30 1.50 1.71 1.84 1.93 1.99 1.61 1.21 1.01 0.97 0.98 0.87 0.77 0.82 0.87
0.59 0.54 0.51 0.47 0.46 0.47 0.47 0.46 0.44 0.42 0.44 0.44 0.43 0.42 0.45 0.52 0.57 0.61 0.66 0.79 0.92 1.02 1.11 1.19 1.35 1.54 1.62 1.57 1.66 1.71 1.57 1.24 1.09 1.10 1.03 0.93 0.94 1.05
0.56 0.51 0.50 0.51 0.50 0.47 0.45 0.45 0.46 0.44 0.41 0.42 0.41 0.40 0.42 0.49 0.53 0.54 0.60 0.71 0.84 0.94 1.00 1.06 1.19 1.35 1.52 1.52 1.45 1.43 1.59 1.60 1.28 1.10 1.05 1.12 1.23 1.25
0.52 0.51 0.50 0.52 0.53 0.51 0.48 0.48 0.48 0.45 0.42 0.41 0.38 0.37 0.38 0.44 0.48 0.50 0.56 0.63 0.71 0.80 0.89 0.98 1.11 1.34 1.56 1.61 1.46 1.31 1.44 1.66 1.68 1.41 1.19 1.14 1.27 1.34
0.54 0.54 0.53 0.53 0.53 0.51 0.50 0.49 0.48 0.44 0.40 0.39 0.37 0.35 0.36 0.39 0.41 0.45 0.50 0.53 0.60 0.70 0.83 0.98 1.11 1.29 1.47 1.53 1.51 1.35 1.28 1.42 1.56 1.58 1.56 1.32 1.01 0.85

GEFSNE_prec_meanprecacc_192.txt.gz
Total_Precipitation_Accumulation
0.69 0.68 0.70 0.62 0.59 0.60 0.62 0.74 0.94 0.78 0.46 0.33 0.32 0.33 0.34 0.38 0.42 0.39 0.37 0.39 0.43 0.48 0.52 0.52 0.57 0.71 1.02 1.63 2.59 3.59 3.77 3.03 2.15 1.63 1.58 1.95 2.33 2.73
0.74 0.76 0.76 0.75 0.73 0.67 0.67 0.70 0.80 0.88 0.64 0.33 0.30 0.32 0.39 0.44 0.49 0.42 0.41 0.46 0.43 0.43 0.45 0.49 0.53 0.64 0.83 1.13 1.71 2.60 3.46 3.66 3.10 2.37 1.98 2.02 2.28 2.56
0.80 0.85 0.84 0.84 0.89 0.84 0.78 0.73 0.72 0.78 0.75 0.38 0.29 0.31 0.43 0.51 0.52 0.48 0.48 0.45 0.38 0.38 0.41 0.45 0.51 0.58 0.73 0.94 1.25 1.83 2.66 3.37 3.56 3.15 2.69 2.40 2.35 2.40
0.88 0.88 0.89 0.90 0.93 0.93 0.92 0.83 0.72 0.65 0.67 0.52 0.35 0.36 0.42 0.52 0.57 0.54 0.50 0.46 0.40 0.39 0.41 0.46 0.50 0.57 0.67 0.84 1.05 1.37 1.98 2.63 3.18 3.32 3.07 2.68 2.47 2.52
1.13 1.10 1.01 0.98 1.00 0.96 0.97 0.93 0.82 0.70 0.64 0.62 0.46 0.38 0.42 0.50 0.62 0.63 0.55 0.50 0.45 0.43 0.42 0.45 0.48 0.52 0.60 0.72 0.89 1.11 1.39 1.81 2.31 2.92 3.15 2.94 2.62 2.52
1.22 1.23 1.19 1.18 1.13 1.07 1.06 1.01 0.96 0.93 0.84 0.81 0.68 0.53 0.49 0.52 0.67 0.76 0.69 0.57 0.51 0.47 0.48 0.46 0.49 0.52 0.52 0.53 0.59 0.76 1.00 1.38 1.85 2.39 2.90 3.02 2.73 2.53
1.05 1.06 1.13 1.25 1.29 1.35 1.38 1.28 1.23 1.28 1.21 1.12 0.95 0.78 0.65 0.68 0.77 0.81 0.88 0.77 0.64 0.58 0.56 0.48 0.46 0.44 0.41 0.42 0.47 0.59 0.77 1.00 1.35 1.83 2.33 2.72 2.77 2.63
0.89 0.84 0.86 1.04 1.13 1.23 1.35 1.35 1.39 1.53 1.57 1.47 1.24 1.02 0.76 0.70 0.77 0.93 1.07 1.13 0.98 0.67 0.69 0.66 0.55 0.52 0.42 0.36 0.39 0.48 0.63 0.84 1.07 1.40 1.79 2.22 2.50 2.65
0.70 0.70 0.72 0.80 0.93 0.92 1.05 1.11 1.18 1.33 1.51 1.58 1.51 1.15 0.88 0.73 0.89 1.07 1.11 1.18 1.06 0.87 0.94 1.03 0.81 0.66 0.51 0.47 0.50 0.49 0.56 0.69 0.86 1.07 1.37 1.77 2.15 2.42
0.58 0.57 0.56 0.62 0.75 0.89 0.98 0.97 0.93 1.02 1.29 1.48 1.60 1.40 1.15 1.01 1.15 1.40 1.52 1.52 1.32 1.13 1.12 1.31 1.08 0.87 0.74 0.64 0.57 0.51 0.53 0.59 0.69 0.84 1.07 1.39 1.78 2.08
0.56 0.56 0.51 0.49 0.70 0.90 0.91 0.85 0.76 0.79 0.96 1.23 1.42 1.46 1.46 1.51 1.60 1.86 2.02 1.97 1.80 1.47 1.29 1.37 1.35 1.21 1.05 0.92 0.74 0.60 0.53 0.54 0.59 0.71 0.85 1.08 1.42 1.84
0.57 0.55 0.61 0.63 0.77 0.83 0.79 0.82 0.84 0.75 0.73 0.81 0.90 0.98 1.06 1.16 1.41 1.66 1.83 1.92 1.90 1.86 1.49 1.37 1.52 1.59 1.68 1.31 0.94 0.64 0.54 0.57 0.59 0.65 0.75 0.89 1.16 1.45
0.64 0.60 0.57 0.68 0.72 0.74 0.77 0.77 0.87 0.81 0.76 0.85 0.86 0.82 0.86 0.98 1.11 1.35 1.62 1.80 1.92 1.87 1.51 1.49 1.71 1.62 1.70 1.58 1.24 0.89 0.59 0.53 0.56 0.65 0.73 0.80 0.94 1.10
0.64 0.55 0.56 0.67 0.72 0.77 0.75 0.79 0.85 0.83 0.79 0.80 0.76 0.73 0.78 0.87 0.98 1.15 1.37 1.54 1.62 1.63 1.46 1.47 1.81 1.66 1.55 1.41 1.30 1.17 0.86 0.64 0.54 0.55 0.62 0.84 0.98 1.03
0.81 0.80 0.73 0.75 0.77 0.72 0.73 0.75 0.73 0.71 0.76 0.77 0.69 0.63 0.66 0.78 0.87 0.98 1.13 1.32 1.45 1.49 1.49 1.43 1.59 1.66 1.62 1.47 1.18 1.06 1.03 0.90 0.66 0.57 0.61 0.68 0.77 0.86
0.96 0.95 0.90 0.86 0.77 0.71 0.69 0.63 0.58 0.63 0.67 0.67 0.61 0.55 0.57 0.67 0.79 0.91 1.06 1.22 1.42 1.47 1.46 1.51 1.59 1.78 1.78 1.43 1.21 1.04 0.89 0.98 0.82 0.62 0.62 0.68 0.68 0.64
1.05 1.00 0.90 0.87 0.85 0.75 0.64 0.56 0.54 0.59 0.60 0.55 0.56 0.57 0.58 0.65 0.72 0.82 1.02 1.18 1.34 1.34 1.44 1.63 1.73 1.78 1.84 1.74 1.58 1.17 0.88 0.79 0.74 0.64 0.66 0.79 0.85 0.75
1.05 0.97 0.80 0.71 0.71 0.67 0.62 0.58 0.54 0.53 0.50 0.49 0.55 0.58 0.61 0.67 0.73 0.79 0.95 1.13 1.23 1.24 1.32 1.51 1.72 1.87 2.03 2.10 1.84 1.36 1.00 0.86 0.82 0.73 0.69 0.79 0.94 0.89
0.84 0.74 0.64 0.57 0.54 0.54 0.55 0.52 0.49 0.47 0.48 0.51 0.52 0.52 0.56 0.62 0.68 0.75 0.84 0.97 1.09 1.18 1.25 1.35 1.55 1.76 1.87 1.96 2.03 1.64 1.23 1.02 0.98 0.98 0.87 0.77 0.82 0.87
0.70 0.65 0.61 0.56 0.53 0.52 0.52 0.51 0.49 0.48 0.51 0.52 0.50 0.48 0.52 0.59 0.64 0.67 0.73 0.86 0.98 1.07 1.16 1.24 1.39 1.57 1.65 1.60 1.69 1.73 1.58 1.25 1.09 1.10 1.03 0.94 0.94 1.06
0.64 0.60 0.59 0.60 0.59 0.55 0.51 0.50 0.51 0.50 0.49 0.51 0.49 0.46 0.48 0.56 0.59 0.60 0.67 0.78 0.90 0.98 1.04 1.10 1.22 1.39 1.55 1.55 1.47 1.45 1.61 1.62 1.29 1.10 1.05 1.12 1.23 1.26
0.59 0.59 0.57 0.60 0.62 0.60 0.56 0.55 0.55 0.53 0.50 0.51 0.47 0.43 0.44 0.50 0.54 0.56 0.62 0.69 0.75 0.84 0.93 1.02 1.15 1.37 1.59 1.63 1.48 1.32 1.45 1.67 1.69 1.41 1.19 1.14 1.29 1.36
0.61 0.61 0.60 0.60 0.61 0.60 0.59 0.58 0.57 0.53 0.49 0.48 0.45 0.40 0.41 0.45 0.47 0.51 0.54 0.57 0.63 0.73 0.87 1.02 1.15 1.32 1.49 1.55 1.53 1.36 1.30 1.43 1.57 1.59 1.57 1.33 1.02 0.86

GEFSNE_prec_meanprecacc_198.txt.gz
Total_Precipitation_Accumulation
0.74 0.71 0.72 0.64 0.60 0.61 0.64 0.78 0.99 0.84 0.50 0.36 0.35 0.37 0.42 0.48 0.54 0.53 0.51 0.56 0.62 0.71 0.79 0.81 0.79 0.90 1.22 1.82 2.75 3.72 3.87 3.12 2.24 1.72 1.66 2.03 2.40 2.80
0.79 0.80 0.78 0.77 0.75 0.69 0.69 0.73 0.85 0.93 0.69 0.36 0.33 0.35 0.47 0.55 0.62 0.56 0.57 0.64 0.62 0.68 0.73 0.76 0.76 0.82 1.00 1.30 1.86 2.74 3.57 3.75 3.16 2.43 2.04 2.07 2.33 2.61
0.85 0.90 0.88 0.86 0.91 0.86 0.80 0.76 0.77 0.84 0.82 0.42 0.32 0.34 0.50 0.64 0.67 0.66 0.68 0.65 0.58 0.61 0.67 0.72 0.73 0.76 0.89 1.08 1.38 1.95 2.77 3.45 3.62 3.20 2.74 2.44 2.39 2.44
0.92 0.93 0.94 0.94 0.97 0.96 0.95 0.87 0.76 0.70 0.75 0.60 0.40 0.41 0.50 0.65 0.74 0.75 0.74 0.71 0.64 0.63 0.65 0.70 0.72 0.75 0.84 0.97 1.16 1.49 2.08 2.70 3.24 3.37 3.11 2.72 2.50 2.55
1.17 1.14 1.06 1.03 1.05 1.01 1.02 0.97 0.86 0.75 0.71 0.70 0.53 0.44 0.51 0.63 0.78 0.83 0.78 0.76 0.72 0.72 0.69 0.68 0.69 0.71 0.76 0.85 1.00 1.21 1.47 1.88 2.37 2.96 3.19 2.97 2.65 2.55
1.27 1.28 1.24 1.23 1.18 1.13 1.12 1.07 1.02 0.98 0.91 0.90 0.78 0.62 0.58 0.63 0.83 0.97 0.93 0.82 0.77 0.74 0.73 0.67 0.69 0.68 0.66 0.64 0.68 0.84 1.07 1.43 1.91 2.44 2.93 3.05 2.77 2.56
1.10 1.11 1.17 1.30 1.35 1.40 1.43 1.33 1.28 1.33 1.28 1.22 1.05 0.88 0.76 0.80 0.92 0.97 1.09 1.01 0.89 0.81 0.78 0.68 0.64 0.58 0.53 0.51 0.55 0.66 0.83 1.05 1.40 1.88 2.38 2.77 2.82 2.67
0.93 0.88 0.89 1.08 1.17 1.27 1.39 1.40 1.45 1.58 1.63 1.55 1.33 1.11 0.87 0.80 0.89 1.07 1.24 1.35 1.21 0.87 0.86 0.82 0.69 0.65 0.54 0.45 0.47 0.54 0.69 0.91 1.13 1.45 1.84 2.28 2.57 2.71
0.73 0.74 0.75 0.84 0.97 0.96 1.09 1.17 1.24 1.39 1.59 1.66 1.60 1.23 0.97 0.82 0.99 1.19 1.24 1.34 1.23 1.00 1.05 1.16 0.95 0.80 0.64 0.58 0.60 0.55 0.63 0.78 0.93 1.14 1.45 1.85 2.22 2.49
0.62 0.60 0.60 0.66 0.80 0.94 1.03 1.05 1.01 1.11 1.37 1.56 1.68 1.49 1.24 1.10 1.25 1.52 1.65 1.66 1.49 1.27 1.22 1.42 1.20 1.01 0.87 0.75 0.68 0.61 0.63 0.69 0.79 0.92 1.14 1.47 1.85 2.15
0.60 0.60 0.55 0.53 0.75 0.96 0.97 0.94 0.85 0.88 1.05 1.31 1.51 1.57 1.57 1.63 1.71 1.98 2.16 2.11 1.95 1.62 1.39 1.47 1.45 1.33 1.17 1.02 0.85 0.71 0.64 0.65 0.69 0.79 0.92 1.14 1.48 1.89
0.63 0.60 0.66 0.68 0.83 0.89 0.85 0.90 0.93 0.84 0.80 0.88 0.98 1.08 1.17 1.28 1.52 1.77 1.94 2.02 1.99 1.96 1.57 1.45 1.59 1.67 1.78 1.40 1.03 0.74 0.63 0.66 0.67 0.72 0.81 0.95 1.21 1.48
0.72 0.67 0.63 0.74 0.78 0.81 0.84 0.86 0.97 0.89 0.83 0.93 0.95 0.91 0.95 1.07 1.21 1.44 1.71 1.87 1.98 1.93 1.57 1.55 1.76 1.67 1.76 1.66 1.32 0.96 0.66 0.59 0.62 0.71 0.80 0.86 0.99 1.13
0.72 0.63 0.63 0.75 0.79 0.84 0.83 0.89 0.95 0.93 0.88 0.89 0.85 0.82 0.85 0.95 1.06 1.23 1.45 1.62 1.68 1.68 1.50 1.51 1.86 1.70 1.59 1.46 1.36 1.23 0.92 0.69 0.59 0.60 0.67 0.89 1.02 1.06
0.90 0.90 0.82 0.85 0.86 0.80 0.82 0.84 0.83 0.80 0.86 0.86 0.77 0.70 0.72 0.84 0.93 1.05 1.20 1.39 1.50 1.55 1.54 1.48 1.64 1.71 1.67 1.52 1.22 1.11 1.08 0.95 0.70 0.61 0.65 0.71 0.79 0.89
1.06 1.06 1.01 0.96 0.85 0.78 0.76 0.71 0.68 0.72 0.76 0.75 0.68 0.61 0.62 0.72 0.84 0.96 1.13 1.29 1.48 1.53 1.53 1.57 1.64 1.83 1.83 1.48 1.25 1.07 0.93 1.02 0.85 0.65 0.65 0.71 0.71 0.66
1.14 1.09 0.99 0.96 0.93 0.81 0.71 0.65 0.63 0.67 0.67 0.61 0.61 0.62 0.63 0.70 0.77 0.88 1.08 1.23 1.39 1.40 1.50 1.71 1.80 1.85 1.90 1.80 1.62 1.21 0.92 0.83 0.78 0.67 0.69 0.82 0.87 0.77
1.13 1.04 0.87 0.78 0.77 0.72 0.67 0.64 0.60 0.59 0.55 0.55 0.60 0.63 0.65 0.71 0.77 0.83 1.00 1.18 1.27 1.28 1.37 1.57 1.78 1.93 2.10 2.17 1.89 1.40 1.03 0.89 0.85 0.76 0.71 0.81 0.96 0.89
0.92 0.81 0.70 0.64 0.60 0.58 0.59 0.56 0.54 0.51 0.53 0.56 0.57 0.57 0.60 0.66 0.72 0.79 0.89 1.02 1.14 1.22 1.29 1.39 1.60 1.80 1.92 2.02 2.09 1.68 1.26 1.05 1.00 1.00 0.89 0.79 0.83 0.88
0.76 0.70 0.68 0.63 0.59 0.57 0.56 0.55 0.52 0.52 0.56 0.57 0.55 0.53 0.56 0.64 0.68 0.71 0.77 0.90 1.02 1.12 1.20 1.28 1.43 1.62 1.70 1.64 1.74 1.79 1.62 1.28 1.12 1.12 1.05 0.95 0.95 1.06
0.71 0.66 0.65 0.67 0.64 0.60 0.56 0.54 0.55 0.54 0.53 0.56 0.53 0.51 0.53 0.60 0.63 0.64 0.71 0.83 0.95 1.01 1.07 1.14 1.27 1.43 1.59 1.59 1.52 1.50 1.65 1.65 1.32 1.13 1.07 1.14 1.24 1.26
0.65 0.64 0.63 0.65 0.67 0.65 0.61 0.60 0.59 0.57 0.55 0.55 0.51 0.48 0.49 0.54 0.58 0.61 0.66 0.72 0.79 0.87 0.96 1.06 1.19 1.40 1.62 1.67 1.52 1.36 1.48 1.69 1.72 1.44 1.21 1.16 1.31 1.39
0.67 0.66 0.64 0.64 0.66 0.65 0.64 0.63 0.63 0.58 0.54 0.52 0.48 0.44 0.45 0.49 0.51 0.56 0.59 0.60 0.67 0.76 0.90 1.05 1.19 1.35 1.52 1.59 1.56 1.39 1.32 1.45 1.59 1.60 1.59 1.35 1.04 0.89

GEFSNE_prec_meanprecacc_204.txt.gz
Total_Precipitation_Accumulation
0.75 0.73 0.74 0.66 0.62 0.63 0.66 0.80 1.02 0.87 0.53 0.40 0.38 0.40 0.44 0.51 0.57 0.56 0.55 0.60 0.67 0.77 0.86 0.90 0.92 1.04 1.39 2.05 2.98 3.94 4.09 3.35 2.47 1.94 1.87 2.22 2.58 2.96
0.82 0.83 0.80 0.79 0.77 0.72 0.71 0.75 0.87 0.97 0.72 0.38 0.36 0.38 0.50 0.59 0.67 0.62 0.62 0.69 0.69 0.75 0.80 0.86 0.89 0.96 1.14 1.47 2.05 2.93 3.75 3.91 3.33 2.61 2.21 2.24 2.49 2.76
0.88 0.93 0.91 0.89 0.94 0.89 0.83 0.78 0.79 0.87 0.85 0.45 0.35 0.38 0.55 0.73 0.77 0.73 0.74 0.72 0.66 0.68 0.74 0.81 0.87 0.92 1.05 1.24 1.54 2.10 2.92 3.61 3.77 3.35 2.88 2.58 2.52 2.56
0.96 0.97 0.98 0.98 1.01 0.99 0.97 0.89 0.78 0.73 0.79 0.64 0.45 0.47 0.58 0.74 0.82 0.81 0.78 0.76 0.70 0.69 0.73 0.80 0.87 0.93 1.04 1.15 1.33 1.63 2.24 2.87 3.38 3.50 3.24 2.83 2.60 2.65
1.20 1.17 1.10 1.07 1.08 1.03 1.04 1.00 0.89 0.77 0.74 0.75 0.60 0.52 0.59 0.72 0.85 0.90 0.83 0.82 0.82 0.83 0.80 0.82 0.86 0.92 1.00 1.06 1.18 1.38 1.66 2.05 2.50 3.08 3.30 3.07 2.74 2.65
1.29 1.31 1.28 1.27 1.21 1.16 1.14 1.10 1.05 1.02 0.95 0.94 0.84 0.71 0.67 0.73 0.90 1.03 1.00 0.90 0.88 0.91 0.93 0.89 0.91 0.94 0.96 0.91 0.89 1.03 1.26 1.61 2.05 2.56 3.05 3.15 2.85 2.65
1.13 1.14 1.21 1.35 1.39 1.44 1.46 1.36 1.31 1.37 1.33 1.26 1.11 0.96 0.85 0.89 1.00 1.05 1.19 1.12 1.03 1.02 1.01 0.91 0.90 0.87 0.83 0.80 0.80 0.90 1.05 1.22 1.52 1.99 2.49 2.86 2.90 2.74
0.97 0.91 0.93 1.12 1.20 1.32 1.44 1.44 1.49 1.62 1.68 1.61 1.38 1.17 0.94 0.89 0.97 1.15 1.33 1.47 1.39 1.10 1.09 1.06 0.98 0.95 0.83 0.72 0.73 0.76 0.87 1.05 1.24 1.56 1.93 2.34 2.62 2.76
0.78 0.78 0.79 0.86 0.99 0.99 1.13 1.21 1.28 1.44 1.63 1.71 1.65 1.28 1.01 0.89 1.08 1.27 1.35 1.48 1.39 1.20 1.26 1.40 1.21 1.06 0.88 0.79 0.79 0.70 0.75 0.89 1.04 1.24 1.52 1.91 2.28 2.55
0.65 0.63 0.63 0.68 0.82 0.96 1.07 1.08 1.04 1.14 1.40 1.60 1.72 1.53 1.29 1.18 1.33 1.61 1.75 1.80 1.66 1.46 1.39 1.61 1.41 1.20 1.07 0.95 0.83 0.71 0.72 0.79 0.91 1.02 1.21 1.52 1.91 2.20
0.62 0.62 0.57 0.56 0.78 0.99 1.01 0.98 0.89 0.92 1.09 1.36 1.56 1.63 1.64 1.71 1.80 2.09 2.27 2.24 2.11 1.80 1.56 1.62 1.60 1.48 1.34 1.20 0.99 0.80 0.72 0.73 0.81 0.91 1.00 1.21 1.54 1.96
0.66 0.63 0.70 0.72 0.86 0.93 0.89 0.94 0.98 0.88 0.85 0.93 1.03 1.14 1.22 1.35 1.61 1.86 2.04 2.13 2.12 2.11 1.73 1.58 1.70 1.77 1.89 1.52 1.12 0.82 0.71 0.73 0.75 0.81 0.90 1.02 1.28 1.56
0.77 0.72 0.67 0.78 0.83 0.86 0.89 0.91 1.02 0.93 0.87 0.97 0.98 0.95 0.99 1.12 1.26 1.51 1.79 1.98 2.10 2.05 1.69 1.64 1.83 1.72 1.82 1.73 1.40 1.04 0.72 0.65 0.67 0.77 0.87 0.94 1.07 1.21
0.78 0.68 0.68 0.80 0.84 0.90 0.88 0.94 1.00 0.98 0.93 0.93 0.89 0.86 0.89 0.98 1.10 1.28 1.52 1.71 1.79 1.79 1.60 1.58 1.92 1.75 1.63 1.51 1.42 1.30 0.98 0.76 0.67 0.68 0.76 0.98 1.11 1.16
0.95 0.96 0.88 0.91 0.91 0.85 0.87 0.89 0.88 0.86 0.91 0.91 0.82 0.74 0.76 0.87 0.96 1.09 1.26 1.46 1.60 1.66 1.64 1.56 1.70 1.75 1.71 1.56 1.27 1.17 1.14 1.02 0.77 0.70 0.75 0.80 0.88 0.97
1.11 1.11 1.07 1.03 0.93 0.85 0.83 0.78 0.75 0.79 0.82 0.80 0.72 0.65 0.65 0.75 0.87 1.00 1.18 1.35 1.56 1.63 1.64 1.66 1.71 1.88 1.87 1.52 1.29 1.12 0.98 1.08 0.92 0.72 0.72 0.78 0.77 0.72
1.20 1.15 1.06 1.03 1.01 0.88 0.77 0.71 0.69 0.72 0.72 0.65 0.65 0.65 0.66 0.73 0.80 0.91 1.13 1.29 1.45 1.47 1.59 1.79 1.86 1.89 1.94 1.84 1.66 1.24 0.95 0.87 0.82 0.71 0.74 0.86 0.92 0.82
1.20 1.11 0.94 0.85 0.84 0.78 0.72 0.69 0.65 0.63 0.60 0.58 0.63 0.66 0.69 0.75 0.81 0.87 1.05 1.24 1.32 1.33 1.42 1.63 1.83 1.96 2.13 2.21 1.93 1.43 1.06 0.92 0.88 0.80 0.75 0.85 1.00 0.93
0.97 0.86 0.76 0.70 0.66 0.64 0.64 0.60 0.58 0.55 0.56 0.60 0.62 0.61 0.63 0.69 0.76 0.83 0.94 1.08 1.19 1.26 1.32 1.43 1.63 1.82 1.94 2.06 2.13 1.72 1.29 1.08 1.03 1.04 0.92 0.82 0.87 0.91
0.81 0.75 0.73 0.69 0.65 0.62 0.61 0.59 0.56 0.55 0.59 0.61 0.60 0.57 0.60 0.67 0.71 0.74 0.80 0.94 1.07 1.15 1.23 1.31 1.46 1.64 1.72 1.67 1.77 1.83 1.66 1.31 1.15 1.16 1.08 0.99 0.98 1.08
0.77 0.71 0.70 0.73 0.71 0.65 0.60 0.58 0.59 0.58 0.56 0.59 0.58 0.57 0.58 0.64 0.67 0.67 0.74 0.86 0.98 1.04 1.10 1.17 1.30 1.46 1.61 1.61 1.55 1.54 1.69 1.69 1.36 1.16 1.10 1.16 1.26 1.28
0.71 0.69 0.68 0.71 0.73 0.70 0.65 0.64 0.64 0.61 0.59 0.59 0.55 0.54 0.56 0.60 0.62 0.64 0.69 0.75 0.81 0.89 0.98 1.08 1.21 1.43 1.64 1.69 1.55 1.40 1.52 1.73 1.76 1.48 1.24 1.18 1.33 1.42
0.73 0.72 0.70 0.70 0.72 0.70 0.68 0.67 0.67 0.63 0.59 0.56 0.52 0.49 0.51 0.56 0.58 0.60 0.61 0.63 0.69 0.78 0.92 1.07 1.21 1.38 1.55 1.62 1.59 1.42 1.35 1.48 1.62 1.63 1.61 1.37 1.06 0.91

GEFSNE_prec_meanprecacc_210.txt.gz
Total_Precipitation_Accumulation
0.78 0.74 0.75 0.67 0.63 0.64 0.68 0.83 1.06 0.91 0.55 0.42 0.41 0.44 0.49 0.55 0.60 0.60 0.58 0.62 0.69 0.78 0.88 0.95 0.98 1.12 1.46 2.12 3.05 4.01 4.17 3.45 2.61 2.08 2.00 2.36 2.73 3.14
0.85 0.84 0.82 0.80 0.78 0.73 0.73 0.77 0.90 1.00 0.74 0.39 0.37 0.41 0.54 0.63 0.71 0.66 0.67 0.74 0.73 0.78 0.84 0.90 0.93 1.01 1.19 1.53 2.11 3.00 3.84 4.00 3.44 2.75 2.35 2.38 2.65 2.94
0.91 0.96 0.93 0.90 0.95 0.90 0.84 0.81 0.82 0.90 0.88 0.46 0.36 0.40 0.59 0.79 0.82 0.78 0.79 0.77 0.70 0.72 0.78 0.84 0.90 0.96 1.10 1.28 1.60 2.16 3.00 3.70 3.87 3.47 3.01 2.71 2.66 2.72
0.99 0.99 1.00 1.00 1.03 1.01 1.00 0.92 0.81 0.76 0.82 0.67 0.47 0.50 0.63 0.79 0.85 0.84 0.82 0.80 0.74 0.74 0.76 0.84 0.92 0.98 1.10 1.20 1.40 1.71 2.32 2.97 3.49 3.62 3.38 2.97 2.74 2.80
1.22 1.19 1.12 1.09 1.11 1.06 1.07 1.03 0.92 0.81 0.78 0.78 0.63 0.56 0.64 0.77 0.89 0.93 0.87 0.87 0.87 0.89 0.86 0.88 0.93 0.99 1.07 1.13 1.27 1.50 1.77 2.15 2.63 3.21 3.44 3.24 2.90 2.78
1.30 1.32 1.29 1.28 1.23 1.18 1.17 1.13 1.09 1.06 0.99 0.98 0.88 0.75 0.72 0.78 0.95 1.09 1.07 0.96 0.95 0.96 0.97 0.94 0.99 1.04 1.06 1.01 1.00 1.17 1.41 1.73 2.20 2.71 3.20 3.33 2.99 2.76
1.14 1.15 1.22 1.36 1.41 1.47 1.49 1.39 1.35 1.42 1.37 1.30 1.14 1.00 0.90 0.94 1.04 1.10 1.25 1.19 1.10 1.06 1.06 0.96 0.97 0.96 0.94 0.92 0.94 1.05 1.24 1.39 1.67 2.14 2.65 3.04 3.04 2.86
0.98 0.92 0.94 1.13 1.23 1.35 1.47 1.48 1.53 1.67 1.73 1.64 1.41 1.21 0.98 0.92 1.00 1.19 1.39 1.53 1.46 1.16 1.16 1.15 1.08 1.08 0.96 0.87 0.90 0.94 1.09 1.26 1.41 1.70 2.10 2.50 2.73 2.85
0.79 0.79 0.80 0.88 1.01 1.01 1.16 1.25 1.32 1.48 1.67 1.75 1.69 1.32 1.05 0.93 1.12 1.32 1.41 1.54 1.46 1.28 1.35 1.52 1.33 1.19 1.03 0.96 0.96 0.87 0.94 1.08 1.21 1.38 1.66 2.04 2.38 2.62
0.66 0.65 0.65 0.70 0.84 0.99 1.10 1.12 1.08 1.18 1.44 1.63 1.76 1.57 1.33 1.22 1.37 1.66 1.81 1.87 1.73 1.55 1.50 1.76 1.56 1.35 1.22 1.11 0.99 0.86 0.87 0.94 1.04 1.14 1.32 1.63 2.00 2.27
0.64 0.64 0.60 0.58 0.81 1.02 1.05 1.02 0.94 0.97 1.13 1.40 1.60 1.68 1.70 1.76 1.85 2.14 2.33 2.32 2.19 1.90 1.67 1.77 1.77 1.64 1.49 1.36 1.15 0.94 0.83 0.84 0.91 1.00 1.09 1.29 1.61 2.01
0.68 0.66 0.73 0.75 0.90 0.97 0.93 0.98 1.03 0.93 0.90 0.98 1.08 1.20 1.28 1.40 1.67 1.91 2.10 2.21 2.22 2.22 1.85 1.72 1.86 1.91 2.05 1.69 1.28 0.94 0.81 0.82 0.83 0.88 0.97 1.08 1.33 1.59
0.81 0.75 0.71 0.82 0.87 0.90 0.94 0.96 1.07 0.98 0.92 1.02 1.03 1.00 1.03 1.15 1.30 1.55 1.85 2.06 2.21 2.17 1.81 1.78 1.97 1.82 1.93 1.87 1.53 1.14 0.81 0.73 0.74 0.82 0.91 0.97 1.10 1.24
0.82 0.72 0.71 0.83 0.88 0.94 0.93 0.99 1.06 1.03 0.98 0.99 0.93 0.91 0.93 1.01 1.13 1.33 1.57 1.79 1.89 1.91 1.73 1.71 2.04 1.83 1.70 1.59 1.51 1.38 1.05 0.81 0.71 0.72 0.80 1.01 1.15 1.19
0.99 0.99 0.92 0.94 0.95 0.89 0.92 0.94 0.93 0.92 0.97 0.96 0.86 0.78 0.79 0.90 1.00 1.14 1.31 1.53 1.68 1.77 1.78 1.70 1.81 1.82 1.76 1.60 1.32 1.21 1.18 1.05 0.80 0.74 0.80 0.85 0.92 1.01
1.13 1.13 1.10 1.06 0.96 0.89 0.88 0.82 0.78 0.84 0.87 0.85 0.76 0.68 0.68 0.78 0.91 1.04 1.23 1.41 1.64 1.75 1.77 1.79 1.82 1.96 1.92 1.56 1.32 1.15 1.00 1.11 0.95 0.77 0.79 0.85 0.84 0.77
1.23 1.17 1.08 1.05 1.04 0.92 0.81 0.75 0.73 0.77 0.77 0.70 0.69 0.69 0.70 0.76 0.84 0.95 1.18 1.35 1.52 1.56 1.71 1.91 1.97 1.97 1.99 1.88 1.70 1.27 0.97 0.89 0.85 0.76 0.80 0.93 0.98 0.87
1.22 1.13 0.96 0.87 0.87 0.81 0.76 0.73 0.69 0.68 0.64 0.62 0.67 0.69 0.72 0.78 0.84 0.91 1.11 1.30 1.38 1.39 1.50 1.72 1.91 2.03 2.17 2.25 1.97 1.45 1.07 0.94 0.90 0.83 0.80 0.91 1.06 0.99
1.00 0.89 0.79 0.73 0.69 0.67 0.67 0.64 0.62 0.60 0.61 0.63 0.65 0.63 0.66 0.73 0.79 0.87 0.99 1.14 1.23 1.30 1.38 1.49 1.68 1.85 1.97 2.09 2.16 1.73 1.30 1.09 1.05 1.07 0.96 0.87 0.92 0.95
0.84 0.78 0.77 0.72 0.68 0.66 0.65 0.64 0.61 0.60 0.63 0.64 0.63 0.60 0.63 0.70 0.75 0.78 0.85 0.99 1.10 1.19 1.28 1.36 1.50 1.66 1.74 1.69 1.80 1.86 1.68 1.32 1.16 1.19 1.12 1.03 1.02 1.11
0.80 0.75 0.74 0.77 0.75 0.70 0.65 0.64 0.64 0.62 0.60 0.63 0.61 0.60 0.61 0.67 0.70 0.71 0.78 0.91 1.01 1.07 1.13 1.21 1.33 1.48 1.63 1.63 1.57 1.56 1.71 1.71 1.38 1.19 1.14 1.20 1.29 1.30
0.75 0.74 0.73 0.76 0.78 0.75 0.71 0.69 0.68 0.65 0.63 0.62 0.59 0.57 0.59 0.63 0.67 0.69 0.73 0.79 0.84 0.91 1.01 1.10 1.24 1.45 1.66 1.71 1.57 1.42 1.54 1.75 1.79 1.51 1.27 1.21 1.36 1.45
0.77 0.76 0.75 0.75 0.76 0.75 0.72 0.71 0.70 0.66 0.62 0.60 0.56 0.53 0.54 0.60 0.62 0.65 0.66 0.66 0.71 0.80 0.94 1.09 1.23 1.41 1.58 1.63 1.61 1.44 1.37 1.50 1.64 1.66 1.64 1.40 1.09 0.94

GEFSNE_prec_meanprecacc_216.txt.gz
Total_Precipitation_Accumulation
0.79 0.77 0.76 0.68 0.64 0.66 0.70 0.85 1.08 0.93 0.56 0.42 0.41 0.44 0.50 0.58 0.67 0.66 0.63 0.68 0.73 0.82 0.93 1.00 1.05 1.21 1.55 2.19 3.12 4.08 4.24 3.52 2.68 2.15 2.08 2.45 2.84 3.26
0.86 0.86 0.84 0.82 0.80 0.75 0.75 0.80 0.93 1.04 0.77 0.40 0.38 0.42 0.54 0.65 0.76 0.75 0.74 0.80 0.79 0.84 0.90 0.96 0.98 1.06 1.23 1.57 2.17 3.06 3.91 4.07 3.51 2.82 2.44 2.48 2.77 3.07
0.92 0.98 0.96 0.93 0.98 0.93 0.87 0.84 0.85 0.93 0.92 0.48 0.37 0.41 0.60 0.80 0.85 0.85 0.88 0.83 0.76 0.78 0.83 0.89 0.94 1.01 1.15 1.34 1.67 2.25 3.06 3.76 3.95 3.58 3.13 2.82 2.79 2.87
0.99 1.01 1.04 1.04 1.07 1.05 1.03 0.94 0.83 0.78 0.85 0.68 0.48 0.51 0.64 0.80 0.87 0.89 0.91 0.87 0.81 0.82 0.85 0.91 0.97 1.05 1.17 1.27 1.47 1.78 2.37 3.02 3.57 3.75 3.52 3.11 2.90 2.95
1.23 1.21 1.15 1.14 1.15 1.09 1.09 1.04 0.93 0.82 0.79 0.80 0.64 0.58 0.66 0.78 0.90 0.97 0.94 0.93 0.95 0.97 0.92 0.94 1.00 1.05 1.12 1.20 1.33 1.56 1.81 2.21 2.71 3.33 3.57 3.38 3.05 2.92
1.31 1.32 1.30 1.30 1.26 1.20 1.19 1.14 1.09 1.07 1.00 1.00 0.90 0.77 0.75 0.79 0.97 1.12 1.12 1.01 1.02 1.02 1.02 1.00 1.05 1.10 1.12 1.08 1.06 1.23 1.47 1.81 2.31 2.85 3.35 3.49 3.15 2.90
1.15 1.15 1.22 1.37 1.43 1.49 1.52 1.41 1.36 1.44 1.40 1.33 1.17 1.03 0.93 0.96 1.07 1.13 1.28 1.23 1.15 1.10 1.10 1.00 1.02 1.01 1.00 1.00 1.02 1.12 1.32 1.48 1.78 2.27 2.78 3.17 3.18 2.99
0.99 0.93 0.94 1.14 1.24 1.36 1.50 1.51 1.55 1.69 1.76 1.67 1.44 1.23 1.01 0.96 1.04 1.23 1.42 1.58 1.51 1.19 1.19 1.19 1.13 1.14 1.03 0.94 0.98 1.04 1.20 1.36 1.51 1.81 2.20 2.61 2.86 2.98
0.80 0.80 0.81 0.88 1.02 1.02 1.17 1.26 1.34 1.50 1.70 1.78 1.73 1.34 1.08 0.96 1.16 1.37 1.45 1.58 1.49 1.31 1.39 1.56 1.38 1.27 1.11 1.04 1.03 0.96 1.05 1.19 1.30 1.48 1.77 2.15 2.51 2.75
0.67 0.66 0.66 0.71 0.85 1.01 1.12 1.14 1.10 1.20 1.46 1.65 1.79 1.59 1.35 1.25 1.41 1.70 1.87 1.92 1.77 1.59 1.54 1.81 1.62 1.42 1.29 1.16 1.06 0.95 0.97 1.04 1.15 1.23 1.41 1.73 2.10 2.36
0.65 0.65 0.60 0.59 0.83 1.04 1.07 1.04 0.96 0.99 1.17 1.45 1.66 1.73 1.75 1.81 1.91 2.20 2.40 2.38 2.26 1.95 1.72 1.82 1.84 1.71 1.56 1.42 1.22 1.03 0.93 0.94 1.00 1.07 1.16 1.36 1.68 2.06
0.69 0.66 0.74 0.76 0.92 0.99 0.94 1.00 1.05 0.95 0.93 1.02 1.14 1.25 1.33 1.45 1.73 1.97 2.17 2.28 2.29 2.28 1.89 1.78 1.93 1.98 2.14 1.78 1.37 1.03 0.89 0.91 0.91 0.94 1.02 1.14 1.38 1.62
0.82 0.76 0.72 0.84 0.88 0.92 0.96 0.97 1.10 1.02 0.96 1.06 1.09 1.06 1.09 1.21 1.37 1.62 1.92 2.15 2.28 2.22 1.86 1.85 2.04 1.88 2.01 1.96 1.61 1.22 0.88 0.80 0.80 0.87 0.96 1.02 1.15 1.27
0.83 0.73 0.72 0.85 0.90 0.96 0.95 1.02 1.10 1.07 1.01 1.03 0.98 0.95 0.99 1.08 1.20 1.39 1.65 1.86 1.96 1.98 1.79 1.78 2.11 1.89 1.75 1.64 1.58 1.45 1.10 0.85 0.75 0.77 0.85 1.05 1.18 1.22
1.00 1.00 0.93 0.96 0.97 0.92 0.95 0.97 0.96 0.94 1.00 1.00 0.90 0.82 0.84 0.96 1.06 1.21 1.38 1.60 1.76 1.85 1.84 1.75 1.86 1.87 1.79 1.64 1.36 1.25 1.21 1.09 0.83 0.77 0.84 0.88 0.95 1.04
1.15 1.15 1.11 1.07 0.98 0.92 0.91 0.85 0.81 0.86 0.90 0.88 0.80 0.73 0.72 0.83 0.98 1.12 1.30 1.48 1.72 1.82 1.83 1.84 1.86 1.99 1.95 1.58 1.34 1.17 1.03 1.15 0.99 0.79 0.82 0.88 0.87 0.80
1.25 1.19 1.09 1.07 1.05 0.94 0.83 0.77 0.75 0.79 0.80 0.73 0.73 0.73 0.74 0.81 0.90 1.02 1.26 1.42 1.59 1.63 1.76 1.96 2.01 2.01 2.02 1.90 1.72 1.28 0.99 0.91 0.88 0.78 0.82 0.96 1.02 0.91
1.24 1.15 0.97 0.89 0.88 0.82 0.78 0.75 0.71 0.70 0.67 0.66 0.70 0.73 0.77 0.83 0.90 0.97 1.17 1.36 1.44 1.45 1.55 1.77 1.96 2.07 2.22 2.29 2.00 1.47 1.10 0.97 0.93 0.85 0.82 0.94 1.10 1.02
1.02 0.91 0.81 0.75 0.71 0.68 0.68 0.66 0.64 0.62 0.63 0.67 0.68 0.67 0.71 0.78 0.85 0.92 1.05 1.19 1.28 1.35 1.43 1.54 1.71 1.88 2.00 2.14 2.21 1.77 1.33 1.12 1.07 1.08 0.98 0.89 0.95 0.99
0.86 0.81 0.79 0.74 0.69 0.67 0.66 0.65 0.63 0.62 0.66 0.68 0.67 0.64 0.67 0.75 0.80 0.83 0.90 1.03 1.14 1.23 1.33 1.41 1.53 1.68 1.75 1.72 1.85 1.90 1.71 1.34 1.18 1.20 1.14 1.05 1.05 1.15
0.82 0.77 0.77 0.79 0.77 0.72 0.67 0.66 0.67 0.65 0.64 0.67 0.65 0.64 0.65 0.71 0.75 0.76 0.82 0.94 1.04 1.10 1.18 1.26 1.37 1.51 1.65 1.64 1.59 1.60 1.74 1.73 1.39 1.20 1.15 1.22 1.32 1.33
0.78 0.77 0.75 0.78 0.81 0.78 0.74 0.72 0.72 0.69 0.66 0.66 0.63 0.61 0.63 0.68 0.71 0.73 0.77 0.82 0.86 0.94 1.04 1.14 1.28 1.49 1.68 1.72 1.59 1.44 1.57 1.77 1.80 1.53 1.29 1.24 1.40 1.49
0.80 0.80 0.78 0.78 0.79 0.78 0.76 0.74 0.74 0.70 0.66 0.64 0.60 0.57 0.58 0.65 0.66 0.68 0.69 0.68 0.73 0.82 0.96 1.11 1.26 1.43 1.60 1.64 1.62 1.46 1.40 1.52 1.66 1.68 1.66 1.43 1.13 0.98

GEFSNE_prec_meanprecacc_222.txt.gz
Total_Precipitation_Accumulation
0.79 0.77 0.78 0.69 0.65 0.67 0.71 0.87 1.11 0.95 0.58 0.43 0.42 0.45 0.51 0.59 0.67 0.66 0.64 0.69 0.76 0.87 0.98 1.05 1.11 1.30 1.63 2.24 3.15 4.11 4.28 3.57 2.72 2.18 2.12 2.50 2.90 3.32
0.86 0.87 0.85 0.83 0.82 0.76 0.76 0.81 0.95 1.06 0.79 0.41 0.38 0.42 0.55 0.65 0.76 0.75 0.76 0.82 0.81 0.88 0.95 1.01 1.03 1.13 1.29 1.61 2.20 3.09 3.94 4.10 3.54 2.86 2.48 2.53 2.82 3.13
0.92 0.98 0.96 0.94 1.00 0.95 0.89 0.85 0.86 0.95 0.94 0.49 0.38 0.42 0.61 0.80 0.85 0.86 0.90 0.86 0.79 0.82 0.87 0.93 0.99 1.06 1.19 1.37 1.71 2.29 3.10 3.80 3.99 3.63 3.19 2.87 2.84 2.93
0.99 1.01 1.04 1.05 1.08 1.07 1.05 0.96 0.85 0.80 0.87 0.71 0.50 0.52 0.65 0.81 0.87 0.90 0.96 0.93 0.85 0.87 0.90 0.95 1.01 1.09 1.21 1.31 1.51 1.83 2.42 3.06 3.62 3.80 3.58 3.19 2.99 3.04
1.23 1.21 1.15 1.14 1.16 1.11 1.11 1.07 0.96 0.85 0.81 0.82 0.66 0.59 0.67 0.79 0.92 0.99 1.01 1.00 0.99 1.02 0.96 0.99 1.06 1.10 1.17 1.26 1.38 1.62 1.88 2.26 2.77 3.38 3.63 3.46 3.17 3.06
1.31 1.33 1.30 1.31 1.27 1.22 1.21 1.17 1.12 1.11 1.05 1.03 0.92 0.78 0.76 0.81 0.98 1.15 1.21 1.07 1.05 1.06 1.06 1.04 1.11 1.16 1.18 1.13 1.11 1.31 1.56 1.89 2.38 2.93 3.42 3.57 3.26 3.06
1.15 1.15 1.23 1.38 1.44 1.51 1.55 1.44 1.39 1.47 1.43 1.36 1.19 1.04 0.94 0.99 1.09 1.18 1.36 1.28 1.20 1.14 1.13 1.05 1.07 1.07 1.05 1.05 1.07 1.19 1.41 1.56 1.88 2.38 2.88 3.28 3.29 3.13
0.99 0.93 0.95 1.15 1.25 1.38 1.52 1.54 1.59 1.73 1.79 1.71 1.48 1.25 1.03 0.98 1.07 1.28 1.47 1.63 1.56 1.23 1.22 1.22 1.18 1.18 1.07 0.99 1.04 1.10 1.26 1.43 1.60 1.91 2.31 2.71 2.98 3.09
0.80 0.81 0.81 0.89 1.03 1.04 1.19 1.29 1.37 1.53 1.73 1.80 1.75 1.36 1.10 1.00 1.21 1.42 1.50 1.62 1.53 1.35 1.41 1.59 1.41 1.30 1.15 1.08 1.08 1.01 1.11 1.25 1.36 1.54 1.83 2.23 2.60 2.84
0.67 0.66 0.66 0.71 0.86 1.03 1.14 1.16 1.13 1.23 1.49 1.67 1.80 1.61 1.38 1.29 1.48 1.76 1.92 1.97 1.81 1.62 1.58 1.86 1.65 1.45 1.32 1.21 1.11 0.99 1.01 1.09 1.19 1.29 1.47 1.79 2.16 2.44
0.65 0.65 0.61 0.60 0.84 1.07 1.10 1.07 0.98 1.02 1.19 1.47 1.68 1.76 1.78 1.86 1.98 2.27 2.46 2.44 2.31 1.99 1.75 1.87 1.88 1.75 1.60 1.47 1.27 1.07 0.97 0.98 1.05 1.13 1.22 1.42 1.74 2.13
0.69 0.67 0.74 0.77 0.93 1.01 0.97 1.03 1.07 0.98 0.96 1.05 1.16 1.27 1.35 1.49 1.78 2.03 2.24 2.35 2.35 2.32 1.92 1.82 1.97 2.02 2.20 1.83 1.41 1.07 0.93 0.95 0.95 0.99 1.07 1.19 1.42 1.66
0.82 0.76 0.73 0.85 0.90 0.94 0.99 1.00 1.13 1.05 0.99 1.10 1.11 1.07 1.11 1.24 1.41 1.68 1.99 2.22 2.35 2.27 1.89 1.89 2.08 1.93 2.07 2.01 1.66 1.26 0.92 0.84 0.83 0.91 0.99 1.06 1.18 1.30
0.84 0.74 0.73 0.86 0.92 0.98 0.98 1.05 1.13 1.10 1.04 1.05 1.00 0.97 1.01 1.11 1.24 1.44 1.70 1.91 2.00 2.03 1.83 1.81 2.15 1.94 1.80 1.69 1.63 1.49 1.14 0.88 0.78 0.80 0.88 1.08 1.20 1.24
1.01 1.02 0.94 0.97 0.99 0.93 0.96 0.99 0.99 0.97 1.03 1.03 0.93 0.84 0.87 0.99 1.10 1.25 1.43 1.64 1.80 1.90 1.90 1.80 1.91 1.92 1.84 1.68 1.40 1.29 1.25 1.12 0.86 0.80 0.87 0.91 0.97 1.06
1.16 1.16 1.12 1.09 1.00 0.94 0.93 0.87 0.83 0.89 0.93 0.91 0.83 0.75 0.75 0.86 1.01 1.15 1.34 1.52 1.76 1.87 1.89 1.89 1.90 2.04 1.99 1.61 1.37 1.20 1.06 1.18 1.02 0.82 0.84 0.90 0.89 0.82
1.26 1.20 1.10 1.08 1.07 0.97 0.86 0.79 0.78 0.82 0.82 0.75 0.75 0.75 0.77 0.84 0.93 1.05 1.29 1.45 1.63 1.68 1.82 2.01 2.05 2.05 2.05 1.93 1.74 1.31 1.01 0.94 0.91 0.81 0.84 0.98 1.04 0.94
1.26 1.16 0.98 0.90 0.89 0.85 0.81 0.77 0.74 0.73 0.70 0.69 0.73 0.75 0.79 0.87 0.93 1.00 1.20 1.40 1.48 1.49 1.60 1.82 1.99 2.09 2.24 2.32 2.02 1.49 1.12 0.99 0.94 0.87 0.84 0.96 1.14 1.07
1.03 0.92 0.82 0.76 0.72 0.69 0.71 0.69 0.67 0.64 0.67 0.70 0.71 0.70 0.74 0.81 0.88 0.95 1.08 1.23 1.33 1.40 1.48 1.57 1.74 1.90 2.02 2.16 2.24 1.80 1.35 1.14 1.09 1.10 1.00 0.93 1.01 1.05
0.87 0.82 0.80 0.75 0.71 0.69 0.68 0.68 0.65 0.65 0.70 0.72 0.70 0.67 0.70 0.78 0.83 0.86 0.93 1.07 1.18 1.28 1.37 1.44 1.56 1.70 1.77 1.74 1.88 1.94 1.73 1.36 1.20 1.23 1.16 1.08 1.09 1.20
0.84 0.79 0.78 0.81 0.79 0.74 0.69 0.69 0.70 0.68 0.67 0.70 0.69 0.67 0.68 0.75 0.78 0.79 0.86 0.98 1.08 1.14 1.22 1.30 1.40 1.53 1.66 1.65 1.61 1.63 1.77 1.75 1.41 1.22 1.17 1.24 1.34 1.36
0.80 0.79 0.77 0.80 0.83 0.81 0.76 0.75 0.75 0.71 0.69 0.70 0.66 0.64 0.67 0.71 0.75 0.76 0.81 0.86 0.90 0.97 1.08 1.18 1.30 1.50 1.69 1.74 1.61 1.48 1.60 1.80 1.83 1.56 1.32 1.27 1.43 1.54
0.82 0.82 0.80 0.80 0.82 0.81 0.78 0.77 0.77 0.73 0.70 0.68 0.63 0.60 0.62 0.69 0.71 0.72 0.72 0.72 0.76 0.85 0.99 1.14 1.28 1.45 1.61 1.66 1.64 1.49 1.43 1.55 1.69 1.71 1.71 1.47 1.16 1.02

GEFSNE_prec_meanprecacc_228.txt.gz
Total_Precipitation_Accumulation
0.80 0.78 0.78 0.70 0.66 0.67 0.71 0.87 1.12 0.97 0.58 0.43 0.42 0.45 0.52 0.60 0.69 0.68 0.65 0.70 0.77 0.88 1.00 1.06 1.12 1.31 1.69 2.32 3.21 4.16 4.34 3.63 2.77 2.23 2.16 2.56 2.98 3.39
0.86 0.87 0.85 0.83 0.82 0.76 0.76 0.81 0.96 1.08 0.80 0.41 0.39 0.43 0.55 0.66 0.77 0.76 0.76 0.83 0.82 0.89 0.97 1.02 1.05 1.15 1.35 1.71 2.27 3.14 3.99 4.15 3.58 2.90 2.52 2.58 2.88 3.20
0.92 0.98 0.96 0.94 1.00 0.96 0.89 0.86 0.86 0.96 0.96 0.50 0.38 0.42 0.61 0.81 0.86 0.87 0.91 0.86 0.80 0.83 0.89 0.95 1.00 1.08 1.25 1.47 1.79 2.33 3.15 3.84 4.03 3.67 3.24 2.93 2.90 3.00
0.99 1.01 1.04 1.05 1.09 1.07 1.05 0.96 0.85 0.80 0.88 0.72 0.50 0.53 0.65 0.82 0.88 0.91 0.97 0.95 0.87 0.89 0.92 0.97 1.03 1.12 1.27 1.41 1.60 1.89 2.47 3.09 3.65 3.85 3.63 3.24 3.04 3.10
1.23 1.21 1.15 1.15 1.16 1.11 1.12 1.07 0.96 0.86 0.83 0.84 0.67 0.61 0.69 0.80 0.92 1.00 1.03 1.03 1.02 1.05 0.99 1.01 1.09 1.15 1.24 1.34 1.45 1.66 1.91 2.29 2.80 3.42 3.68 3.50 3.20 3.11
1.31 1.33 1.30 1.31 1.27 1.23 1.22 1.17 1.13 1.12 1.06 1.05 0.93 0.80 0.78 0.82 0.99 1.17 1.24 1.11 1.09 1.09 1.08 1.07 1.14 1.19 1.24 1.19 1.15 1.33 1.58 1.91 2.41 2.96 3.46 3.60 3.29 3.10
1.15 1.16 1.23 1.38 1.44 1.51 1.55 1.45 1.41 1.49 1.45 1.38 1.21 1.05 0.96 1.01 1.11 1.20 1.40 1.33 1.22 1.16 1.16 1.09 1.10 1.10 1.10 1.08 1.10 1.22 1.44 1.59 1.91 2.42 2.93 3.32 3.34 3.18
0.99 0.93 0.95 1.15 1.25 1.38 1.52 1.55 1.61 1.75 1.81 1.74 1.50 1.28 1.04 1.00 1.11 1.32 1.52 1.68 1.60 1.25 1.26 1.26 1.20 1.22 1.10 1.01 1.07 1.13 1.30 1.47 1.63 1.96 2.37 2.77 3.04 3.16
0.80 0.81 0.81 0.89 1.03 1.04 1.20 1.30 1.38 1.54 1.74 1.83 1.78 1.39 1.13 1.03 1.27 1.47 1.54 1.66 1.57 1.38 1.45 1.62 1.44 1.32 1.17 1.11 1.12 1.05 1.14 1.28 1.40 1.59 1.90 2.28 2.64 2.89
0.67 0.66 0.66 0.72 0.86 1.03 1.15 1.18 1.13 1.23 1.50 1.68 1.82 1.63 1.41 1.34 1.55 1.83 1.98 2.02 1.84 1.65 1.60 1.89 1.68 1.48 1.35 1.23 1.15 1.02 1.04 1.12 1.23 1.33 1.52 1.84 2.20 2.48
0.65 0.65 0.61 0.60 0.85 1.08 1.11 1.08 0.99 1.02 1.20 1.48 1.69 1.78 1.82 1.91 2.04 2.33 2.52 2.50 2.35 2.02 1.78 1.90 1.90 1.78 1.63 1.50 1.31 1.11 1.00 1.01 1.08 1.16 1.25 1.47 1.79 2.18
0.69 0.67 0.74 0.78 0.95 1.02 0.98 1.05 1.09 0.99 0.97 1.06 1.17 1.29 1.38 1.53 1.83 2.08 2.29 2.42 2.40 2.36 1.95 1.86 2.00 2.05 2.23 1.87 1.45 1.10 0.96 0.97 0.98 1.02 1.11 1.22 1.46 1.70
0.83 0.76 0.73 0.86 0.91 0.96 1.00 1.02 1.16 1.07 1.01 1.11 1.12 1.09 1.14 1.28 1.46 1.72 2.04 2.28 2.41 2.33 1.93 1.93 2.11 1.95 2.10 2.04 1.69 1.29 0.95 0.87 0.86 0.94 1.03 1.10 1.22 1.34
0.85 0.74 0.74 0.87 0.93 0.99 0.99 1.07 1.15 1.12 1.05 1.07 1.02 1.00 1.05 1.15 1.29 1.49 1.75 1.96 2.06 2.07 1.87 1.84 2.18 1.96 1.83 1.71 1.66 1.52 1.16 0.91 0.80 0.82 0.89 1.11 1.23 1.27
1.02 1.03 0.95 0.98 1.00 0.94 0.98 1.01 1.01 0.98 1.04 1.04 0.95 0.88 0.92 1.04 1.15 1.30 1.47 1.68 1.83 1.93 1.92 1.82 1.93 1.94 1.87 1.71 1.43 1.31 1.27 1.15 0.88 0.82 0.88 0.93 0.99 1.08
1.16 1.16 1.12 1.09 1.01 0.95 0.94 0.88 0.84 0.90 0.94 0.93 0.86 0.79 0.79 0.91 1.06 1.20 1.37 1.55 1.80 1.91 1.92 1.91 1.92 2.06 2.02 1.64 1.40 1.23 1.08 1.21 1.04 0.84 0.86 0.92 0.90 0.84
1.26 1.20 1.10 1.08 1.07 0.98 0.87 0.80 0.79 0.83 0.84 0.78 0.78 0.79 0.81 0.89 0.98 1.10 1.32 1.48 1.66 1.71 1.85 2.04 2.08 2.07 2.07 1.95 1.76 1.33 1.03 0.96 0.93 0.83 0.87 1.00 1.07 0.96
1.26 1.17 0.98 0.90 0.90 0.86 0.83 0.79 0.75 0.74 0.72 0.72 0.77 0.80 0.84 0.91 0.96 1.03 1.23 1.42 1.51 1.51 1.62 1.84 2.02 2.12 2.25 2.33 2.04 1.51 1.14 1.01 0.97 0.89 0.85 0.98 1.16 1.09
1.03 0.92 0.82 0.77 0.73 0.71 0.73 0.71 0.69 0.67 0.70 0.75 0.76 0.74 0.78 0.85 0.91 0.97 1.10 1.24 1.34 1.41 1.49 1.59 1.76 1.92 2.04 2.18 2.26 1.82 1.38 1.17 1.11 1.12 1.02 0.95 1.04 1.08
0.89 0.84 0.82 0.77 0.72 0.70 0.70 0.71 0.68 0.68 0.73 0.76 0.75 0.71 0.73 0.81 0.85 0.88 0.95 1.08 1.20 1.29 1.39 1.46 1.58 1.73 1.80 1.77 1.91 1.96 1.76 1.39 1.23 1.25 1.18 1.10 1.11 1.23
0.86 0.82 0.82 0.85 0.83 0.78 0.73 0.72 0.74 0.72 0.71 0.76 0.74 0.70 0.71 0.77 0.80 0.81 0.87 1.00 1.10 1.16 1.24 1.31 1.43 1.56 1.68 1.67 1.64 1.66 1.80 1.78 1.44 1.25 1.19 1.26 1.37 1.39
0.82 0.81 0.80 0.83 0.87 0.85 0.82 0.80 0.80 0.77 0.76 0.77 0.72 0.68 0.69 0.73 0.77 0.78 0.83 0.87 0.91 0.99 1.10 1.20 1.33 1.52 1.71 1.76 1.65 1.52 1.65 1.83 1.86 1.58 1.34 1.28 1.45 1.57
0.84 0.84 0.82 0.83 0.85 0.84 0.82 0.81 0.82 0.79 0.75 0.74 0.69 0.64 0.65 0.72 0.73 0.74 0.74 0.74 0.78 0.87 1.02 1.16 1.30 1.47 1.63 1.69 1.67 1.52 1.47 1.59 1.72 1.74 1.73 1.50 1.19 1.05

GEFSNE_prec_meanprecacc_234.txt.gz
Total_Precipitation_Accumulation
0.80 0.78 0.78 0.70 0.66 0.67 0.72 0.88 1.13 0.98 0.59 0.43 0.42 0.45 0.52 0.61 0.70 0.68 0.66 0.70 0.77 0.89 1.01 1.07 1.14 1.33 1.71 2.35 3.23 4.18 4.38 3.68 2.84 2.31 2.25 2.67 3.10 3.52
0.86 0.87 0.85 0.84 0.82 0.77 0.77 0.82 0.96 1.09 0.81 0.42 0.39 0.43 0.56 0.66 0.78 0.77 0.77 0.84 0.83 0.90 0.98 1.03 1.06 1.17 1.37 1.73 2.29 3.16 4.03 4.20 3.65 2.97 2.61 2.68 2.98 3.29
0.92 0.98 0.96 0.94 1.00 0.96 0.90 0.86 0.87 0.97 0.97 0.51 0.39 0.42 0.62 0.81 0.86 0.88 0.92 0.87 0.81 0.84 0.90 0.96 1.01 1.10 1.27 1.50 1.82 2.36 3.19 3.90 4.09 3.74 3.32 3.02 2.97 3.07
0.99 1.01 1.04 1.05 1.09 1.07 1.06 0.97 0.86 0.81 0.90 0.73 0.51 0.53 0.66 0.82 0.89 0.92 0.98 0.96 0.88 0.90 0.93 0.98 1.05 1.14 1.28 1.43 1.63 1.91 2.52 3.15 3.71 3.91 3.71 3.31 3.09 3.15
1.23 1.21 1.16 1.15 1.16 1.11 1.12 1.07 0.97 0.86 0.84 0.85 0.68 0.62 0.69 0.80 0.92 1.00 1.04 1.03 1.03 1.06 1.00 1.02 1.11 1.16 1.26 1.37 1.49 1.69 1.97 2.34 2.85 3.48 3.74 3.55 3.24 3.15
1.31 1.33 1.30 1.31 1.27 1.23 1.22 1.18 1.14 1.13 1.07 1.06 0.95 0.81 0.78 0.82 1.00 1.17 1.25 1.12 1.10 1.10 1.10 1.09 1.16 1.21 1.26 1.24 1.20 1.38 1.63 1.95 2.46 3.01 3.50 3.64 3.32 3.13
1.15 1.16 1.23 1.38 1.44 1.52 1.56 1.46 1.42 1.50 1.47 1.40 1.23 1.06 0.96 1.01 1.12 1.21 1.42 1.36 1.24 1.17 1.17 1.10 1.11 1.12 1.12 1.14 1.15 1.28 1.49 1.63 1.95 2.46 2.97 3.35 3.36 3.21
1.00 0.93 0.95 1.15 1.25 1.39 1.53 1.56 1.62 1.76 1.84 1.77 1.52 1.29 1.06 1.01 1.12 1.34 1.55 1.71 1.63 1.27 1.27 1.28 1.22 1.24 1.15 1.09 1.13 1.19 1.35 1.50 1.67 2.00 2.41 2.80 3.06 3.19
0.81 0.81 0.82 0.89 1.04 1.04 1.20 1.31 1.39 1.55 1.76 1.85 1.81 1.41 1.15 1.05 1.30 1.50 1.57 1.69 1.60 1.39 1.46 1.64 1.46 1.36 1.24 1.19 1.18 1.10 1.18 1.31 1.43 1.63 1.94 2.32 2.67 2.92
0.68 0.66 0.67 0.72 0.87 1.04 1.16 1.18 1.13 1.24 1.51 1.70 1.84 1.65 1.43 1.37 1.58 1.87 2.01 2.04 1.86 1.66 1.62 1.92 1.70 1.52 1.41 1.29 1.20 1.06 1.08 1.15 1.26 1.36 1.55 1.87 2.24 2.51
0.66 0.66 0.62 0.61 0.85 1.09 1.12 1.08 0.99 1.02 1.20 1.49 1.70 1.79 1.84 1.94 2.08 2.37 2.56 2.52 2.37 2.03 1.79 1.92 1.92 1.80 1.65 1.54 1.34 1.14 1.03 1.04 1.10 1.19 1.29 1.50 1.82 2.21
0.70 0.68 0.75 0.79 0.96 1.03 0.99 1.05 1.10 1.00 0.98 1.07 1.18 1.30 1.39 1.54 1.85 2.11 2.33 2.46 2.43 2.39 1.97 1.88 2.02 2.07 2.26 1.89 1.48 1.13 0.99 1.00 1.00 1.04 1.13 1.25 1.49 1.72
0.84 0.77 0.74 0.87 0.92 0.96 1.01 1.03 1.17 1.09 1.02 1.12 1.13 1.10 1.15 1.29 1.47 1.75 2.08 2.33 2.46 2.37 1.96 1.96 2.14 1.98 2.13 2.07 1.72 1.32 0.98 0.89 0.89 0.96 1.04 1.11 1.24 1.36
0.86 0.75 0.75 0.88 0.94 1.00 1.00 1.08 1.16 1.13 1.06 1.08 1.03 1.01 1.06 1.16 1.31 1.51 1.77 1.99 2.10 2.12 1.91 1.89 2.23 2.01 1.88 1.76 1.70 1.55 1.19 0.93 0.82 0.83 0.91 1.12 1.25 1.29
1.03 1.04 0.96 0.99 1.00 0.95 0.99 1.02 1.02 0.99 1.05 1.05 0.96 0.89 0.93 1.06 1.16 1.31 1.48 1.70 1.87 1.97 1.96 1.86 1.97 2.00 1.92 1.77 1.48 1.34 1.29 1.17 0.89 0.83 0.90 0.94 1.01 1.10
1.17 1.17 1.13 1.09 1.01 0.96 0.95 0.89 0.85 0.90 0.95 0.95 0.87 0.80 0.81 0.92 1.07 1.21 1.39 1.58 1.83 1.94 1.95 1.95 1.95 2.08 2.05 1.67 1.43 1.25 1.10 1.23 1.06 0.86 0.88 0.95 0.93 0.87
1.27 1.20 1.10 1.08 1.08 0.98 0.88 0.81 0.79 0.84 0.85 0.79 0.80 0.81 0.83 0.90 0.99 1.11 1.34 1.51 1.70 1.74 1.88 2.06 2.09 2.08 2.09 1.96 1.78 1.35 1.05 0.98 0.95 0.85 0.89 1.04 1.10 1.00
1.27 1.17 0.98 0.90 0.91 0.87 0.83 0.80 0.76 0.76 0.74 0.75 0.79 0.82 0.87 0.93 0.99 1.05 1.26 1.46 1.54 1.54 1.65 1.86 2.03 2.13 2.26 2.34 2.06 1.53 1.15 1.03 0.99 0.91 0.88 1.02 1.21 1.14
1.04 0.93 0.83 0.77 0.73 0.71 0.74 0.72 0.70 0.69 0.72 0.77 0.78 0.77 0.81 0.87 0.93 1.01 1.13 1.28 1.38 1.44 1.51 1.61 1.78 1.94 2.06 2.20 2.28 1.84 1.41 1.19 1.13 1.14 1.04 0.98 1.09 1.13
0.90 0.84 0.82 0.78 0.74 0.72 0.72 0.73 0.70 0.70 0.76 0.80 0.78 0.74 0.77 0.85 0.89 0.92 0.99 1.12 1.23 1.31 1.41 1.47 1.60 1.76 1.83 1.80 1.94 2.00 1.79 1.42 1.25 1.28 1.21 1.13 1.15 1.26
0.87 0.82 0.83 0.86 0.84 0.80 0.76 0.76 0.78 0.77 0.76 0.81 0.79 0.75 0.75 0.81 0.85 0.85 0.91 1.04 1.13 1.19 1.27 1.34 1.45 1.59 1.71 1.70 1.67 1.70 1.83 1.80 1.47 1.29 1.23 1.29 1.39 1.41
0.83 0.82 0.81 0.85 0.89 0.87 0.84 0.83 0.84 0.82 0.81 0.83 0.77 0.73 0.74 0.78 0.81 0.82 0.86 0.91 0.95 1.02 1.13 1.23 1.35 1.54 1.73 1.79 1.68 1.55 1.68 1.86 1.88 1.61 1.37 1.31 1.47 1.61
0.85 0.85 0.83 0.84 0.86 0.86 0.84 0.84 0.85 0.83 0.81 0.79 0.73 0.67 0.69 0.75 0.76 0.77 0.77 0.76 0.81 0.90 1.04 1.19 1.32 1.49 1.66 1.71 1.70 1.55 1.50 1.62 1.75 1.77 1.76 1.52 1.21 1.08

GEFSNE_prec_meanprecacc_240.txt.gz
Total_Precipitation_Accumulation
0.80 0.78 0.78 0.70 0.66 0.67 0.72 0.88 1.14 0.99 0.59 0.43 0.42 0.45 0.52 0.61 0.70 0.68 0.66 0.71 0.78 0.89 1.02 1.09 1.15 1.35 1.73 2.37 3.26 4.21 4.41 3.72 2.88 2.36 2.31 2.74 3.16 3.58
0.86 0.87 0.85 0.84 0.82 0.77 0.77 0.82 0.97 1.10 0.82 0.42 0.39 0.43 0.56 0.66 0.78 0.78 0.77 0.84 0.83 0.91 0.99 1.04 1.07 1.18 1.39 1.75 2.31 3.19 4.06 4.24 3.68 3.01 2.66 2.74 3.05 3.36
0.92 0.98 0.96 0.94 1.00 0.96 0.90 0.86 0.87 0.97 0.98 0.51 0.39 0.42 0.62 0.82 0.87 0.88 0.92 0.87 0.81 0.84 0.91 0.97 1.03 1.11 1.29 1.52 1.84 2.38 3.22 3.93 4.12 3.77 3.36 3.07 3.04 3.14
0.99 1.01 1.04 1.05 1.09 1.07 1.06 0.97 0.86 0.81 0.91 0.75 0.51 0.53 0.66 0.83 0.89 0.92 0.98 0.96 0.88 0.91 0.93 0.99 1.05 1.15 1.30 1.45 1.65 1.93 2.54 3.18 3.74 3.94 3.74 3.35 3.15 3.22
1.24 1.21 1.16 1.15 1.16 1.11 1.12 1.08 0.97 0.87 0.85 0.86 0.69 0.62 0.69 0.80 0.93 1.00 1.04 1.04 1.03 1.06 1.01 1.03 1.11 1.17 1.27 1.39 1.51 1.71 1.99 2.36 2.87 3.50 3.77 3.59 3.31 3.22
1.32 1.33 1.31 1.31 1.27 1.23 1.23 1.18 1.15 1.14 1.08 1.07 0.96 0.81 0.79 0.82 1.00 1.18 1.25 1.12 1.11 1.10 1.10 1.10 1.18 1.22 1.27 1.26 1.22 1.39 1.65 1.97 2.48 3.04 3.54 3.68 3.38 3.19
1.16 1.16 1.23 1.38 1.45 1.52 1.57 1.47 1.43 1.52 1.49 1.42 1.24 1.07 0.97 1.02 1.13 1.23 1.43 1.36 1.25 1.17 1.18 1.11 1.14 1.14 1.13 1.16 1.17 1.30 1.51 1.65 1.98 2.50 3.02 3.41 3.43 3.26
1.01 0.94 0.95 1.15 1.26 1.39 1.54 1.57 1.63 1.78 1.86 1.79 1.55 1.31 1.07 1.02 1.13 1.36 1.56 1.73 1.64 1.28 1.28 1.29 1.24 1.27 1.17 1.11 1.16 1.22 1.38 1.53 1.71 2.05 2.47 2.87 3.13 3.24
0.83 0.83 0.83 0.90 1.05 1.05 1.21 1.32 1.39 1.56 1.78 1.88 1.83 1.43 1.17 1.07 1.32 1.53 1.59 1.71 1.62 1.41 1.48 1.67 1.48 1.39 1.28 1.23 1.22 1.14 1.22 1.35 1.47 1.68 2.00 2.38 2.73 2.96
0.70 0.69 0.69 0.73 0.88 1.05 1.17 1.19 1.14 1.24 1.51 1.71 1.85 1.67 1.45 1.38 1.61 1.91 2.04 2.06 1.87 1.68 1.64 1.95 1.73 1.57 1.47 1.35 1.26 1.11 1.12 1.19 1.30 1.41 1.60 1.92 2.27 2.54
0.68 0.68 0.64 0.63 0.88 1.12 1.14 1.10 1.00 1.03 1.21 1.49 1.71 1.80 1.85 1.95 2.10 2.39 2.58 2.55 2.39 2.04 1.80 1.95 1.96 1.84 1.70 1.59 1.38 1.17 1.06 1.07 1.13 1.22 1.31 1.52 1.84 2.23
0.72 0.69 0.78 0.81 0.98 1.07 1.02 1.08 1.13 1.02 0.99 1.07 1.18 1.30 1.40 1.55 1.87 2.13 2.37 2.49 2.46 2.41 1.98 1.90 2.04 2.10 2.29 1.92 1.50 1.15 1.00 1.01 1.02 1.06 1.15 1.27 1.51 1.74
0.86 0.79 0.76 0.89 0.95 0.99 1.04 1.06 1.20 1.11 1.03 1.12 1.14 1.11 1.15 1.30 1.48 1.77 2.10 2.36 2.50 2.41 1.99 2.00 2.18 2.01 2.17 2.10 1.75 1.34 0.99 0.91 0.90 0.97 1.06 1.13 1.25 1.37
0.88 0.77 0.77 0.90 0.96 1.02 1.02 1.10 1.18 1.15 1.07 1.09 1.04 1.01 1.06 1.17 1.31 1.52 1.79 2.01 2.13 2.15 1.94 1.93 2.28 2.06 1.92 1.80 1.73 1.57 1.21 0.95 0.83 0.84 0.92 1.13 1.26 1.30
1.04 1.05 0.97 1.00 1.02 0.97 1.00 1.04 1.03 1.00 1.06 1.07 0.97 0.90 0.94 1.06 1.17 1.31 1.49 1.71 1.88 1.98 1.98 1.88 2.00 2.03 1.96 1.81 1.51 1.36 1.31 1.19 0.91 0.84 0.90 0.95 1.02 1.12
1.18 1.17 1.13 1.10 1.01 0.96 0.96 0.90 0.86 0.92 0.97 0.97 0.89 0.82 0.82 0.93 1.08 1.22 1.40 1.59 1.84 1.95 1.97 1.96 1.96 2.11 2.08 1.70 1.46 1.28 1.13 1.26 1.08 0.87 0.90 0.97 0.96 0.91
1.28 1.21 1.11 1.09 1.08 0.98 0.88 0.82 0.80 0.85 0.87 0.81 0.81 0.82 0.84 0.91 1.00 1.12 1.36 1.53 1.72 1.77 1.90 2.08 2.11 2.10 2.11 1.99 1.81 1.37 1.07 1.00 0.97 0.87 0.92 1.07 1.14 1.04
1.28 1.18 0.99 0.91 0.91 0.87 0.84 0.80 0.77 0.77 0.76 0.77 0.82 0.84 0.89 0.96 1.01 1.07 1.28 1.49 1.58 1.58 1.68 1.88 2.05 2.14 2.27 2.35 2.07 1.55 1.17 1.05 1.00 0.93 0.91 1.06 1.27 1.19
1.07 0.95 0.85 0.79 0.75 0.72 0.75 0.73 0.72 0.71 0.74 0.79 0.80 0.79 0.83 0.90 0.96 1.03 1.16 1.31 1.41 1.47 1.53 1.62 1.79 1.96 2.08 2.22 2.31 1.86 1.43 1.21 1.14 1.15 1.07 1.03 1.16 1.21
0.91 0.86 0.85 0.80 0.76 0.74 0.74 0.75 0.72 0.72 0.78 0.82 0.81 0.77 0.80 0.88 0.93 0.96 1.02 1.16 1.27 1.34 1.42 1.49 1.61 1.78 1.87 1.84 1.98 2.02 1.81 1.44 1.28 1.31 1.24 1.17 1.19 1.30
0.88 0.84 0.84 0.88 0.86 0.82 0.78 0.78 0.79 0.78 0.78 0.83 0.81 0.77 0.78 0.85 0.88 0.88 0.94 1.07 1.16 1.21 1.29 1.36 1.47 1.61 1.73 1.73 1.70 1.72 1.85 1.82 1.49 1.32 1.26 1.33 1.42 1.44
0.84 0.84 0.83 0.86 0.90 0.88 0.85 0.84 0.85 0.84 0.83 0.85 0.80 0.76 0.77 0.81 0.85 0.85 0.89 0.93 0.97 1.05 1.16 1.25 1.36 1.56 1.75 1.81 1.70 1.58 1.70 1.88 1.90 1.63 1.39 1.34 1.51 1.66
0.86 0.87 0.85 0.85 0.88 0.87 0.85 0.85 0.86 0.84 0.82 0.81 0.75 0.69 0.71 0.77 0.78 0.80 0.79 0.78 0.82 0.91 1.06 1.20 1.32 1.50 1.67 1.73 1.72 1.57 1.52 1.64 1.77 1.79 1.79 1.55 1.24 1.11